<?xml version="1.0" encoding="UTF-8" standalone="no" ?>
<gpx xmlns="http://www.topografix.com/GPX/1/1" xmlns:xsi="http://www.w3.org/2001/XMLSchema-instance" xsi:schemaLocation="http://www.topografix.com/GPX/1/1 http://www.topografix.com/GPX/1/1/gpx.xsd" version="1.1" creator="VisuGPX - https://www.visugpx.com">
  <metadata>
    <name>La Faye de Valempoulières,repèrage</name>
  </metadata>
  <trk>
    <name><![CDATA[La Faye de Valempoulières,repèrage_1]]></name>
    <extensions>
      <line xmlns="http://www.topografix.com/GPX/gpx_style/0/2">
        <color>0000FF</color>
        <width>4</width>
      </line>
    </extensions>
    <trkseg>
      <trkpt lat="46.85743" lon="5.89799">
        <ele>597.3</ele>
        <time>2021-07-05T11:50:28Z</time>
      </trkpt>
      <trkpt lat="46.8576" lon="5.89798">
        <ele>601.1</ele>
        <time>2021-07-05T11:50:32Z</time>
      </trkpt>
      <trkpt lat="46.85763" lon="5.89803">
        <ele>609.7</ele>
        <time>2021-07-05T11:50:52Z</time>
      </trkpt>
      <trkpt lat="46.85758" lon="5.89801">
        <ele>617.2</ele>
        <time>2021-07-05T11:52:27Z</time>
      </trkpt>
      <trkpt lat="46.85764" lon="5.898">
        <ele>624.8</ele>
        <time>2021-07-05T11:52:46Z</time>
      </trkpt>
      <trkpt lat="46.85768" lon="5.89803">
        <ele>627.6</ele>
        <time>2021-07-05T11:52:51Z</time>
      </trkpt>
      <trkpt lat="46.85771" lon="5.89808">
        <ele>629.9</ele>
        <time>2021-07-05T11:52:55Z</time>
      </trkpt>
      <trkpt lat="46.85775" lon="5.89812">
        <ele>633.5</ele>
        <time>2021-07-05T11:53:00Z</time>
      </trkpt>
      <trkpt lat="46.85777" lon="5.89819">
        <ele>636.7</ele>
        <time>2021-07-05T11:53:05Z</time>
      </trkpt>
      <trkpt lat="46.85779" lon="5.89825">
        <ele>640.6</ele>
        <time>2021-07-05T11:53:14Z</time>
      </trkpt>
      <trkpt lat="46.85779" lon="5.89832">
        <ele>642.6</ele>
        <time>2021-07-05T11:53:21Z</time>
      </trkpt>
      <trkpt lat="46.85781" lon="5.8984">
        <ele>644</ele>
        <time>2021-07-05T11:53:26Z</time>
      </trkpt>
      <trkpt lat="46.85783" lon="5.89848">
        <ele>644.7</ele>
        <time>2021-07-05T11:53:30Z</time>
      </trkpt>
      <trkpt lat="46.85783" lon="5.89857">
        <ele>645.4</ele>
        <time>2021-07-05T11:53:34Z</time>
      </trkpt>
      <trkpt lat="46.85786" lon="5.89862">
        <ele>645.9</ele>
        <time>2021-07-05T11:53:41Z</time>
      </trkpt>
      <trkpt lat="46.85786" lon="5.8987">
        <ele>645.1</ele>
        <time>2021-07-05T11:53:48Z</time>
      </trkpt>
      <trkpt lat="46.85786" lon="5.89877">
        <ele>644</ele>
        <time>2021-07-05T11:53:53Z</time>
      </trkpt>
      <trkpt lat="46.85785" lon="5.89885">
        <ele>643.2</ele>
        <time>2021-07-05T11:53:57Z</time>
      </trkpt>
      <trkpt lat="46.85788" lon="5.89893">
        <ele>642.7</ele>
        <time>2021-07-05T11:54:01Z</time>
      </trkpt>
      <trkpt lat="46.8579" lon="5.899">
        <ele>642.9</ele>
        <time>2021-07-05T11:54:05Z</time>
      </trkpt>
      <trkpt lat="46.85795" lon="5.89906">
        <ele>643.5</ele>
        <time>2021-07-05T11:54:09Z</time>
      </trkpt>
      <trkpt lat="46.85797" lon="5.89912">
        <ele>644.2</ele>
        <time>2021-07-05T11:54:13Z</time>
      </trkpt>
      <trkpt lat="46.85799" lon="5.89918">
        <ele>644.9</ele>
        <time>2021-07-05T11:54:18Z</time>
      </trkpt>
      <trkpt lat="46.85804" lon="5.89923">
        <ele>645.2</ele>
        <time>2021-07-05T11:54:23Z</time>
      </trkpt>
      <trkpt lat="46.85808" lon="5.89927">
        <ele>645.3</ele>
        <time>2021-07-05T11:54:27Z</time>
      </trkpt>
      <trkpt lat="46.85811" lon="5.89932">
        <ele>645.3</ele>
        <time>2021-07-05T11:54:31Z</time>
      </trkpt>
      <trkpt lat="46.8581" lon="5.8994">
        <ele>645.3</ele>
        <time>2021-07-05T11:54:36Z</time>
      </trkpt>
      <trkpt lat="46.85808" lon="5.89948">
        <ele>645</ele>
        <time>2021-07-05T11:54:40Z</time>
      </trkpt>
      <trkpt lat="46.85808" lon="5.89956">
        <ele>644</ele>
        <time>2021-07-05T11:54:45Z</time>
      </trkpt>
      <trkpt lat="46.85812" lon="5.89961">
        <ele>642.3</ele>
        <time>2021-07-05T11:54:52Z</time>
      </trkpt>
      <trkpt lat="46.85816" lon="5.89965">
        <ele>641.7</ele>
        <time>2021-07-05T11:54:57Z</time>
      </trkpt>
      <trkpt lat="46.8582" lon="5.89971">
        <ele>641.9</ele>
        <time>2021-07-05T11:55:01Z</time>
      </trkpt>
      <trkpt lat="46.85824" lon="5.89978">
        <ele>642.3</ele>
        <time>2021-07-05T11:55:05Z</time>
      </trkpt>
      <trkpt lat="46.85829" lon="5.89983">
        <ele>643</ele>
        <time>2021-07-05T11:55:09Z</time>
      </trkpt>
      <trkpt lat="46.85831" lon="5.89989">
        <ele>643.6</ele>
        <time>2021-07-05T11:55:13Z</time>
      </trkpt>
      <trkpt lat="46.85831" lon="5.89998">
        <ele>644</ele>
        <time>2021-07-05T11:55:18Z</time>
      </trkpt>
      <trkpt lat="46.85831" lon="5.90005">
        <ele>644.5</ele>
        <time>2021-07-05T11:55:22Z</time>
      </trkpt>
      <trkpt lat="46.85833" lon="5.90011">
        <ele>644.7</ele>
        <time>2021-07-05T11:55:27Z</time>
      </trkpt>
      <trkpt lat="46.85836" lon="5.90016">
        <ele>644.5</ele>
        <time>2021-07-05T11:55:32Z</time>
      </trkpt>
      <trkpt lat="46.85838" lon="5.90023">
        <ele>645</ele>
        <time>2021-07-05T11:55:38Z</time>
      </trkpt>
      <trkpt lat="46.85839" lon="5.90031">
        <ele>645.7</ele>
        <time>2021-07-05T11:55:47Z</time>
      </trkpt>
      <trkpt lat="46.85839" lon="5.90038">
        <ele>645.1</ele>
        <time>2021-07-05T11:55:52Z</time>
      </trkpt>
      <trkpt lat="46.85838" lon="5.90046">
        <ele>644.4</ele>
        <time>2021-07-05T11:55:57Z</time>
      </trkpt>
      <trkpt lat="46.85839" lon="5.90053">
        <ele>643.9</ele>
        <time>2021-07-05T11:56:01Z</time>
      </trkpt>
      <trkpt lat="46.85843" lon="5.90059">
        <ele>643.7</ele>
        <time>2021-07-05T11:56:05Z</time>
      </trkpt>
      <trkpt lat="46.85846" lon="5.90065">
        <ele>643.6</ele>
        <time>2021-07-05T11:56:09Z</time>
      </trkpt>
      <trkpt lat="46.85845" lon="5.90073">
        <ele>642.5</ele>
        <time>2021-07-05T11:56:16Z</time>
      </trkpt>
      <trkpt lat="46.85847" lon="5.90079">
        <ele>641.8</ele>
        <time>2021-07-05T11:56:20Z</time>
      </trkpt>
      <trkpt lat="46.85847" lon="5.90087">
        <ele>641</ele>
        <time>2021-07-05T11:56:25Z</time>
      </trkpt>
      <trkpt lat="46.85847" lon="5.90094">
        <ele>640.1</ele>
        <time>2021-07-05T11:56:30Z</time>
      </trkpt>
      <trkpt lat="46.85847" lon="5.90101">
        <ele>639.5</ele>
        <time>2021-07-05T11:56:36Z</time>
      </trkpt>
      <trkpt lat="46.85844" lon="5.90109">
        <ele>639.5</ele>
        <time>2021-07-05T11:56:43Z</time>
      </trkpt>
      <trkpt lat="46.85845" lon="5.90116">
        <ele>640.4</ele>
        <time>2021-07-05T11:56:47Z</time>
      </trkpt>
      <trkpt lat="46.85845" lon="5.90123">
        <ele>640.4</ele>
        <time>2021-07-05T11:56:58Z</time>
      </trkpt>
      <trkpt lat="46.85843" lon="5.9013">
        <ele>639.8</ele>
        <time>2021-07-05T11:57:02Z</time>
      </trkpt>
      <trkpt lat="46.8584" lon="5.90136">
        <ele>638.9</ele>
        <time>2021-07-05T11:57:06Z</time>
      </trkpt>
      <trkpt lat="46.85839" lon="5.90144">
        <ele>637.1</ele>
        <time>2021-07-05T11:57:12Z</time>
      </trkpt>
      <trkpt lat="46.8584" lon="5.90152">
        <ele>636</ele>
        <time>2021-07-05T11:57:16Z</time>
      </trkpt>
      <trkpt lat="46.85838" lon="5.9016">
        <ele>635.3</ele>
        <time>2021-07-05T11:57:20Z</time>
      </trkpt>
      <trkpt lat="46.85835" lon="5.90166">
        <ele>634.2</ele>
        <time>2021-07-05T11:57:24Z</time>
      </trkpt>
      <trkpt lat="46.85832" lon="5.90173">
        <ele>633.6</ele>
        <time>2021-07-05T11:57:28Z</time>
      </trkpt>
      <trkpt lat="46.85828" lon="5.90176">
        <ele>632.6</ele>
        <time>2021-07-05T11:57:32Z</time>
      </trkpt>
      <trkpt lat="46.85825" lon="5.90182">
        <ele>631.4</ele>
        <time>2021-07-05T11:57:37Z</time>
      </trkpt>
      <trkpt lat="46.85824" lon="5.90189">
        <ele>630.3</ele>
        <time>2021-07-05T11:57:44Z</time>
      </trkpt>
      <trkpt lat="46.85821" lon="5.90196">
        <ele>630.3</ele>
        <time>2021-07-05T11:57:48Z</time>
      </trkpt>
      <trkpt lat="46.85818" lon="5.90204">
        <ele>631</ele>
        <time>2021-07-05T11:57:52Z</time>
      </trkpt>
      <trkpt lat="46.85814" lon="5.90208">
        <ele>631.4</ele>
        <time>2021-07-05T11:57:56Z</time>
      </trkpt>
      <trkpt lat="46.8581" lon="5.90213">
        <ele>631.6</ele>
        <time>2021-07-05T11:58:00Z</time>
      </trkpt>
      <trkpt lat="46.85807" lon="5.90218">
        <ele>631.8</ele>
        <time>2021-07-05T11:58:04Z</time>
      </trkpt>
      <trkpt lat="46.85802" lon="5.90222">
        <ele>631.7</ele>
        <time>2021-07-05T11:58:12Z</time>
      </trkpt>
      <trkpt lat="46.85797" lon="5.90226">
        <ele>631.1</ele>
        <time>2021-07-05T11:58:17Z</time>
      </trkpt>
      <trkpt lat="46.8579" lon="5.9023">
        <ele>630.7</ele>
        <time>2021-07-05T11:58:21Z</time>
      </trkpt>
      <trkpt lat="46.85786" lon="5.90231">
        <ele>630.6</ele>
        <time>2021-07-05T11:58:37Z</time>
      </trkpt>
      <trkpt lat="46.85783" lon="5.90236">
        <ele>630.7</ele>
        <time>2021-07-05T11:58:41Z</time>
      </trkpt>
      <trkpt lat="46.85781" lon="5.90242">
        <ele>630.6</ele>
        <time>2021-07-05T11:58:46Z</time>
      </trkpt>
      <trkpt lat="46.85777" lon="5.90248">
        <ele>630.2</ele>
        <time>2021-07-05T11:58:51Z</time>
      </trkpt>
      <trkpt lat="46.85774" lon="5.90253">
        <ele>629.3</ele>
        <time>2021-07-05T11:58:57Z</time>
      </trkpt>
      <trkpt lat="46.8577" lon="5.90256">
        <ele>628</ele>
        <time>2021-07-05T11:59:06Z</time>
      </trkpt>
      <trkpt lat="46.85766" lon="5.90262">
        <ele>627.5</ele>
        <time>2021-07-05T11:59:11Z</time>
      </trkpt>
      <trkpt lat="46.85766" lon="5.90271">
        <ele>627</ele>
        <time>2021-07-05T11:59:15Z</time>
      </trkpt>
      <trkpt lat="46.85764" lon="5.9028">
        <ele>626.8</ele>
        <time>2021-07-05T11:59:19Z</time>
      </trkpt>
      <trkpt lat="46.85763" lon="5.90287">
        <ele>626.5</ele>
        <time>2021-07-05T11:59:23Z</time>
      </trkpt>
      <trkpt lat="46.85763" lon="5.90295">
        <ele>626.7</ele>
        <time>2021-07-05T11:59:28Z</time>
      </trkpt>
      <trkpt lat="46.85763" lon="5.90302">
        <ele>627.6</ele>
        <time>2021-07-05T11:59:34Z</time>
      </trkpt>
      <trkpt lat="46.8576" lon="5.90307">
        <ele>628.7</ele>
        <time>2021-07-05T11:59:38Z</time>
      </trkpt>
      <trkpt lat="46.85755" lon="5.90314">
        <ele>629.7</ele>
        <time>2021-07-05T11:59:42Z</time>
      </trkpt>
      <trkpt lat="46.85754" lon="5.90322">
        <ele>630.3</ele>
        <time>2021-07-05T11:59:46Z</time>
      </trkpt>
      <trkpt lat="46.85753" lon="5.90329">
        <ele>630.8</ele>
        <time>2021-07-05T11:59:50Z</time>
      </trkpt>
      <trkpt lat="46.85751" lon="5.90336">
        <ele>631.4</ele>
        <time>2021-07-05T11:59:54Z</time>
      </trkpt>
      <trkpt lat="46.85748" lon="5.90341">
        <ele>631.6</ele>
        <time>2021-07-05T11:59:59Z</time>
      </trkpt>
      <trkpt lat="46.85747" lon="5.90349">
        <ele>631.6</ele>
        <time>2021-07-05T12:00:05Z</time>
      </trkpt>
      <trkpt lat="46.85744" lon="5.90355">
        <ele>631.2</ele>
        <time>2021-07-05T12:00:11Z</time>
      </trkpt>
      <trkpt lat="46.8574" lon="5.90358">
        <ele>630.4</ele>
        <time>2021-07-05T12:00:16Z</time>
      </trkpt>
      <trkpt lat="46.85735" lon="5.90361">
        <ele>629.8</ele>
        <time>2021-07-05T12:00:20Z</time>
      </trkpt>
      <trkpt lat="46.85731" lon="5.90366">
        <ele>629.1</ele>
        <time>2021-07-05T12:00:28Z</time>
      </trkpt>
      <trkpt lat="46.85728" lon="5.90372">
        <ele>628.5</ele>
        <time>2021-07-05T12:00:35Z</time>
      </trkpt>
      <trkpt lat="46.85723" lon="5.90378">
        <ele>627.3</ele>
        <time>2021-07-05T12:00:39Z</time>
      </trkpt>
      <trkpt lat="46.85718" lon="5.90384">
        <ele>625.9</ele>
        <time>2021-07-05T12:00:43Z</time>
      </trkpt>
      <trkpt lat="46.85715" lon="5.90392">
        <ele>624.3</ele>
        <time>2021-07-05T12:00:47Z</time>
      </trkpt>
      <trkpt lat="46.85714" lon="5.90401">
        <ele>622.7</ele>
        <time>2021-07-05T12:00:51Z</time>
      </trkpt>
      <trkpt lat="46.85714" lon="5.90408">
        <ele>621.2</ele>
        <time>2021-07-05T12:00:55Z</time>
      </trkpt>
      <trkpt lat="46.85716" lon="5.90415">
        <ele>619.6</ele>
        <time>2021-07-05T12:01:00Z</time>
      </trkpt>
      <trkpt lat="46.85716" lon="5.90422">
        <ele>618.6</ele>
        <time>2021-07-05T12:01:04Z</time>
      </trkpt>
      <trkpt lat="46.85714" lon="5.90428">
        <ele>618.2</ele>
        <time>2021-07-05T12:01:08Z</time>
      </trkpt>
      <trkpt lat="46.85712" lon="5.90437">
        <ele>618.3</ele>
        <time>2021-07-05T12:01:12Z</time>
      </trkpt>
      <trkpt lat="46.85711" lon="5.90444">
        <ele>618.5</ele>
        <time>2021-07-05T12:01:16Z</time>
      </trkpt>
      <trkpt lat="46.85709" lon="5.90451">
        <ele>618.6</ele>
        <time>2021-07-05T12:01:23Z</time>
      </trkpt>
      <trkpt lat="46.85706" lon="5.90456">
        <ele>618.6</ele>
        <time>2021-07-05T12:01:28Z</time>
      </trkpt>
      <trkpt lat="46.85705" lon="5.90462">
        <ele>619.3</ele>
        <time>2021-07-05T12:01:37Z</time>
      </trkpt>
      <trkpt lat="46.85702" lon="5.90469">
        <ele>620.2</ele>
        <time>2021-07-05T12:01:41Z</time>
      </trkpt>
      <trkpt lat="46.857" lon="5.90475">
        <ele>620.8</ele>
        <time>2021-07-05T12:01:45Z</time>
      </trkpt>
      <trkpt lat="46.85696" lon="5.90478">
        <ele>621.3</ele>
        <time>2021-07-05T12:01:49Z</time>
      </trkpt>
      <trkpt lat="46.85691" lon="5.90482">
        <ele>621.4</ele>
        <time>2021-07-05T12:01:53Z</time>
      </trkpt>
      <trkpt lat="46.85686" lon="5.90488">
        <ele>621.8</ele>
        <time>2021-07-05T12:01:57Z</time>
      </trkpt>
      <trkpt lat="46.85681" lon="5.90494">
        <ele>622.3</ele>
        <time>2021-07-05T12:02:01Z</time>
      </trkpt>
      <trkpt lat="46.85677" lon="5.90499">
        <ele>622.8</ele>
        <time>2021-07-05T12:02:05Z</time>
      </trkpt>
      <trkpt lat="46.85673" lon="5.90505">
        <ele>623</ele>
        <time>2021-07-05T12:02:09Z</time>
      </trkpt>
      <trkpt lat="46.85668" lon="5.90507">
        <ele>623.4</ele>
        <time>2021-07-05T12:02:13Z</time>
      </trkpt>
      <trkpt lat="46.85664" lon="5.9051">
        <ele>623.6</ele>
        <time>2021-07-05T12:02:17Z</time>
      </trkpt>
      <trkpt lat="46.85661" lon="5.90515">
        <ele>623.4</ele>
        <time>2021-07-05T12:02:22Z</time>
      </trkpt>
      <trkpt lat="46.85658" lon="5.90521">
        <ele>623.5</ele>
        <time>2021-07-05T12:02:28Z</time>
      </trkpt>
      <trkpt lat="46.85655" lon="5.90527">
        <ele>623.5</ele>
        <time>2021-07-05T12:02:32Z</time>
      </trkpt>
      <trkpt lat="46.8565" lon="5.90529">
        <ele>623.2</ele>
        <time>2021-07-05T12:02:36Z</time>
      </trkpt>
      <trkpt lat="46.85646" lon="5.90534">
        <ele>623.1</ele>
        <time>2021-07-05T12:02:41Z</time>
      </trkpt>
      <trkpt lat="46.85646" lon="5.90541">
        <ele>622.1</ele>
        <time>2021-07-05T12:02:47Z</time>
      </trkpt>
      <trkpt lat="46.85642" lon="5.90545">
        <ele>620.8</ele>
        <time>2021-07-05T12:02:54Z</time>
      </trkpt>
      <trkpt lat="46.85637" lon="5.90545">
        <ele>619.8</ele>
        <time>2021-07-05T12:02:59Z</time>
      </trkpt>
      <trkpt lat="46.85632" lon="5.90548">
        <ele>619.3</ele>
        <time>2021-07-05T12:03:03Z</time>
      </trkpt>
      <trkpt lat="46.85626" lon="5.90551">
        <ele>618.8</ele>
        <time>2021-07-05T12:03:07Z</time>
      </trkpt>
      <trkpt lat="46.85622" lon="5.90555">
        <ele>617.8</ele>
        <time>2021-07-05T12:03:11Z</time>
      </trkpt>
      <trkpt lat="46.85618" lon="5.90559">
        <ele>615.2</ele>
        <time>2021-07-05T12:03:19Z</time>
      </trkpt>
      <trkpt lat="46.85613" lon="5.90564">
        <ele>614.4</ele>
        <time>2021-07-05T12:03:23Z</time>
      </trkpt>
      <trkpt lat="46.85607" lon="5.90568">
        <ele>613.7</ele>
        <time>2021-07-05T12:03:27Z</time>
      </trkpt>
      <trkpt lat="46.85603" lon="5.90574">
        <ele>612.9</ele>
        <time>2021-07-05T12:03:32Z</time>
      </trkpt>
      <trkpt lat="46.85598" lon="5.90577">
        <ele>612.5</ele>
        <time>2021-07-05T12:03:36Z</time>
      </trkpt>
      <trkpt lat="46.85593" lon="5.90581">
        <ele>611.8</ele>
        <time>2021-07-05T12:03:41Z</time>
      </trkpt>
      <trkpt lat="46.85589" lon="5.90584">
        <ele>611</ele>
        <time>2021-07-05T12:03:46Z</time>
      </trkpt>
      <trkpt lat="46.85585" lon="5.90589">
        <ele>610.5</ele>
        <time>2021-07-05T12:03:52Z</time>
      </trkpt>
      <trkpt lat="46.85581" lon="5.90593">
        <ele>610.2</ele>
        <time>2021-07-05T12:03:56Z</time>
      </trkpt>
      <trkpt lat="46.85576" lon="5.90596">
        <ele>610</ele>
        <time>2021-07-05T12:04:00Z</time>
      </trkpt>
      <trkpt lat="46.85572" lon="5.90598">
        <ele>610.2</ele>
        <time>2021-07-05T12:04:04Z</time>
      </trkpt>
      <trkpt lat="46.85568" lon="5.90601">
        <ele>610.5</ele>
        <time>2021-07-05T12:04:08Z</time>
      </trkpt>
      <trkpt lat="46.85564" lon="5.90605">
        <ele>611.1</ele>
        <time>2021-07-05T12:04:14Z</time>
      </trkpt>
      <trkpt lat="46.85559" lon="5.90607">
        <ele>610.8</ele>
        <time>2021-07-05T12:04:24Z</time>
      </trkpt>
      <trkpt lat="46.85555" lon="5.9061">
        <ele>610.3</ele>
        <time>2021-07-05T12:04:28Z</time>
      </trkpt>
      <trkpt lat="46.85551" lon="5.90616">
        <ele>609.7</ele>
        <time>2021-07-05T12:04:32Z</time>
      </trkpt>
      <trkpt lat="46.85551" lon="5.90623">
        <ele>608.9</ele>
        <time>2021-07-05T12:04:37Z</time>
      </trkpt>
      <trkpt lat="46.85546" lon="5.9063">
        <ele>608.2</ele>
        <time>2021-07-05T12:04:41Z</time>
      </trkpt>
      <trkpt lat="46.85543" lon="5.90635">
        <ele>607.8</ele>
        <time>2021-07-05T12:04:45Z</time>
      </trkpt>
      <trkpt lat="46.85538" lon="5.9064">
        <ele>607.6</ele>
        <time>2021-07-05T12:04:50Z</time>
      </trkpt>
      <trkpt lat="46.85533" lon="5.90643">
        <ele>607.5</ele>
        <time>2021-07-05T12:04:54Z</time>
      </trkpt>
      <trkpt lat="46.85531" lon="5.90649">
        <ele>607.1</ele>
        <time>2021-07-05T12:04:59Z</time>
      </trkpt>
      <trkpt lat="46.85528" lon="5.90655">
        <ele>606.8</ele>
        <time>2021-07-05T12:05:06Z</time>
      </trkpt>
      <trkpt lat="46.85524" lon="5.90658">
        <ele>606.6</ele>
        <time>2021-07-05T12:05:10Z</time>
      </trkpt>
      <trkpt lat="46.85519" lon="5.9066">
        <ele>606.4</ele>
        <time>2021-07-05T12:05:14Z</time>
      </trkpt>
      <trkpt lat="46.85514" lon="5.90662">
        <ele>605.9</ele>
        <time>2021-07-05T12:05:18Z</time>
      </trkpt>
      <trkpt lat="46.85507" lon="5.90668">
        <ele>605.7</ele>
        <time>2021-07-05T12:05:22Z</time>
      </trkpt>
      <trkpt lat="46.85502" lon="5.90671">
        <ele>605.2</ele>
        <time>2021-07-05T12:05:26Z</time>
      </trkpt>
      <trkpt lat="46.85497" lon="5.90672">
        <ele>604.8</ele>
        <time>2021-07-05T12:05:30Z</time>
      </trkpt>
      <trkpt lat="46.85493" lon="5.90674">
        <ele>604.9</ele>
        <time>2021-07-05T12:05:34Z</time>
      </trkpt>
      <trkpt lat="46.85489" lon="5.9068">
        <ele>605.5</ele>
        <time>2021-07-05T12:05:38Z</time>
      </trkpt>
      <trkpt lat="46.85486" lon="5.90686">
        <ele>606.4</ele>
        <time>2021-07-05T12:05:44Z</time>
      </trkpt>
      <trkpt lat="46.85482" lon="5.90692">
        <ele>607.8</ele>
        <time>2021-07-05T12:05:50Z</time>
      </trkpt>
      <trkpt lat="46.85478" lon="5.90698">
        <ele>608.5</ele>
        <time>2021-07-05T12:05:54Z</time>
      </trkpt>
      <trkpt lat="46.85476" lon="5.90704">
        <ele>608.8</ele>
        <time>2021-07-05T12:05:58Z</time>
      </trkpt>
      <trkpt lat="46.85472" lon="5.90708">
        <ele>608.7</ele>
        <time>2021-07-05T12:06:05Z</time>
      </trkpt>
      <trkpt lat="46.85467" lon="5.90711">
        <ele>608.3</ele>
        <time>2021-07-05T12:06:10Z</time>
      </trkpt>
      <trkpt lat="46.85463" lon="5.90714">
        <ele>607.7</ele>
        <time>2021-07-05T12:06:15Z</time>
      </trkpt>
      <trkpt lat="46.85457" lon="5.90713">
        <ele>607.1</ele>
        <time>2021-07-05T12:06:20Z</time>
      </trkpt>
      <trkpt lat="46.85452" lon="5.90717">
        <ele>606.9</ele>
        <time>2021-07-05T12:06:24Z</time>
      </trkpt>
      <trkpt lat="46.8545" lon="5.90723">
        <ele>606.8</ele>
        <time>2021-07-05T12:06:30Z</time>
      </trkpt>
      <trkpt lat="46.85448" lon="5.90729">
        <ele>606.5</ele>
        <time>2021-07-05T12:06:34Z</time>
      </trkpt>
      <trkpt lat="46.85442" lon="5.90733">
        <ele>606.2</ele>
        <time>2021-07-05T12:06:38Z</time>
      </trkpt>
      <trkpt lat="46.85437" lon="5.90737">
        <ele>605.8</ele>
        <time>2021-07-05T12:06:42Z</time>
      </trkpt>
      <trkpt lat="46.85432" lon="5.90741">
        <ele>605.5</ele>
        <time>2021-07-05T12:06:46Z</time>
      </trkpt>
      <trkpt lat="46.85427" lon="5.90744">
        <ele>605.1</ele>
        <time>2021-07-05T12:06:50Z</time>
      </trkpt>
      <trkpt lat="46.85423" lon="5.90748">
        <ele>604.6</ele>
        <time>2021-07-05T12:06:55Z</time>
      </trkpt>
      <trkpt lat="46.85419" lon="5.90752">
        <ele>603.7</ele>
        <time>2021-07-05T12:07:02Z</time>
      </trkpt>
      <trkpt lat="46.85415" lon="5.90756">
        <ele>603</ele>
        <time>2021-07-05T12:07:08Z</time>
      </trkpt>
      <trkpt lat="46.8541" lon="5.9076">
        <ele>602.3</ele>
        <time>2021-07-05T12:07:12Z</time>
      </trkpt>
      <trkpt lat="46.85406" lon="5.90765">
        <ele>601.2</ele>
        <time>2021-07-05T12:07:17Z</time>
      </trkpt>
      <trkpt lat="46.85402" lon="5.9077">
        <ele>599.7</ele>
        <time>2021-07-05T12:07:22Z</time>
      </trkpt>
      <trkpt lat="46.85398" lon="5.90774">
        <ele>599</ele>
        <time>2021-07-05T12:07:29Z</time>
      </trkpt>
      <trkpt lat="46.85393" lon="5.90777">
        <ele>599.5</ele>
        <time>2021-07-05T12:07:34Z</time>
      </trkpt>
      <trkpt lat="46.85389" lon="5.90782">
        <ele>599.7</ele>
        <time>2021-07-05T12:07:38Z</time>
      </trkpt>
      <trkpt lat="46.85386" lon="5.90785">
        <ele>599.9</ele>
        <time>2021-07-05T12:07:42Z</time>
      </trkpt>
      <trkpt lat="46.85381" lon="5.90788">
        <ele>600.5</ele>
        <time>2021-07-05T12:07:46Z</time>
      </trkpt>
      <trkpt lat="46.85376" lon="5.90791">
        <ele>601.5</ele>
        <time>2021-07-05T12:07:50Z</time>
      </trkpt>
      <trkpt lat="46.85372" lon="5.90794">
        <ele>602.7</ele>
        <time>2021-07-05T12:07:54Z</time>
      </trkpt>
      <trkpt lat="46.85368" lon="5.90797">
        <ele>604.2</ele>
        <time>2021-07-05T12:07:58Z</time>
      </trkpt>
      <trkpt lat="46.85364" lon="5.90802">
        <ele>605.7</ele>
        <time>2021-07-05T12:08:02Z</time>
      </trkpt>
      <trkpt lat="46.8536" lon="5.90807">
        <ele>607.2</ele>
        <time>2021-07-05T12:08:07Z</time>
      </trkpt>
      <trkpt lat="46.85357" lon="5.90813">
        <ele>608.3</ele>
        <time>2021-07-05T12:08:12Z</time>
      </trkpt>
      <trkpt lat="46.85353" lon="5.90817">
        <ele>609</ele>
        <time>2021-07-05T12:08:16Z</time>
      </trkpt>
      <trkpt lat="46.85349" lon="5.90821">
        <ele>609.2</ele>
        <time>2021-07-05T12:08:22Z</time>
      </trkpt>
      <trkpt lat="46.85346" lon="5.90826">
        <ele>608.6</ele>
        <time>2021-07-05T12:08:28Z</time>
      </trkpt>
      <trkpt lat="46.85343" lon="5.90832">
        <ele>608.3</ele>
        <time>2021-07-05T12:08:32Z</time>
      </trkpt>
      <trkpt lat="46.85339" lon="5.90836">
        <ele>608.2</ele>
        <time>2021-07-05T12:08:36Z</time>
      </trkpt>
      <trkpt lat="46.85336" lon="5.90841">
        <ele>608.4</ele>
        <time>2021-07-05T12:08:40Z</time>
      </trkpt>
      <trkpt lat="46.85332" lon="5.90846">
        <ele>608.5</ele>
        <time>2021-07-05T12:08:44Z</time>
      </trkpt>
      <trkpt lat="46.85328" lon="5.9085">
        <ele>608.6</ele>
        <time>2021-07-05T12:08:50Z</time>
      </trkpt>
      <trkpt lat="46.85323" lon="5.90853">
        <ele>608.4</ele>
        <time>2021-07-05T12:08:58Z</time>
      </trkpt>
      <trkpt lat="46.85317" lon="5.90858">
        <ele>608.2</ele>
        <time>2021-07-05T12:09:02Z</time>
      </trkpt>
      <trkpt lat="46.85313" lon="5.90862">
        <ele>607.9</ele>
        <time>2021-07-05T12:09:06Z</time>
      </trkpt>
      <trkpt lat="46.85308" lon="5.90868">
        <ele>607.6</ele>
        <time>2021-07-05T12:09:10Z</time>
      </trkpt>
      <trkpt lat="46.85304" lon="5.90873">
        <ele>607.3</ele>
        <time>2021-07-05T12:09:15Z</time>
      </trkpt>
      <trkpt lat="46.853" lon="5.90874">
        <ele>606.9</ele>
        <time>2021-07-05T12:09:20Z</time>
      </trkpt>
      <trkpt lat="46.85295" lon="5.90876">
        <ele>606.7</ele>
        <time>2021-07-05T12:09:25Z</time>
      </trkpt>
      <trkpt lat="46.85291" lon="5.90881">
        <ele>607.2</ele>
        <time>2021-07-05T12:09:29Z</time>
      </trkpt>
      <trkpt lat="46.85287" lon="5.90887">
        <ele>607.7</ele>
        <time>2021-07-05T12:09:33Z</time>
      </trkpt>
      <trkpt lat="46.85284" lon="5.90895">
        <ele>608.3</ele>
        <time>2021-07-05T12:09:37Z</time>
      </trkpt>
      <trkpt lat="46.85281" lon="5.90904">
        <ele>609.1</ele>
        <time>2021-07-05T12:09:41Z</time>
      </trkpt>
      <trkpt lat="46.85278" lon="5.90912">
        <ele>610</ele>
        <time>2021-07-05T12:09:45Z</time>
      </trkpt>
      <trkpt lat="46.85275" lon="5.90917">
        <ele>610.6</ele>
        <time>2021-07-05T12:09:49Z</time>
      </trkpt>
      <trkpt lat="46.85273" lon="5.90924">
        <ele>612.1</ele>
        <time>2021-07-05T12:09:54Z</time>
      </trkpt>
      <trkpt lat="46.85268" lon="5.90924">
        <ele>612.1</ele>
        <time>2021-07-05T12:09:59Z</time>
      </trkpt>
      <trkpt lat="46.85262" lon="5.90922">
        <ele>611.8</ele>
        <time>2021-07-05T12:10:03Z</time>
      </trkpt>
      <trkpt lat="46.85257" lon="5.90923">
        <ele>612.2</ele>
        <time>2021-07-05T12:10:07Z</time>
      </trkpt>
      <trkpt lat="46.85253" lon="5.90927">
        <ele>612.9</ele>
        <time>2021-07-05T12:10:11Z</time>
      </trkpt>
      <trkpt lat="46.85248" lon="5.9093">
        <ele>614.3</ele>
        <time>2021-07-05T12:10:16Z</time>
      </trkpt>
      <trkpt lat="46.85243" lon="5.90937">
        <ele>615.5</ele>
        <time>2021-07-05T12:10:20Z</time>
      </trkpt>
      <trkpt lat="46.85239" lon="5.90943">
        <ele>616.3</ele>
        <time>2021-07-05T12:10:24Z</time>
      </trkpt>
      <trkpt lat="46.85235" lon="5.90946">
        <ele>616.7</ele>
        <time>2021-07-05T12:10:28Z</time>
      </trkpt>
      <trkpt lat="46.85231" lon="5.90948">
        <ele>616.8</ele>
        <time>2021-07-05T12:10:32Z</time>
      </trkpt>
      <trkpt lat="46.85225" lon="5.90948">
        <ele>615.8</ele>
        <time>2021-07-05T12:10:39Z</time>
      </trkpt>
      <trkpt lat="46.8522" lon="5.9095">
        <ele>613.5</ele>
        <time>2021-07-05T12:10:47Z</time>
      </trkpt>
      <trkpt lat="46.85216" lon="5.90954">
        <ele>613.3</ele>
        <time>2021-07-05T12:10:52Z</time>
      </trkpt>
      <trkpt lat="46.85211" lon="5.90951">
        <ele>613.1</ele>
        <time>2021-07-05T12:10:57Z</time>
      </trkpt>
      <trkpt lat="46.85207" lon="5.90946">
        <ele>612.6</ele>
        <time>2021-07-05T12:11:04Z</time>
      </trkpt>
      <trkpt lat="46.85207" lon="5.9094">
        <ele>612</ele>
        <time>2021-07-05T12:11:12Z</time>
      </trkpt>
      <trkpt lat="46.85205" lon="5.90934">
        <ele>611.4</ele>
        <time>2021-07-05T12:11:16Z</time>
      </trkpt>
      <trkpt lat="46.85202" lon="5.90929">
        <ele>610</ele>
        <time>2021-07-05T12:11:21Z</time>
      </trkpt>
      <trkpt lat="46.85198" lon="5.90925">
        <ele>607.7</ele>
        <time>2021-07-05T12:11:28Z</time>
      </trkpt>
      <trkpt lat="46.85194" lon="5.90922">
        <ele>605.8</ele>
        <time>2021-07-05T12:11:33Z</time>
      </trkpt>
      <trkpt lat="46.85188" lon="5.90918">
        <ele>604.3</ele>
        <time>2021-07-05T12:11:37Z</time>
      </trkpt>
      <trkpt lat="46.85186" lon="5.90911">
        <ele>602</ele>
        <time>2021-07-05T12:11:49Z</time>
      </trkpt>
      <trkpt lat="46.85187" lon="5.90904">
        <ele>600.7</ele>
        <time>2021-07-05T12:11:57Z</time>
      </trkpt>
      <trkpt lat="46.85183" lon="5.90899">
        <ele>600.2</ele>
        <time>2021-07-05T12:12:02Z</time>
      </trkpt>
      <trkpt lat="46.85181" lon="5.90894">
        <ele>599.7</ele>
        <time>2021-07-05T12:12:07Z</time>
      </trkpt>
      <trkpt lat="46.85176" lon="5.90888">
        <ele>599.7</ele>
        <time>2021-07-05T12:12:11Z</time>
      </trkpt>
      <trkpt lat="46.85172" lon="5.90882">
        <ele>599.9</ele>
        <time>2021-07-05T12:12:15Z</time>
      </trkpt>
      <trkpt lat="46.85171" lon="5.90876">
        <ele>601.3</ele>
        <time>2021-07-05T12:12:27Z</time>
      </trkpt>
      <trkpt lat="46.85167" lon="5.90872">
        <ele>603.2</ele>
        <time>2021-07-05T12:12:32Z</time>
      </trkpt>
      <trkpt lat="46.85164" lon="5.90866">
        <ele>604.9</ele>
        <time>2021-07-05T12:12:37Z</time>
      </trkpt>
      <trkpt lat="46.85166" lon="5.9086">
        <ele>604.5</ele>
        <time>2021-07-05T12:12:48Z</time>
      </trkpt>
      <trkpt lat="46.85169" lon="5.90853">
        <ele>607.2</ele>
        <time>2021-07-05T12:13:17Z</time>
      </trkpt>
      <trkpt lat="46.85173" lon="5.90849">
        <ele>608</ele>
        <time>2021-07-05T12:13:22Z</time>
      </trkpt>
      <trkpt lat="46.85173" lon="5.90842">
        <ele>609.3</ele>
        <time>2021-07-05T12:13:29Z</time>
      </trkpt>
      <trkpt lat="46.85173" lon="5.90835">
        <ele>611.5</ele>
        <time>2021-07-05T12:13:34Z</time>
      </trkpt>
      <trkpt lat="46.85174" lon="5.90829">
        <ele>613.7</ele>
        <time>2021-07-05T12:13:39Z</time>
      </trkpt>
      <trkpt lat="46.85177" lon="5.90823">
        <ele>616.9</ele>
        <time>2021-07-05T12:13:44Z</time>
      </trkpt>
      <trkpt lat="46.8518" lon="5.90817">
        <ele>619.8</ele>
        <time>2021-07-05T12:13:48Z</time>
      </trkpt>
      <trkpt lat="46.85184" lon="5.90814">
        <ele>626.4</ele>
        <time>2021-07-05T12:14:05Z</time>
      </trkpt>
      <trkpt lat="46.85186" lon="5.9082">
        <ele>632.5</ele>
        <time>2021-07-05T12:14:47Z</time>
      </trkpt>
      <trkpt lat="46.85183" lon="5.90815">
        <ele>631.7</ele>
        <time>2021-07-05T12:15:39Z</time>
      </trkpt>
      <trkpt lat="46.85184" lon="5.90808">
        <ele>630.5</ele>
        <time>2021-07-05T12:15:44Z</time>
      </trkpt>
      <trkpt lat="46.85181" lon="5.90802">
        <ele>629.4</ele>
        <time>2021-07-05T12:16:00Z</time>
      </trkpt>
      <trkpt lat="46.85176" lon="5.90795">
        <ele>629.4</ele>
        <time>2021-07-05T12:16:04Z</time>
      </trkpt>
      <trkpt lat="46.85179" lon="5.90789">
        <ele>629.3</ele>
        <time>2021-07-05T12:16:12Z</time>
      </trkpt>
      <trkpt lat="46.85184" lon="5.90792">
        <ele>629.5</ele>
        <time>2021-07-05T12:16:34Z</time>
      </trkpt>
      <trkpt lat="46.85191" lon="5.90796">
        <ele>629</ele>
        <time>2021-07-05T12:16:38Z</time>
      </trkpt>
      <trkpt lat="46.85188" lon="5.90789">
        <ele>628.1</ele>
        <time>2021-07-05T12:16:48Z</time>
      </trkpt>
      <trkpt lat="46.85187" lon="5.90781">
        <ele>626.4</ele>
        <time>2021-07-05T12:17:25Z</time>
      </trkpt>
      <trkpt lat="46.85191" lon="5.90772">
        <ele>625.9</ele>
        <time>2021-07-05T12:17:29Z</time>
      </trkpt>
      <trkpt lat="46.85193" lon="5.90766">
        <ele>624.5</ele>
        <time>2021-07-05T12:17:43Z</time>
      </trkpt>
      <trkpt lat="46.85193" lon="5.90758">
        <ele>623.7</ele>
        <time>2021-07-05T12:17:49Z</time>
      </trkpt>
      <trkpt lat="46.85191" lon="5.90752">
        <ele>623.1</ele>
        <time>2021-07-05T12:18:00Z</time>
      </trkpt>
      <trkpt lat="46.85186" lon="5.90747">
        <ele>623.1</ele>
        <time>2021-07-05T12:18:04Z</time>
      </trkpt>
      <trkpt lat="46.85181" lon="5.90742">
        <ele>623</ele>
        <time>2021-07-05T12:18:18Z</time>
      </trkpt>
      <trkpt lat="46.85175" lon="5.90738">
        <ele>622.4</ele>
        <time>2021-07-05T12:18:22Z</time>
      </trkpt>
      <trkpt lat="46.8517" lon="5.90733">
        <ele>621.6</ele>
        <time>2021-07-05T12:18:33Z</time>
      </trkpt>
      <trkpt lat="46.85164" lon="5.90726">
        <ele>621.4</ele>
        <time>2021-07-05T12:18:37Z</time>
      </trkpt>
      <trkpt lat="46.85163" lon="5.90719">
        <ele>621.5</ele>
        <time>2021-07-05T12:18:48Z</time>
      </trkpt>
      <trkpt lat="46.85164" lon="5.90709">
        <ele>621.6</ele>
        <time>2021-07-05T12:18:52Z</time>
      </trkpt>
      <trkpt lat="46.85159" lon="5.90705">
        <ele>622.1</ele>
        <time>2021-07-05T12:19:06Z</time>
      </trkpt>
      <trkpt lat="46.85154" lon="5.90703">
        <ele>621.4</ele>
        <time>2021-07-05T12:19:18Z</time>
      </trkpt>
      <trkpt lat="46.85154" lon="5.90696">
        <ele>621</ele>
        <time>2021-07-05T12:19:23Z</time>
      </trkpt>
      <trkpt lat="46.85155" lon="5.90688">
        <ele>620.7</ele>
        <time>2021-07-05T12:19:35Z</time>
      </trkpt>
      <trkpt lat="46.85158" lon="5.90682">
        <ele>620.6</ele>
        <time>2021-07-05T12:19:55Z</time>
      </trkpt>
      <trkpt lat="46.8516" lon="5.90676">
        <ele>620.9</ele>
        <time>2021-07-05T12:20:04Z</time>
      </trkpt>
      <trkpt lat="46.85154" lon="5.90665">
        <ele>621.2</ele>
        <time>2021-07-05T12:20:08Z</time>
      </trkpt>
      <trkpt lat="46.8515" lon="5.90657">
        <ele>621.7</ele>
        <time>2021-07-05T12:20:16Z</time>
      </trkpt>
      <trkpt lat="46.85144" lon="5.90648">
        <ele>621.9</ele>
        <time>2021-07-05T12:20:20Z</time>
      </trkpt>
      <trkpt lat="46.85138" lon="5.90645">
        <ele>622.6</ele>
        <time>2021-07-05T12:20:34Z</time>
      </trkpt>
      <trkpt lat="46.85133" lon="5.90644">
        <ele>622.8</ele>
        <time>2021-07-05T12:20:38Z</time>
      </trkpt>
      <trkpt lat="46.85136" lon="5.90651">
        <ele>623.7</ele>
        <time>2021-07-05T12:20:54Z</time>
      </trkpt>
      <trkpt lat="46.85143" lon="5.90651">
        <ele>627.5</ele>
        <time>2021-07-05T12:21:44Z</time>
      </trkpt>
      <trkpt lat="46.85148" lon="5.90646">
        <ele>629.8</ele>
        <time>2021-07-05T12:21:48Z</time>
      </trkpt>
      <trkpt lat="46.85152" lon="5.9064">
        <ele>631.4</ele>
        <time>2021-07-05T12:21:54Z</time>
      </trkpt>
      <trkpt lat="46.85155" lon="5.90633">
        <ele>632.1</ele>
        <time>2021-07-05T12:22:09Z</time>
      </trkpt>
      <trkpt lat="46.85163" lon="5.90628">
        <ele>632.1</ele>
        <time>2021-07-05T12:22:25Z</time>
      </trkpt>
      <trkpt lat="46.85168" lon="5.90624">
        <ele>632.3</ele>
        <time>2021-07-05T12:22:29Z</time>
      </trkpt>
      <trkpt lat="46.85174" lon="5.9062">
        <ele>632.6</ele>
        <time>2021-07-05T12:22:36Z</time>
      </trkpt>
      <trkpt lat="46.85181" lon="5.90613">
        <ele>632.4</ele>
        <time>2021-07-05T12:22:40Z</time>
      </trkpt>
      <trkpt lat="46.85186" lon="5.90606">
        <ele>631.9</ele>
        <time>2021-07-05T12:22:44Z</time>
      </trkpt>
      <trkpt lat="46.85191" lon="5.906">
        <ele>629.7</ele>
        <time>2021-07-05T12:22:56Z</time>
      </trkpt>
      <trkpt lat="46.85197" lon="5.90598">
        <ele>628.6</ele>
        <time>2021-07-05T12:23:00Z</time>
      </trkpt>
      <trkpt lat="46.85213" lon="5.90595">
        <ele>626.2</ele>
        <time>2021-07-05T12:23:04Z</time>
      </trkpt>
      <trkpt lat="46.85221" lon="5.90592">
        <ele>624.2</ele>
        <time>2021-07-05T12:23:08Z</time>
      </trkpt>
      <trkpt lat="46.85224" lon="5.90584">
        <ele>621.5</ele>
        <time>2021-07-05T12:23:41Z</time>
      </trkpt>
      <trkpt lat="46.85226" lon="5.90574">
        <ele>621.5</ele>
        <time>2021-07-05T12:23:45Z</time>
      </trkpt>
      <trkpt lat="46.8523" lon="5.90566">
        <ele>620.8</ele>
        <time>2021-07-05T12:24:06Z</time>
      </trkpt>
      <trkpt lat="46.85235" lon="5.90557">
        <ele>619.2</ele>
        <time>2021-07-05T12:24:22Z</time>
      </trkpt>
      <trkpt lat="46.85237" lon="5.90551">
        <ele>619</ele>
        <time>2021-07-05T12:24:27Z</time>
      </trkpt>
      <trkpt lat="46.85242" lon="5.90552">
        <ele>618.8</ele>
        <time>2021-07-05T12:24:37Z</time>
      </trkpt>
      <trkpt lat="46.85256" lon="5.90554">
        <ele>618.7</ele>
        <time>2021-07-05T12:24:41Z</time>
      </trkpt>
      <trkpt lat="46.85267" lon="5.90543">
        <ele>618.8</ele>
        <time>2021-07-05T12:25:14Z</time>
      </trkpt>
      <trkpt lat="46.85272" lon="5.90535">
        <ele>619</ele>
        <time>2021-07-05T12:25:21Z</time>
      </trkpt>
      <trkpt lat="46.85281" lon="5.90532">
        <ele>618.9</ele>
        <time>2021-07-05T12:25:25Z</time>
      </trkpt>
      <trkpt lat="46.85286" lon="5.90529">
        <ele>618.7</ele>
        <time>2021-07-05T12:25:29Z</time>
      </trkpt>
      <trkpt lat="46.85291" lon="5.90528">
        <ele>618.8</ele>
        <time>2021-07-05T12:25:35Z</time>
      </trkpt>
      <trkpt lat="46.85296" lon="5.90523">
        <ele>619.1</ele>
        <time>2021-07-05T12:25:54Z</time>
      </trkpt>
      <trkpt lat="46.85296" lon="5.90515">
        <ele>619.1</ele>
        <time>2021-07-05T12:25:58Z</time>
      </trkpt>
      <trkpt lat="46.85296" lon="5.90509">
        <ele>619.3</ele>
        <time>2021-07-05T12:26:04Z</time>
      </trkpt>
      <trkpt lat="46.85292" lon="5.90502">
        <ele>619.6</ele>
        <time>2021-07-05T12:26:14Z</time>
      </trkpt>
      <trkpt lat="46.85287" lon="5.90496">
        <ele>619.8</ele>
        <time>2021-07-05T12:26:18Z</time>
      </trkpt>
      <trkpt lat="46.8529" lon="5.9049">
        <ele>620.1</ele>
        <time>2021-07-05T12:26:39Z</time>
      </trkpt>
      <trkpt lat="46.85297" lon="5.90485">
        <ele>620.3</ele>
        <time>2021-07-05T12:26:43Z</time>
      </trkpt>
      <trkpt lat="46.85305" lon="5.9048">
        <ele>620.2</ele>
        <time>2021-07-05T12:26:47Z</time>
      </trkpt>
      <trkpt lat="46.85312" lon="5.90476">
        <ele>620.2</ele>
        <time>2021-07-05T12:26:51Z</time>
      </trkpt>
      <trkpt lat="46.85319" lon="5.90474">
        <ele>620.4</ele>
        <time>2021-07-05T12:26:55Z</time>
      </trkpt>
      <trkpt lat="46.85324" lon="5.90469">
        <ele>620.9</ele>
        <time>2021-07-05T12:27:06Z</time>
      </trkpt>
      <trkpt lat="46.85332" lon="5.90462">
        <ele>621.3</ele>
        <time>2021-07-05T12:27:20Z</time>
      </trkpt>
      <trkpt lat="46.85337" lon="5.90458">
        <ele>621.8</ele>
        <time>2021-07-05T12:27:24Z</time>
      </trkpt>
      <trkpt lat="46.85342" lon="5.90456">
        <ele>622.5</ele>
        <time>2021-07-05T12:27:41Z</time>
      </trkpt>
      <trkpt lat="46.85347" lon="5.90456">
        <ele>622.3</ele>
        <time>2021-07-05T12:27:45Z</time>
      </trkpt>
      <trkpt lat="46.85352" lon="5.90452">
        <ele>621.7</ele>
        <time>2021-07-05T12:27:54Z</time>
      </trkpt>
      <trkpt lat="46.85356" lon="5.90445">
        <ele>620.8</ele>
        <time>2021-07-05T12:27:58Z</time>
      </trkpt>
      <trkpt lat="46.85357" lon="5.90437">
        <ele>620.2</ele>
        <time>2021-07-05T12:28:03Z</time>
      </trkpt>
      <trkpt lat="46.8536" lon="5.90429">
        <ele>619.9</ele>
        <time>2021-07-05T12:28:07Z</time>
      </trkpt>
      <trkpt lat="46.85358" lon="5.90421">
        <ele>619.7</ele>
        <time>2021-07-05T12:28:24Z</time>
      </trkpt>
      <trkpt lat="46.85356" lon="5.90414">
        <ele>620.2</ele>
        <time>2021-07-05T12:28:28Z</time>
      </trkpt>
      <trkpt lat="46.85359" lon="5.90409">
        <ele>620.7</ele>
        <time>2021-07-05T12:28:33Z</time>
      </trkpt>
      <trkpt lat="46.85363" lon="5.90402">
        <ele>621.4</ele>
        <time>2021-07-05T12:28:46Z</time>
      </trkpt>
      <trkpt lat="46.85368" lon="5.90396">
        <ele>621.9</ele>
        <time>2021-07-05T12:28:50Z</time>
      </trkpt>
      <trkpt lat="46.85375" lon="5.90391">
        <ele>622.1</ele>
        <time>2021-07-05T12:28:54Z</time>
      </trkpt>
      <trkpt lat="46.85379" lon="5.90389">
        <ele>622.5</ele>
        <time>2021-07-05T12:29:06Z</time>
      </trkpt>
      <trkpt lat="46.85374" lon="5.90388">
        <ele>622.1</ele>
        <time>2021-07-05T12:29:13Z</time>
      </trkpt>
      <trkpt lat="46.8538" lon="5.90387">
        <ele>621.6</ele>
        <time>2021-07-05T12:30:17Z</time>
      </trkpt>
      <trkpt lat="46.85384" lon="5.90383">
        <ele>621.4</ele>
        <time>2021-07-05T12:30:21Z</time>
      </trkpt>
      <trkpt lat="46.85389" lon="5.90379">
        <ele>620.8</ele>
        <time>2021-07-05T12:30:59Z</time>
      </trkpt>
      <trkpt lat="46.85394" lon="5.90378">
        <ele>620.6</ele>
        <time>2021-07-05T12:31:03Z</time>
      </trkpt>
      <trkpt lat="46.85379" lon="5.90376">
        <ele>617.5</ele>
        <time>2021-07-05T12:31:48Z</time>
      </trkpt>
      <trkpt lat="46.85373" lon="5.90375">
        <ele>617.1</ele>
        <time>2021-07-05T12:31:52Z</time>
      </trkpt>
      <trkpt lat="46.85372" lon="5.90384">
        <ele>616.6</ele>
        <time>2021-07-05T12:32:02Z</time>
      </trkpt>
      <trkpt lat="46.85372" lon="5.90391">
        <ele>616.4</ele>
        <time>2021-07-05T12:32:06Z</time>
      </trkpt>
      <trkpt lat="46.85368" lon="5.90397">
        <ele>616.4</ele>
        <time>2021-07-05T12:32:11Z</time>
      </trkpt>
      <trkpt lat="46.85365" lon="5.90402">
        <ele>616.7</ele>
        <time>2021-07-05T12:32:17Z</time>
      </trkpt>
      <trkpt lat="46.85362" lon="5.90408">
        <ele>616</ele>
        <time>2021-07-05T12:32:33Z</time>
      </trkpt>
      <trkpt lat="46.85358" lon="5.90415">
        <ele>615</ele>
        <time>2021-07-05T12:32:37Z</time>
      </trkpt>
      <trkpt lat="46.85354" lon="5.90419">
        <ele>614.1</ele>
        <time>2021-07-05T12:32:41Z</time>
      </trkpt>
      <trkpt lat="46.85352" lon="5.90428">
        <ele>612.5</ele>
        <time>2021-07-05T12:32:55Z</time>
      </trkpt>
      <trkpt lat="46.85351" lon="5.90435">
        <ele>611.6</ele>
        <time>2021-07-05T12:32:59Z</time>
      </trkpt>
      <trkpt lat="46.8535" lon="5.90443">
        <ele>610.1</ele>
        <time>2021-07-05T12:33:13Z</time>
      </trkpt>
      <trkpt lat="46.8535" lon="5.90451">
        <ele>609.3</ele>
        <time>2021-07-05T12:33:17Z</time>
      </trkpt>
      <trkpt lat="46.85349" lon="5.9046">
        <ele>608.1</ele>
        <time>2021-07-05T12:33:32Z</time>
      </trkpt>
      <trkpt lat="46.85347" lon="5.90468">
        <ele>607.8</ele>
        <time>2021-07-05T12:33:36Z</time>
      </trkpt>
      <trkpt lat="46.85343" lon="5.90473">
        <ele>608.6</ele>
        <time>2021-07-05T12:33:57Z</time>
      </trkpt>
      <trkpt lat="46.85338" lon="5.90475">
        <ele>608.9</ele>
        <time>2021-07-05T12:34:01Z</time>
      </trkpt>
      <trkpt lat="46.8534" lon="5.90482">
        <ele>610</ele>
        <time>2021-07-05T12:34:15Z</time>
      </trkpt>
      <trkpt lat="46.85339" lon="5.90489">
        <ele>610.8</ele>
        <time>2021-07-05T12:34:19Z</time>
      </trkpt>
      <trkpt lat="46.85337" lon="5.90483">
        <ele>611.6</ele>
        <time>2021-07-05T12:34:36Z</time>
      </trkpt>
      <trkpt lat="46.85339" lon="5.90477">
        <ele>611.6</ele>
        <time>2021-07-05T12:34:44Z</time>
      </trkpt>
      <trkpt lat="46.85343" lon="5.90478">
        <ele>610.9</ele>
        <time>2021-07-05T12:34:52Z</time>
      </trkpt>
      <trkpt lat="46.85337" lon="5.90478">
        <ele>612.3</ele>
        <time>2021-07-05T12:35:02Z</time>
      </trkpt>
      <trkpt lat="46.85332" lon="5.90481">
        <ele>614</ele>
        <time>2021-07-05T12:35:06Z</time>
      </trkpt>
      <trkpt lat="46.85328" lon="5.90482">
        <ele>616.4</ele>
        <time>2021-07-05T12:35:16Z</time>
      </trkpt>
      <trkpt lat="46.85321" lon="5.90489">
        <ele>618.2</ele>
        <time>2021-07-05T12:35:59Z</time>
      </trkpt>
      <trkpt lat="46.85317" lon="5.90493">
        <ele>618.7</ele>
        <time>2021-07-05T12:36:04Z</time>
      </trkpt>
      <trkpt lat="46.85314" lon="5.90498">
        <ele>621.1</ele>
        <time>2021-07-05T12:36:45Z</time>
      </trkpt>
      <trkpt lat="46.85312" lon="5.90504">
        <ele>621.8</ele>
        <time>2021-07-05T12:36:51Z</time>
      </trkpt>
      <trkpt lat="46.85308" lon="5.90507">
        <ele>622</ele>
        <time>2021-07-05T12:37:01Z</time>
      </trkpt>
      <trkpt lat="46.85302" lon="5.90512">
        <ele>621.8</ele>
        <time>2021-07-05T12:37:05Z</time>
      </trkpt>
      <trkpt lat="46.85298" lon="5.90517">
        <ele>621.5</ele>
        <time>2021-07-05T12:37:16Z</time>
      </trkpt>
      <trkpt lat="46.85291" lon="5.9052">
        <ele>621.5</ele>
        <time>2021-07-05T12:37:20Z</time>
      </trkpt>
      <trkpt lat="46.85285" lon="5.90524">
        <ele>621.5</ele>
        <time>2021-07-05T12:37:26Z</time>
      </trkpt>
      <trkpt lat="46.8528" lon="5.90529">
        <ele>621.5</ele>
        <time>2021-07-05T12:37:30Z</time>
      </trkpt>
      <trkpt lat="46.85279" lon="5.90539">
        <ele>621.5</ele>
        <time>2021-07-05T12:37:43Z</time>
      </trkpt>
      <trkpt lat="46.85275" lon="5.90546">
        <ele>621.4</ele>
        <time>2021-07-05T12:37:47Z</time>
      </trkpt>
      <trkpt lat="46.85271" lon="5.90547">
        <ele>621.5</ele>
        <time>2021-07-05T12:37:52Z</time>
      </trkpt>
      <trkpt lat="46.8527" lon="5.90554">
        <ele>621.7</ele>
        <time>2021-07-05T12:37:59Z</time>
      </trkpt>
      <trkpt lat="46.85274" lon="5.90558">
        <ele>622</ele>
        <time>2021-07-05T12:38:06Z</time>
      </trkpt>
      <trkpt lat="46.85279" lon="5.90557">
        <ele>622.3</ele>
        <time>2021-07-05T12:38:11Z</time>
      </trkpt>
      <trkpt lat="46.85277" lon="5.90548">
        <ele>623.5</ele>
        <time>2021-07-05T12:38:19Z</time>
      </trkpt>
      <trkpt lat="46.85274" lon="5.90542">
        <ele>624.2</ele>
        <time>2021-07-05T12:38:23Z</time>
      </trkpt>
      <trkpt lat="46.8524" lon="5.90568">
        <ele>620.9</ele>
        <time>2021-07-05T12:38:53Z</time>
      </trkpt>
      <trkpt lat="46.85237" lon="5.90575">
        <ele>634.1</ele>
        <time>2021-07-05T12:39:02Z</time>
      </trkpt>
      <trkpt lat="46.85231" lon="5.90583">
        <ele>641.3</ele>
        <time>2021-07-05T12:39:06Z</time>
      </trkpt>
      <trkpt lat="46.85228" lon="5.9059">
        <ele>649.6</ele>
        <time>2021-07-05T12:39:25Z</time>
      </trkpt>
      <trkpt lat="46.85223" lon="5.90597">
        <ele>648.7</ele>
        <time>2021-07-05T12:39:29Z</time>
      </trkpt>
      <trkpt lat="46.85219" lon="5.906">
        <ele>647.5</ele>
        <time>2021-07-05T12:39:34Z</time>
      </trkpt>
      <trkpt lat="46.85213" lon="5.90602">
        <ele>647.3</ele>
        <time>2021-07-05T12:39:49Z</time>
      </trkpt>
      <trkpt lat="46.85209" lon="5.90605">
        <ele>647.7</ele>
        <time>2021-07-05T12:39:56Z</time>
      </trkpt>
      <trkpt lat="46.85204" lon="5.90601">
        <ele>647.8</ele>
        <time>2021-07-05T12:40:00Z</time>
      </trkpt>
      <trkpt lat="46.85199" lon="5.90599">
        <ele>647.7</ele>
        <time>2021-07-05T12:40:05Z</time>
      </trkpt>
      <trkpt lat="46.85195" lon="5.90603">
        <ele>644.9</ele>
        <time>2021-07-05T12:40:25Z</time>
      </trkpt>
      <trkpt lat="46.85191" lon="5.9061">
        <ele>642.4</ele>
        <time>2021-07-05T12:40:29Z</time>
      </trkpt>
      <trkpt lat="46.85187" lon="5.90616">
        <ele>640.3</ele>
        <time>2021-07-05T12:40:35Z</time>
      </trkpt>
      <trkpt lat="46.85183" lon="5.90621">
        <ele>639.5</ele>
        <time>2021-07-05T12:40:39Z</time>
      </trkpt>
      <trkpt lat="46.85177" lon="5.90624">
        <ele>638.5</ele>
        <time>2021-07-05T12:40:49Z</time>
      </trkpt>
      <trkpt lat="46.85168" lon="5.90627">
        <ele>638.6</ele>
        <time>2021-07-05T12:40:53Z</time>
      </trkpt>
      <trkpt lat="46.8516" lon="5.90631">
        <ele>638.7</ele>
        <time>2021-07-05T12:40:57Z</time>
      </trkpt>
      <trkpt lat="46.85154" lon="5.90638">
        <ele>638.9</ele>
        <time>2021-07-05T12:41:36Z</time>
      </trkpt>
      <trkpt lat="46.85153" lon="5.90646">
        <ele>638.9</ele>
        <time>2021-07-05T12:41:40Z</time>
      </trkpt>
      <trkpt lat="46.85157" lon="5.90657">
        <ele>638.4</ele>
        <time>2021-07-05T12:41:54Z</time>
      </trkpt>
      <trkpt lat="46.85162" lon="5.90665">
        <ele>638.1</ele>
        <time>2021-07-05T12:41:58Z</time>
      </trkpt>
      <trkpt lat="46.85166" lon="5.90671">
        <ele>637.8</ele>
        <time>2021-07-05T12:42:03Z</time>
      </trkpt>
      <trkpt lat="46.85172" lon="5.90679">
        <ele>636.7</ele>
        <time>2021-07-05T12:42:14Z</time>
      </trkpt>
      <trkpt lat="46.85178" lon="5.90686">
        <ele>635.8</ele>
        <time>2021-07-05T12:42:18Z</time>
      </trkpt>
      <trkpt lat="46.85181" lon="5.90691">
        <ele>635.2</ele>
        <time>2021-07-05T12:42:23Z</time>
      </trkpt>
      <trkpt lat="46.85184" lon="5.90697">
        <ele>634.9</ele>
        <time>2021-07-05T12:42:28Z</time>
      </trkpt>
      <trkpt lat="46.85188" lon="5.90705">
        <ele>634.2</ele>
        <time>2021-07-05T12:42:47Z</time>
      </trkpt>
      <trkpt lat="46.85191" lon="5.90717">
        <ele>633.7</ele>
        <time>2021-07-05T12:42:51Z</time>
      </trkpt>
      <trkpt lat="46.85192" lon="5.90729">
        <ele>633.2</ele>
        <time>2021-07-05T12:43:05Z</time>
      </trkpt>
      <trkpt lat="46.85198" lon="5.90739">
        <ele>633.3</ele>
        <time>2021-07-05T12:43:09Z</time>
      </trkpt>
      <trkpt lat="46.85202" lon="5.90746">
        <ele>633.1</ele>
        <time>2021-07-05T12:43:13Z</time>
      </trkpt>
      <trkpt lat="46.85206" lon="5.90749">
        <ele>632</ele>
        <time>2021-07-05T12:43:20Z</time>
      </trkpt>
      <trkpt lat="46.8521" lon="5.90754">
        <ele>631</ele>
        <time>2021-07-05T12:43:30Z</time>
      </trkpt>
      <trkpt lat="46.85213" lon="5.90761">
        <ele>630.7</ele>
        <time>2021-07-05T12:43:34Z</time>
      </trkpt>
      <trkpt lat="46.85217" lon="5.90768">
        <ele>630.4</ele>
        <time>2021-07-05T12:43:42Z</time>
      </trkpt>
      <trkpt lat="46.85222" lon="5.90775">
        <ele>630.6</ele>
        <time>2021-07-05T12:43:46Z</time>
      </trkpt>
      <trkpt lat="46.85222" lon="5.90785">
        <ele>630.2</ele>
        <time>2021-07-05T12:43:58Z</time>
      </trkpt>
      <trkpt lat="46.85221" lon="5.90792">
        <ele>630</ele>
        <time>2021-07-05T12:44:03Z</time>
      </trkpt>
      <trkpt lat="46.85223" lon="5.90798">
        <ele>629.3</ele>
        <time>2021-07-05T12:44:09Z</time>
      </trkpt>
      <trkpt lat="46.85225" lon="5.90805">
        <ele>628.3</ele>
        <time>2021-07-05T12:44:13Z</time>
      </trkpt>
      <trkpt lat="46.8523" lon="5.90812">
        <ele>626.4</ele>
        <time>2021-07-05T12:44:30Z</time>
      </trkpt>
      <trkpt lat="46.85235" lon="5.90816">
        <ele>625.9</ele>
        <time>2021-07-05T12:44:34Z</time>
      </trkpt>
      <trkpt lat="46.85241" lon="5.9082">
        <ele>624.8</ele>
        <time>2021-07-05T12:44:47Z</time>
      </trkpt>
      <trkpt lat="46.85245" lon="5.90825">
        <ele>624.3</ele>
        <time>2021-07-05T12:44:51Z</time>
      </trkpt>
      <trkpt lat="46.85246" lon="5.90834">
        <ele>624</ele>
        <time>2021-07-05T12:44:56Z</time>
      </trkpt>
      <trkpt lat="46.85248" lon="5.90842">
        <ele>623.9</ele>
        <time>2021-07-05T12:45:00Z</time>
      </trkpt>
      <trkpt lat="46.85249" lon="5.90851">
        <ele>623.8</ele>
        <time>2021-07-05T12:45:14Z</time>
      </trkpt>
      <trkpt lat="46.85247" lon="5.9086">
        <ele>623.7</ele>
        <time>2021-07-05T12:45:18Z</time>
      </trkpt>
      <trkpt lat="46.85246" lon="5.90867">
        <ele>623</ele>
        <time>2021-07-05T12:45:22Z</time>
      </trkpt>
      <trkpt lat="46.85246" lon="5.9086">
        <ele>620.1</ele>
        <time>2021-07-05T12:45:30Z</time>
      </trkpt>
      <trkpt lat="46.85244" lon="5.90869">
        <ele>617.6</ele>
        <time>2021-07-05T12:45:40Z</time>
      </trkpt>
      <trkpt lat="46.85241" lon="5.90877">
        <ele>617.3</ele>
        <time>2021-07-05T12:45:44Z</time>
      </trkpt>
      <trkpt lat="46.85242" lon="5.90885">
        <ele>617.5</ele>
        <time>2021-07-05T12:45:49Z</time>
      </trkpt>
      <trkpt lat="46.85237" lon="5.90894">
        <ele>619.3</ele>
        <time>2021-07-05T12:46:27Z</time>
      </trkpt>
      <trkpt lat="46.8523" lon="5.90897">
        <ele>619.8</ele>
        <time>2021-07-05T12:46:31Z</time>
      </trkpt>
      <trkpt lat="46.85226" lon="5.909">
        <ele>619.1</ele>
        <time>2021-07-05T12:46:44Z</time>
      </trkpt>
      <trkpt lat="46.85225" lon="5.90908">
        <ele>617.6</ele>
        <time>2021-07-05T12:46:59Z</time>
      </trkpt>
      <trkpt lat="46.85223" lon="5.90916">
        <ele>616.3</ele>
        <time>2021-07-05T12:47:03Z</time>
      </trkpt>
      <trkpt lat="46.85221" lon="5.90923">
        <ele>614.2</ele>
        <time>2021-07-05T12:47:39Z</time>
      </trkpt>
      <trkpt lat="46.85215" lon="5.90926">
        <ele>613.5</ele>
        <time>2021-07-05T12:47:53Z</time>
      </trkpt>
      <trkpt lat="46.85212" lon="5.90921">
        <ele>613.5</ele>
        <time>2021-07-05T12:47:58Z</time>
      </trkpt>
      <trkpt lat="46.85208" lon="5.90924">
        <ele>613.5</ele>
        <time>2021-07-05T12:48:10Z</time>
      </trkpt>
      <trkpt lat="46.85204" lon="5.90929">
        <ele>613.1</ele>
        <time>2021-07-05T12:48:14Z</time>
      </trkpt>
      <trkpt lat="46.85202" lon="5.90935">
        <ele>612.5</ele>
        <time>2021-07-05T12:48:24Z</time>
      </trkpt>
      <trkpt lat="46.85198" lon="5.90928">
        <ele>611.7</ele>
        <time>2021-07-05T12:48:48Z</time>
      </trkpt>
      <trkpt lat="46.85192" lon="5.9092">
        <ele>611.7</ele>
        <time>2021-07-05T12:48:52Z</time>
      </trkpt>
      <trkpt lat="46.85188" lon="5.90917">
        <ele>611.9</ele>
        <time>2021-07-05T12:48:56Z</time>
      </trkpt>
      <trkpt lat="46.85185" lon="5.90912">
        <ele>612.5</ele>
        <time>2021-07-05T12:49:02Z</time>
      </trkpt>
      <trkpt lat="46.85182" lon="5.90905">
        <ele>612.9</ele>
        <time>2021-07-05T12:49:15Z</time>
      </trkpt>
      <trkpt lat="46.85152" lon="5.90878">
        <ele>613.6</ele>
        <time>2021-07-05T12:49:25Z</time>
      </trkpt>
      <trkpt lat="46.85144" lon="5.90875">
        <ele>613.8</ele>
        <time>2021-07-05T12:49:29Z</time>
      </trkpt>
      <trkpt lat="46.85149" lon="5.90869">
        <ele>616.1</ele>
        <time>2021-07-05T12:49:49Z</time>
      </trkpt>
      <trkpt lat="46.85146" lon="5.90859">
        <ele>616.9</ele>
        <time>2021-07-05T12:49:53Z</time>
      </trkpt>
      <trkpt lat="46.8515" lon="5.90854">
        <ele>618.2</ele>
        <time>2021-07-05T12:49:57Z</time>
      </trkpt>
      <trkpt lat="46.85153" lon="5.90849">
        <ele>619.5</ele>
        <time>2021-07-05T12:50:01Z</time>
      </trkpt>
      <trkpt lat="46.85158" lon="5.90827">
        <ele>624.2</ele>
        <time>2021-07-05T12:50:19Z</time>
      </trkpt>
      <trkpt lat="46.8516" lon="5.9082">
        <ele>625</ele>
        <time>2021-07-05T12:50:23Z</time>
      </trkpt>
      <trkpt lat="46.85167" lon="5.90815">
        <ele>625.8</ele>
        <time>2021-07-05T12:50:27Z</time>
      </trkpt>
      <trkpt lat="46.85175" lon="5.90813">
        <ele>626.5</ele>
        <time>2021-07-05T12:50:31Z</time>
      </trkpt>
      <trkpt lat="46.85182" lon="5.90813">
        <ele>627.4</ele>
        <time>2021-07-05T12:50:35Z</time>
      </trkpt>
      <trkpt lat="46.85186" lon="5.90814">
        <ele>628.6</ele>
        <time>2021-07-05T12:50:42Z</time>
      </trkpt>
      <trkpt lat="46.8518" lon="5.90812">
        <ele>626.3</ele>
        <time>2021-07-05T12:50:58Z</time>
      </trkpt>
      <trkpt lat="46.85177" lon="5.90804">
        <ele>624.3</ele>
        <time>2021-07-05T12:51:17Z</time>
      </trkpt>
      <trkpt lat="46.85175" lon="5.90798">
        <ele>623.6</ele>
        <time>2021-07-05T12:51:22Z</time>
      </trkpt>
      <trkpt lat="46.85167" lon="5.90796">
        <ele>623.3</ele>
        <time>2021-07-05T12:51:26Z</time>
      </trkpt>
      <trkpt lat="46.8516" lon="5.90794">
        <ele>623.1</ele>
        <time>2021-07-05T12:51:30Z</time>
      </trkpt>
      <trkpt lat="46.85166" lon="5.90796">
        <ele>623.1</ele>
        <time>2021-07-05T12:51:46Z</time>
      </trkpt>
      <trkpt lat="46.85161" lon="5.90792">
        <ele>622.9</ele>
        <time>2021-07-05T12:52:00Z</time>
      </trkpt>
      <trkpt lat="46.85167" lon="5.90789">
        <ele>622.1</ele>
        <time>2021-07-05T12:52:06Z</time>
      </trkpt>
      <trkpt lat="46.85173" lon="5.90791">
        <ele>621.8</ele>
        <time>2021-07-05T12:52:10Z</time>
      </trkpt>
      <trkpt lat="46.85178" lon="5.90788">
        <ele>621.5</ele>
        <time>2021-07-05T12:52:19Z</time>
      </trkpt>
      <trkpt lat="46.85178" lon="5.9078">
        <ele>621</ele>
        <time>2021-07-05T12:52:24Z</time>
      </trkpt>
      <trkpt lat="46.85179" lon="5.90773">
        <ele>621</ele>
        <time>2021-07-05T12:52:28Z</time>
      </trkpt>
      <trkpt lat="46.85184" lon="5.90767">
        <ele>621.4</ele>
        <time>2021-07-05T12:52:35Z</time>
      </trkpt>
      <trkpt lat="46.8519" lon="5.9076">
        <ele>621.9</ele>
        <time>2021-07-05T12:52:39Z</time>
      </trkpt>
      <trkpt lat="46.85198" lon="5.90761">
        <ele>622.3</ele>
        <time>2021-07-05T12:52:47Z</time>
      </trkpt>
      <trkpt lat="46.85198" lon="5.90742">
        <ele>622.5</ele>
        <time>2021-07-05T12:53:39Z</time>
      </trkpt>
      <trkpt lat="46.85193" lon="5.90732">
        <ele>613.2</ele>
        <time>2021-07-05T12:54:36Z</time>
      </trkpt>
      <trkpt lat="46.85191" lon="5.90725">
        <ele>614.5</ele>
        <time>2021-07-05T12:54:46Z</time>
      </trkpt>
      <trkpt lat="46.85186" lon="5.90715">
        <ele>615.2</ele>
        <time>2021-07-05T12:54:50Z</time>
      </trkpt>
      <trkpt lat="46.85185" lon="5.90703">
        <ele>616.1</ele>
        <time>2021-07-05T12:54:54Z</time>
      </trkpt>
      <trkpt lat="46.85184" lon="5.90695">
        <ele>616.7</ele>
        <time>2021-07-05T12:55:00Z</time>
      </trkpt>
      <trkpt lat="46.8518" lon="5.90693">
        <ele>616.9</ele>
        <time>2021-07-05T12:55:05Z</time>
      </trkpt>
      <trkpt lat="46.85175" lon="5.90691">
        <ele>617.1</ele>
        <time>2021-07-05T12:55:18Z</time>
      </trkpt>
      <trkpt lat="46.85172" lon="5.90685">
        <ele>617.4</ele>
        <time>2021-07-05T12:55:54Z</time>
      </trkpt>
      <trkpt lat="46.8517" lon="5.90672">
        <ele>617.9</ele>
        <time>2021-07-05T12:56:11Z</time>
      </trkpt>
      <trkpt lat="46.85169" lon="5.90665">
        <ele>618.7</ele>
        <time>2021-07-05T12:56:17Z</time>
      </trkpt>
      <trkpt lat="46.85162" lon="5.90662">
        <ele>619.8</ele>
        <time>2021-07-05T12:56:21Z</time>
      </trkpt>
      <trkpt lat="46.85152" lon="5.90648">
        <ele>620.2</ele>
        <time>2021-07-05T12:56:57Z</time>
      </trkpt>
      <trkpt lat="46.85147" lon="5.90647">
        <ele>620.5</ele>
        <time>2021-07-05T12:57:04Z</time>
      </trkpt>
      <trkpt lat="46.85138" lon="5.90647">
        <ele>620.8</ele>
        <time>2021-07-05T12:57:13Z</time>
      </trkpt>
      <trkpt lat="46.85133" lon="5.9063">
        <ele>623.7</ele>
        <time>2021-07-05T12:58:16Z</time>
      </trkpt>
      <trkpt lat="46.85126" lon="5.90636">
        <ele>622.7</ele>
        <time>2021-07-05T12:58:20Z</time>
      </trkpt>
      <trkpt lat="46.85123" lon="5.90644">
        <ele>620.4</ele>
        <time>2021-07-05T12:58:39Z</time>
      </trkpt>
      <trkpt lat="46.85115" lon="5.90649">
        <ele>619.9</ele>
        <time>2021-07-05T12:58:43Z</time>
      </trkpt>
      <trkpt lat="46.8511" lon="5.90652">
        <ele>620</ele>
        <time>2021-07-05T12:58:47Z</time>
      </trkpt>
      <trkpt lat="46.85106" lon="5.90658">
        <ele>621</ele>
        <time>2021-07-05T12:59:05Z</time>
      </trkpt>
      <trkpt lat="46.85104" lon="5.90664">
        <ele>622</ele>
        <time>2021-07-05T12:59:09Z</time>
      </trkpt>
      <trkpt lat="46.85099" lon="5.90667">
        <ele>623.5</ele>
        <time>2021-07-05T12:59:17Z</time>
      </trkpt>
      <trkpt lat="46.85092" lon="5.90671">
        <ele>624</ele>
        <time>2021-07-05T12:59:21Z</time>
      </trkpt>
      <trkpt lat="46.85087" lon="5.90672">
        <ele>625</ele>
        <time>2021-07-05T12:59:26Z</time>
      </trkpt>
      <trkpt lat="46.85078" lon="5.90668">
        <ele>626</ele>
        <time>2021-07-05T12:59:30Z</time>
      </trkpt>
      <trkpt lat="46.8507" lon="5.90666">
        <ele>626.5</ele>
        <time>2021-07-05T12:59:34Z</time>
      </trkpt>
      <trkpt lat="46.85062" lon="5.90669">
        <ele>627.3</ele>
        <time>2021-07-05T12:59:58Z</time>
      </trkpt>
      <trkpt lat="46.85057" lon="5.9067">
        <ele>627.5</ele>
        <time>2021-07-05T13:00:02Z</time>
      </trkpt>
      <trkpt lat="46.85052" lon="5.90665">
        <ele>627.8</ele>
        <time>2021-07-05T13:00:20Z</time>
      </trkpt>
      <trkpt lat="46.85047" lon="5.90658">
        <ele>628.1</ele>
        <time>2021-07-05T13:00:24Z</time>
      </trkpt>
      <trkpt lat="46.85046" lon="5.90651">
        <ele>628.5</ele>
        <time>2021-07-05T13:00:31Z</time>
      </trkpt>
      <trkpt lat="46.85044" lon="5.90641">
        <ele>628.9</ele>
        <time>2021-07-05T13:00:35Z</time>
      </trkpt>
      <trkpt lat="46.85043" lon="5.90632">
        <ele>629.8</ele>
        <time>2021-07-05T13:00:44Z</time>
      </trkpt>
      <trkpt lat="46.85043" lon="5.9062">
        <ele>630.5</ele>
        <time>2021-07-05T13:00:48Z</time>
      </trkpt>
      <trkpt lat="46.85047" lon="5.90614">
        <ele>632</ele>
        <time>2021-07-05T13:00:53Z</time>
      </trkpt>
      <trkpt lat="46.85042" lon="5.9061">
        <ele>633.9</ele>
        <time>2021-07-05T13:01:03Z</time>
      </trkpt>
      <trkpt lat="46.85038" lon="5.90607">
        <ele>634.2</ele>
        <time>2021-07-05T13:01:07Z</time>
      </trkpt>
      <trkpt lat="46.85033" lon="5.90606">
        <ele>634.2</ele>
        <time>2021-07-05T13:01:17Z</time>
      </trkpt>
      <trkpt lat="46.85026" lon="5.90602">
        <ele>634.6</ele>
        <time>2021-07-05T13:01:21Z</time>
      </trkpt>
      <trkpt lat="46.85019" lon="5.90598">
        <ele>635.1</ele>
        <time>2021-07-05T13:01:25Z</time>
      </trkpt>
      <trkpt lat="46.85014" lon="5.90601">
        <ele>638.8</ele>
        <time>2021-07-05T13:01:54Z</time>
      </trkpt>
      <trkpt lat="46.85009" lon="5.90607">
        <ele>640.8</ele>
        <time>2021-07-05T13:01:58Z</time>
      </trkpt>
      <trkpt lat="46.85003" lon="5.90608">
        <ele>642.7</ele>
        <time>2021-07-05T13:02:07Z</time>
      </trkpt>
      <trkpt lat="46.84998" lon="5.90609">
        <ele>643</ele>
        <time>2021-07-05T13:02:11Z</time>
      </trkpt>
      <trkpt lat="46.84992" lon="5.90611">
        <ele>643.3</ele>
        <time>2021-07-05T13:02:19Z</time>
      </trkpt>
      <trkpt lat="46.84985" lon="5.90611">
        <ele>643.2</ele>
        <time>2021-07-05T13:02:23Z</time>
      </trkpt>
      <trkpt lat="46.84979" lon="5.90612">
        <ele>643</ele>
        <time>2021-07-05T13:02:30Z</time>
      </trkpt>
      <trkpt lat="46.84973" lon="5.90613">
        <ele>642.8</ele>
        <time>2021-07-05T13:02:34Z</time>
      </trkpt>
      <trkpt lat="46.8497" lon="5.90618">
        <ele>642.3</ele>
        <time>2021-07-05T13:02:42Z</time>
      </trkpt>
      <trkpt lat="46.84965" lon="5.90615">
        <ele>642.3</ele>
        <time>2021-07-05T13:02:47Z</time>
      </trkpt>
      <trkpt lat="46.84959" lon="5.90613">
        <ele>642.4</ele>
        <time>2021-07-05T13:02:51Z</time>
      </trkpt>
      <trkpt lat="46.84954" lon="5.90616">
        <ele>642.5</ele>
        <time>2021-07-05T13:03:10Z</time>
      </trkpt>
      <trkpt lat="46.84947" lon="5.90618">
        <ele>642.4</ele>
        <time>2021-07-05T13:03:14Z</time>
      </trkpt>
      <trkpt lat="46.84942" lon="5.90622">
        <ele>642.1</ele>
        <time>2021-07-05T13:03:25Z</time>
      </trkpt>
      <trkpt lat="46.84937" lon="5.90625">
        <ele>641.8</ele>
        <time>2021-07-05T13:03:29Z</time>
      </trkpt>
      <trkpt lat="46.84933" lon="5.9063">
        <ele>641.9</ele>
        <time>2021-07-05T13:03:47Z</time>
      </trkpt>
      <trkpt lat="46.8493" lon="5.90636">
        <ele>642.3</ele>
        <time>2021-07-05T13:03:51Z</time>
      </trkpt>
      <trkpt lat="46.84925" lon="5.90637">
        <ele>642.8</ele>
        <time>2021-07-05T13:03:57Z</time>
      </trkpt>
      <trkpt lat="46.84918" lon="5.90639">
        <ele>643.5</ele>
        <time>2021-07-05T13:04:08Z</time>
      </trkpt>
      <trkpt lat="46.84909" lon="5.90639">
        <ele>643.9</ele>
        <time>2021-07-05T13:04:12Z</time>
      </trkpt>
      <trkpt lat="46.84902" lon="5.90639">
        <ele>644.1</ele>
        <time>2021-07-05T13:04:16Z</time>
      </trkpt>
      <trkpt lat="46.84898" lon="5.90642">
        <ele>644.1</ele>
        <time>2021-07-05T13:04:21Z</time>
      </trkpt>
      <trkpt lat="46.84895" lon="5.90647">
        <ele>644.1</ele>
        <time>2021-07-05T13:04:25Z</time>
      </trkpt>
      <trkpt lat="46.84892" lon="5.90653">
        <ele>643.7</ele>
        <time>2021-07-05T13:04:31Z</time>
      </trkpt>
      <trkpt lat="46.84885" lon="5.90659">
        <ele>642.5</ele>
        <time>2021-07-05T13:04:49Z</time>
      </trkpt>
      <trkpt lat="46.8488" lon="5.90664">
        <ele>642.3</ele>
        <time>2021-07-05T13:04:53Z</time>
      </trkpt>
      <trkpt lat="46.84876" lon="5.9067">
        <ele>641.5</ele>
        <time>2021-07-05T13:05:04Z</time>
      </trkpt>
      <trkpt lat="46.84872" lon="5.90676">
        <ele>640.9</ele>
        <time>2021-07-05T13:05:08Z</time>
      </trkpt>
      <trkpt lat="46.84867" lon="5.90679">
        <ele>640.5</ele>
        <time>2021-07-05T13:05:12Z</time>
      </trkpt>
      <trkpt lat="46.84859" lon="5.90681">
        <ele>640.1</ele>
        <time>2021-07-05T13:05:28Z</time>
      </trkpt>
      <trkpt lat="46.84853" lon="5.90682">
        <ele>640.3</ele>
        <time>2021-07-05T13:05:32Z</time>
      </trkpt>
      <trkpt lat="46.84848" lon="5.90682">
        <ele>640.2</ele>
        <time>2021-07-05T13:05:40Z</time>
      </trkpt>
      <trkpt lat="46.8484" lon="5.90682">
        <ele>640.1</ele>
        <time>2021-07-05T13:05:44Z</time>
      </trkpt>
      <trkpt lat="46.84836" lon="5.90683">
        <ele>640.1</ele>
        <time>2021-07-05T13:05:48Z</time>
      </trkpt>
      <trkpt lat="46.8483" lon="5.90684">
        <ele>640.5</ele>
        <time>2021-07-05T13:05:59Z</time>
      </trkpt>
      <trkpt lat="46.84824" lon="5.90685">
        <ele>641.2</ele>
        <time>2021-07-05T13:06:03Z</time>
      </trkpt>
      <trkpt lat="46.84818" lon="5.90683">
        <ele>641.9</ele>
        <time>2021-07-05T13:06:10Z</time>
      </trkpt>
      <trkpt lat="46.84811" lon="5.90681">
        <ele>642.1</ele>
        <time>2021-07-05T13:06:14Z</time>
      </trkpt>
      <trkpt lat="46.84805" lon="5.90683">
        <ele>642.3</ele>
        <time>2021-07-05T13:06:21Z</time>
      </trkpt>
      <trkpt lat="46.848" lon="5.90686">
        <ele>642.6</ele>
        <time>2021-07-05T13:06:25Z</time>
      </trkpt>
      <trkpt lat="46.84795" lon="5.90686">
        <ele>643.2</ele>
        <time>2021-07-05T13:06:29Z</time>
      </trkpt>
      <trkpt lat="46.8479" lon="5.90689">
        <ele>644.2</ele>
        <time>2021-07-05T13:06:37Z</time>
      </trkpt>
      <trkpt lat="46.84786" lon="5.90694">
        <ele>643.9</ele>
        <time>2021-07-05T13:07:06Z</time>
      </trkpt>
      <trkpt lat="46.84777" lon="5.90697">
        <ele>643.5</ele>
        <time>2021-07-05T13:07:10Z</time>
      </trkpt>
      <trkpt lat="46.84772" lon="5.90699">
        <ele>643.2</ele>
        <time>2021-07-05T13:07:14Z</time>
      </trkpt>
      <trkpt lat="46.84769" lon="5.90704">
        <ele>643.1</ele>
        <time>2021-07-05T13:07:18Z</time>
      </trkpt>
      <trkpt lat="46.84767" lon="5.90711">
        <ele>643.2</ele>
        <time>2021-07-05T13:07:22Z</time>
      </trkpt>
      <trkpt lat="46.84763" lon="5.90715">
        <ele>643.2</ele>
        <time>2021-07-05T13:07:27Z</time>
      </trkpt>
      <trkpt lat="46.8476" lon="5.90721">
        <ele>643.3</ele>
        <time>2021-07-05T13:07:35Z</time>
      </trkpt>
      <trkpt lat="46.84757" lon="5.90729">
        <ele>643.5</ele>
        <time>2021-07-05T13:07:39Z</time>
      </trkpt>
      <trkpt lat="46.84754" lon="5.90736">
        <ele>643.6</ele>
        <time>2021-07-05T13:07:46Z</time>
      </trkpt>
      <trkpt lat="46.84749" lon="5.90744">
        <ele>643.8</ele>
        <time>2021-07-05T13:07:50Z</time>
      </trkpt>
      <trkpt lat="46.84745" lon="5.90752">
        <ele>643.8</ele>
        <time>2021-07-05T13:08:02Z</time>
      </trkpt>
      <trkpt lat="46.84743" lon="5.9076">
        <ele>643.5</ele>
        <time>2021-07-05T13:08:06Z</time>
      </trkpt>
      <trkpt lat="46.84741" lon="5.90768">
        <ele>643</ele>
        <time>2021-07-05T13:08:17Z</time>
      </trkpt>
      <trkpt lat="46.84739" lon="5.90775">
        <ele>642.8</ele>
        <time>2021-07-05T13:08:21Z</time>
      </trkpt>
      <trkpt lat="46.84734" lon="5.90778">
        <ele>642.7</ele>
        <time>2021-07-05T13:08:32Z</time>
      </trkpt>
      <trkpt lat="46.84727" lon="5.9078">
        <ele>642.8</ele>
        <time>2021-07-05T13:08:36Z</time>
      </trkpt>
      <trkpt lat="46.84721" lon="5.90781">
        <ele>642.7</ele>
        <time>2021-07-05T13:08:43Z</time>
      </trkpt>
      <trkpt lat="46.84715" lon="5.90782">
        <ele>642.9</ele>
        <time>2021-07-05T13:08:47Z</time>
      </trkpt>
      <trkpt lat="46.8471" lon="5.90781">
        <ele>642.8</ele>
        <time>2021-07-05T13:08:53Z</time>
      </trkpt>
      <trkpt lat="46.84704" lon="5.9078">
        <ele>642.9</ele>
        <time>2021-07-05T13:08:57Z</time>
      </trkpt>
      <trkpt lat="46.84699" lon="5.90781">
        <ele>643.1</ele>
        <time>2021-07-05T13:09:01Z</time>
      </trkpt>
      <trkpt lat="46.84695" lon="5.90782">
        <ele>643.6</ele>
        <time>2021-07-05T13:09:08Z</time>
      </trkpt>
      <trkpt lat="46.8469" lon="5.90784">
        <ele>643.9</ele>
        <time>2021-07-05T13:09:30Z</time>
      </trkpt>
      <trkpt lat="46.84681" lon="5.90787">
        <ele>644</ele>
        <time>2021-07-05T13:09:47Z</time>
      </trkpt>
      <trkpt lat="46.84674" lon="5.90789">
        <ele>644.2</ele>
        <time>2021-07-05T13:09:51Z</time>
      </trkpt>
      <trkpt lat="46.84668" lon="5.9079">
        <ele>644.7</ele>
        <time>2021-07-05T13:10:02Z</time>
      </trkpt>
      <trkpt lat="46.84662" lon="5.90791">
        <ele>645.1</ele>
        <time>2021-07-05T13:10:06Z</time>
      </trkpt>
      <trkpt lat="46.84656" lon="5.90792">
        <ele>645.6</ele>
        <time>2021-07-05T13:10:11Z</time>
      </trkpt>
      <trkpt lat="46.84651" lon="5.90793">
        <ele>645.8</ele>
        <time>2021-07-05T13:10:15Z</time>
      </trkpt>
      <trkpt lat="46.84644" lon="5.90794">
        <ele>646.3</ele>
        <time>2021-07-05T13:10:33Z</time>
      </trkpt>
      <trkpt lat="46.84635" lon="5.90796">
        <ele>646.7</ele>
        <time>2021-07-05T13:10:37Z</time>
      </trkpt>
      <trkpt lat="46.84628" lon="5.90796">
        <ele>647.3</ele>
        <time>2021-07-05T13:10:43Z</time>
      </trkpt>
      <trkpt lat="46.84618" lon="5.90795">
        <ele>647.9</ele>
        <time>2021-07-05T13:10:47Z</time>
      </trkpt>
      <trkpt lat="46.84611" lon="5.90795">
        <ele>649.1</ele>
        <time>2021-07-05T13:11:02Z</time>
      </trkpt>
      <trkpt lat="46.84601" lon="5.90788">
        <ele>649.7</ele>
        <time>2021-07-05T13:11:06Z</time>
      </trkpt>
      <trkpt lat="46.84594" lon="5.9078">
        <ele>650.1</ele>
        <time>2021-07-05T13:11:10Z</time>
      </trkpt>
      <trkpt lat="46.84589" lon="5.90777">
        <ele>650</ele>
        <time>2021-07-05T13:11:14Z</time>
      </trkpt>
      <trkpt lat="46.84584" lon="5.90776">
        <ele>649.9</ele>
        <time>2021-07-05T13:11:18Z</time>
      </trkpt>
      <trkpt lat="46.84579" lon="5.90775">
        <ele>649.3</ele>
        <time>2021-07-05T13:11:24Z</time>
      </trkpt>
      <trkpt lat="46.84571" lon="5.90773">
        <ele>648.9</ele>
        <time>2021-07-05T13:11:28Z</time>
      </trkpt>
      <trkpt lat="46.84564" lon="5.90769">
        <ele>648.3</ele>
        <time>2021-07-05T13:11:35Z</time>
      </trkpt>
      <trkpt lat="46.8456" lon="5.90767">
        <ele>648</ele>
        <time>2021-07-05T13:11:43Z</time>
      </trkpt>
      <trkpt lat="46.84555" lon="5.90769">
        <ele>648.5</ele>
        <time>2021-07-05T13:11:59Z</time>
      </trkpt>
      <trkpt lat="46.84547" lon="5.90769">
        <ele>649.6</ele>
        <time>2021-07-05T13:12:03Z</time>
      </trkpt>
      <trkpt lat="46.84541" lon="5.90767">
        <ele>650.8</ele>
        <time>2021-07-05T13:12:07Z</time>
      </trkpt>
      <trkpt lat="46.84533" lon="5.90765">
        <ele>651.9</ele>
        <time>2021-07-05T13:12:11Z</time>
      </trkpt>
      <trkpt lat="46.84527" lon="5.90761">
        <ele>652.6</ele>
        <time>2021-07-05T13:12:15Z</time>
      </trkpt>
      <trkpt lat="46.84519" lon="5.90759">
        <ele>653.6</ele>
        <time>2021-07-05T13:12:19Z</time>
      </trkpt>
      <trkpt lat="46.84512" lon="5.90758">
        <ele>654.3</ele>
        <time>2021-07-05T13:12:23Z</time>
      </trkpt>
      <trkpt lat="46.84503" lon="5.90754">
        <ele>655.2</ele>
        <time>2021-07-05T13:12:27Z</time>
      </trkpt>
      <trkpt lat="46.84499" lon="5.9075">
        <ele>655.8</ele>
        <time>2021-07-05T13:12:31Z</time>
      </trkpt>
      <trkpt lat="46.84493" lon="5.90747">
        <ele>656.6</ele>
        <time>2021-07-05T13:12:41Z</time>
      </trkpt>
      <trkpt lat="46.84488" lon="5.90749">
        <ele>657.3</ele>
        <time>2021-07-05T13:12:51Z</time>
      </trkpt>
      <trkpt lat="46.84483" lon="5.90752">
        <ele>657.7</ele>
        <time>2021-07-05T13:13:02Z</time>
      </trkpt>
      <trkpt lat="46.84443" lon="5.90753">
        <ele>651.8</ele>
        <time>2021-07-05T13:13:35Z</time>
      </trkpt>
      <trkpt lat="46.84447" lon="5.90761">
        <ele>650.9</ele>
        <time>2021-07-05T13:13:39Z</time>
      </trkpt>
      <trkpt lat="46.84446" lon="5.90768">
        <ele>650</ele>
        <time>2021-07-05T13:14:30Z</time>
      </trkpt>
      <trkpt lat="46.84442" lon="5.90774">
        <ele>650.4</ele>
        <time>2021-07-05T13:14:34Z</time>
      </trkpt>
      <trkpt lat="46.84436" lon="5.90775">
        <ele>650.7</ele>
        <time>2021-07-05T13:14:47Z</time>
      </trkpt>
      <trkpt lat="46.84428" lon="5.90775">
        <ele>650.7</ele>
        <time>2021-07-05T13:14:51Z</time>
      </trkpt>
      <trkpt lat="46.84422" lon="5.90782">
        <ele>650</ele>
        <time>2021-07-05T13:15:03Z</time>
      </trkpt>
      <trkpt lat="46.84418" lon="5.90787">
        <ele>650.6</ele>
        <time>2021-07-05T13:15:07Z</time>
      </trkpt>
      <trkpt lat="46.84412" lon="5.90787">
        <ele>652.6</ele>
        <time>2021-07-05T13:15:20Z</time>
      </trkpt>
      <trkpt lat="46.84406" lon="5.9079">
        <ele>653.6</ele>
        <time>2021-07-05T13:15:43Z</time>
      </trkpt>
      <trkpt lat="46.84401" lon="5.90795">
        <ele>652.8</ele>
        <time>2021-07-05T13:15:47Z</time>
      </trkpt>
      <trkpt lat="46.84396" lon="5.90799">
        <ele>652</ele>
        <time>2021-07-05T13:15:53Z</time>
      </trkpt>
      <trkpt lat="46.84392" lon="5.90801">
        <ele>651.5</ele>
        <time>2021-07-05T13:15:58Z</time>
      </trkpt>
      <trkpt lat="46.84387" lon="5.90801">
        <ele>651.7</ele>
        <time>2021-07-05T13:16:03Z</time>
      </trkpt>
      <trkpt lat="46.84381" lon="5.90801">
        <ele>652.1</ele>
        <time>2021-07-05T13:16:07Z</time>
      </trkpt>
      <trkpt lat="46.84377" lon="5.90805">
        <ele>652.4</ele>
        <time>2021-07-05T13:16:13Z</time>
      </trkpt>
      <trkpt lat="46.84378" lon="5.90813">
        <ele>652.5</ele>
        <time>2021-07-05T13:16:17Z</time>
      </trkpt>
      <trkpt lat="46.84376" lon="5.90819">
        <ele>652.7</ele>
        <time>2021-07-05T13:16:32Z</time>
      </trkpt>
      <trkpt lat="46.8437" lon="5.90824">
        <ele>653</ele>
        <time>2021-07-05T13:16:36Z</time>
      </trkpt>
      <trkpt lat="46.84366" lon="5.90824">
        <ele>653.5</ele>
        <time>2021-07-05T13:16:46Z</time>
      </trkpt>
      <trkpt lat="46.8436" lon="5.90821">
        <ele>654.1</ele>
        <time>2021-07-05T13:16:50Z</time>
      </trkpt>
      <trkpt lat="46.84356" lon="5.90817">
        <ele>654.6</ele>
        <time>2021-07-05T13:16:55Z</time>
      </trkpt>
      <trkpt lat="46.84353" lon="5.90812">
        <ele>654.9</ele>
        <time>2021-07-05T13:17:09Z</time>
      </trkpt>
      <trkpt lat="46.84347" lon="5.90813">
        <ele>654.2</ele>
        <time>2021-07-05T13:17:16Z</time>
      </trkpt>
      <trkpt lat="46.84342" lon="5.9081">
        <ele>652.7</ele>
        <time>2021-07-05T13:17:34Z</time>
      </trkpt>
      <trkpt lat="46.84337" lon="5.90801">
        <ele>651.7</ele>
        <time>2021-07-05T13:17:43Z</time>
      </trkpt>
      <trkpt lat="46.84329" lon="5.90795">
        <ele>652</ele>
        <time>2021-07-05T13:17:47Z</time>
      </trkpt>
      <trkpt lat="46.84322" lon="5.90793">
        <ele>652.3</ele>
        <time>2021-07-05T13:18:02Z</time>
      </trkpt>
      <trkpt lat="46.84313" lon="5.90791">
        <ele>652.4</ele>
        <time>2021-07-05T13:18:13Z</time>
      </trkpt>
      <trkpt lat="46.84306" lon="5.90789">
        <ele>652.3</ele>
        <time>2021-07-05T13:18:17Z</time>
      </trkpt>
      <trkpt lat="46.84301" lon="5.90785">
        <ele>652.2</ele>
        <time>2021-07-05T13:18:33Z</time>
      </trkpt>
      <trkpt lat="46.84297" lon="5.9078">
        <ele>652.2</ele>
        <time>2021-07-05T13:18:37Z</time>
      </trkpt>
      <trkpt lat="46.84292" lon="5.90776">
        <ele>652.1</ele>
        <time>2021-07-05T13:18:43Z</time>
      </trkpt>
      <trkpt lat="46.8429" lon="5.90769">
        <ele>651.9</ele>
        <time>2021-07-05T13:18:48Z</time>
      </trkpt>
      <trkpt lat="46.84287" lon="5.90763">
        <ele>651.6</ele>
        <time>2021-07-05T13:18:56Z</time>
      </trkpt>
      <trkpt lat="46.84284" lon="5.90756">
        <ele>651.3</ele>
        <time>2021-07-05T13:19:00Z</time>
      </trkpt>
      <trkpt lat="46.84282" lon="5.90748">
        <ele>650.8</ele>
        <time>2021-07-05T13:19:09Z</time>
      </trkpt>
      <trkpt lat="46.8428" lon="5.90737">
        <ele>650.6</ele>
        <time>2021-07-05T13:19:13Z</time>
      </trkpt>
      <trkpt lat="46.84278" lon="5.90729">
        <ele>650.4</ele>
        <time>2021-07-05T13:19:18Z</time>
      </trkpt>
      <trkpt lat="46.84274" lon="5.90719">
        <ele>650.2</ele>
        <time>2021-07-05T13:19:22Z</time>
      </trkpt>
      <trkpt lat="46.84272" lon="5.90712">
        <ele>650</ele>
        <time>2021-07-05T13:19:28Z</time>
      </trkpt>
      <trkpt lat="46.84276" lon="5.90705">
        <ele>649.5</ele>
        <time>2021-07-05T13:19:53Z</time>
      </trkpt>
      <trkpt lat="46.84284" lon="5.90699">
        <ele>649.2</ele>
        <time>2021-07-05T13:19:57Z</time>
      </trkpt>
      <trkpt lat="46.84281" lon="5.9069">
        <ele>648.8</ele>
        <time>2021-07-05T13:20:04Z</time>
      </trkpt>
      <trkpt lat="46.84277" lon="5.90684">
        <ele>648.6</ele>
        <time>2021-07-05T13:20:08Z</time>
      </trkpt>
      <trkpt lat="46.8428" lon="5.90679">
        <ele>649</ele>
        <time>2021-07-05T13:20:22Z</time>
      </trkpt>
      <trkpt lat="46.84276" lon="5.90675">
        <ele>649.4</ele>
        <time>2021-07-05T13:20:28Z</time>
      </trkpt>
      <trkpt lat="46.84272" lon="5.90668">
        <ele>649.8</ele>
        <time>2021-07-05T13:20:39Z</time>
      </trkpt>
      <trkpt lat="46.84266" lon="5.9066">
        <ele>650.1</ele>
        <time>2021-07-05T13:20:43Z</time>
      </trkpt>
      <trkpt lat="46.84261" lon="5.90657">
        <ele>650.4</ele>
        <time>2021-07-05T13:20:59Z</time>
      </trkpt>
      <trkpt lat="46.84255" lon="5.90655">
        <ele>650.2</ele>
        <time>2021-07-05T13:21:03Z</time>
      </trkpt>
      <trkpt lat="46.8426" lon="5.90647">
        <ele>649.8</ele>
        <time>2021-07-05T13:21:20Z</time>
      </trkpt>
      <trkpt lat="46.84265" lon="5.90646">
        <ele>649.7</ele>
        <time>2021-07-05T13:21:24Z</time>
      </trkpt>
      <trkpt lat="46.84262" lon="5.9064">
        <ele>649.8</ele>
        <time>2021-07-05T13:21:55Z</time>
      </trkpt>
      <trkpt lat="46.84258" lon="5.90632">
        <ele>649.1</ele>
        <time>2021-07-05T13:22:36Z</time>
      </trkpt>
      <trkpt lat="46.84255" lon="5.90624">
        <ele>648.2</ele>
        <time>2021-07-05T13:22:40Z</time>
      </trkpt>
      <trkpt lat="46.84252" lon="5.90616">
        <ele>647.1</ele>
        <time>2021-07-05T13:22:52Z</time>
      </trkpt>
      <trkpt lat="46.84249" lon="5.90609">
        <ele>647</ele>
        <time>2021-07-05T13:22:56Z</time>
      </trkpt>
      <trkpt lat="46.84251" lon="5.90603">
        <ele>647.1</ele>
        <time>2021-07-05T13:23:00Z</time>
      </trkpt>
      <trkpt lat="46.84252" lon="5.90595">
        <ele>646.5</ele>
        <time>2021-07-05T13:23:05Z</time>
      </trkpt>
      <trkpt lat="46.84249" lon="5.90588">
        <ele>646</ele>
        <time>2021-07-05T13:23:11Z</time>
      </trkpt>
      <trkpt lat="46.84243" lon="5.90575">
        <ele>645.5</ele>
        <time>2021-07-05T13:23:15Z</time>
      </trkpt>
      <trkpt lat="46.84235" lon="5.90565">
        <ele>645</ele>
        <time>2021-07-05T13:23:19Z</time>
      </trkpt>
      <trkpt lat="46.84232" lon="5.90557">
        <ele>644.8</ele>
        <time>2021-07-05T13:23:23Z</time>
      </trkpt>
      <trkpt lat="46.84228" lon="5.90549">
        <ele>644.7</ele>
        <time>2021-07-05T13:23:27Z</time>
      </trkpt>
      <trkpt lat="46.84226" lon="5.9054">
        <ele>644.7</ele>
        <time>2021-07-05T13:23:36Z</time>
      </trkpt>
      <trkpt lat="46.84224" lon="5.90531">
        <ele>644.5</ele>
        <time>2021-07-05T13:23:40Z</time>
      </trkpt>
      <trkpt lat="46.84226" lon="5.90523">
        <ele>644</ele>
        <time>2021-07-05T13:23:48Z</time>
      </trkpt>
      <trkpt lat="46.84227" lon="5.90517">
        <ele>643.7</ele>
        <time>2021-07-05T13:23:53Z</time>
      </trkpt>
      <trkpt lat="46.84225" lon="5.9051">
        <ele>643.6</ele>
        <time>2021-07-05T13:24:03Z</time>
      </trkpt>
      <trkpt lat="46.84221" lon="5.90501">
        <ele>643.5</ele>
        <time>2021-07-05T13:24:07Z</time>
      </trkpt>
      <trkpt lat="46.84216" lon="5.90494">
        <ele>643.5</ele>
        <time>2021-07-05T13:24:16Z</time>
      </trkpt>
      <trkpt lat="46.8421" lon="5.90482">
        <ele>643.2</ele>
        <time>2021-07-05T13:24:20Z</time>
      </trkpt>
      <trkpt lat="46.84209" lon="5.90475">
        <ele>643.1</ele>
        <time>2021-07-05T13:24:25Z</time>
      </trkpt>
      <trkpt lat="46.8421" lon="5.90468">
        <ele>642.8</ele>
        <time>2021-07-05T13:24:34Z</time>
      </trkpt>
      <trkpt lat="46.84206" lon="5.90456">
        <ele>642.6</ele>
        <time>2021-07-05T13:24:38Z</time>
      </trkpt>
      <trkpt lat="46.84203" lon="5.90448">
        <ele>643</ele>
        <time>2021-07-05T13:25:03Z</time>
      </trkpt>
      <trkpt lat="46.84197" lon="5.90447">
        <ele>644.1</ele>
        <time>2021-07-05T13:25:07Z</time>
      </trkpt>
      <trkpt lat="46.84192" lon="5.90445">
        <ele>644.5</ele>
        <time>2021-07-05T13:25:15Z</time>
      </trkpt>
      <trkpt lat="46.84188" lon="5.90441">
        <ele>644.8</ele>
        <time>2021-07-05T13:25:24Z</time>
      </trkpt>
      <trkpt lat="46.8418" lon="5.90436">
        <ele>645.1</ele>
        <time>2021-07-05T13:25:28Z</time>
      </trkpt>
      <trkpt lat="46.84179" lon="5.90428">
        <ele>644.8</ele>
        <time>2021-07-05T13:25:47Z</time>
      </trkpt>
      <trkpt lat="46.84176" lon="5.9042">
        <ele>644.2</ele>
        <time>2021-07-05T13:25:51Z</time>
      </trkpt>
      <trkpt lat="46.84171" lon="5.90414">
        <ele>644</ele>
        <time>2021-07-05T13:25:57Z</time>
      </trkpt>
      <trkpt lat="46.84165" lon="5.90412">
        <ele>644.1</ele>
        <time>2021-07-05T13:26:01Z</time>
      </trkpt>
      <trkpt lat="46.84159" lon="5.90407">
        <ele>644.4</ele>
        <time>2021-07-05T13:26:15Z</time>
      </trkpt>
      <trkpt lat="46.84155" lon="5.90401">
        <ele>644.3</ele>
        <time>2021-07-05T13:26:19Z</time>
      </trkpt>
      <trkpt lat="46.8415" lon="5.90396">
        <ele>644.1</ele>
        <time>2021-07-05T13:26:28Z</time>
      </trkpt>
      <trkpt lat="46.84145" lon="5.90389">
        <ele>644</ele>
        <time>2021-07-05T13:26:32Z</time>
      </trkpt>
      <trkpt lat="46.84141" lon="5.90383">
        <ele>643.8</ele>
        <time>2021-07-05T13:26:42Z</time>
      </trkpt>
      <trkpt lat="46.84136" lon="5.90378">
        <ele>643.5</ele>
        <time>2021-07-05T13:26:46Z</time>
      </trkpt>
      <trkpt lat="46.8413" lon="5.90374">
        <ele>643.2</ele>
        <time>2021-07-05T13:26:53Z</time>
      </trkpt>
      <trkpt lat="46.84125" lon="5.90367">
        <ele>643.2</ele>
        <time>2021-07-05T13:26:57Z</time>
      </trkpt>
      <trkpt lat="46.84121" lon="5.90359">
        <ele>642.6</ele>
        <time>2021-07-05T13:27:13Z</time>
      </trkpt>
      <trkpt lat="46.84117" lon="5.90351">
        <ele>641.8</ele>
        <time>2021-07-05T13:27:17Z</time>
      </trkpt>
      <trkpt lat="46.84115" lon="5.90345">
        <ele>641.2</ele>
        <time>2021-07-05T13:27:21Z</time>
      </trkpt>
      <trkpt lat="46.8411" lon="5.90335">
        <ele>641.1</ele>
        <time>2021-07-05T13:27:28Z</time>
      </trkpt>
      <trkpt lat="46.84106" lon="5.90327">
        <ele>641.2</ele>
        <time>2021-07-05T13:27:32Z</time>
      </trkpt>
      <trkpt lat="46.84102" lon="5.90319">
        <ele>641.1</ele>
        <time>2021-07-05T13:27:42Z</time>
      </trkpt>
      <trkpt lat="46.84098" lon="5.9031">
        <ele>641.1</ele>
        <time>2021-07-05T13:27:46Z</time>
      </trkpt>
      <trkpt lat="46.84095" lon="5.90302">
        <ele>641.2</ele>
        <time>2021-07-05T13:27:56Z</time>
      </trkpt>
      <trkpt lat="46.8409" lon="5.90286">
        <ele>641.9</ele>
        <time>2021-07-05T13:28:00Z</time>
      </trkpt>
      <trkpt lat="46.84085" lon="5.90272">
        <ele>642.3</ele>
        <time>2021-07-05T13:28:04Z</time>
      </trkpt>
      <trkpt lat="46.84083" lon="5.90264">
        <ele>642.4</ele>
        <time>2021-07-05T13:28:08Z</time>
      </trkpt>
      <trkpt lat="46.84082" lon="5.90255">
        <ele>642.2</ele>
        <time>2021-07-05T13:28:20Z</time>
      </trkpt>
      <trkpt lat="46.84082" lon="5.90247">
        <ele>642.2</ele>
        <time>2021-07-05T13:28:24Z</time>
      </trkpt>
      <trkpt lat="46.84079" lon="5.90241">
        <ele>642.4</ele>
        <time>2021-07-05T13:28:31Z</time>
      </trkpt>
      <trkpt lat="46.84078" lon="5.90234">
        <ele>642.6</ele>
        <time>2021-07-05T13:28:35Z</time>
      </trkpt>
      <trkpt lat="46.84102" lon="5.90215">
        <ele>641.1</ele>
        <time>2021-07-05T13:28:50Z</time>
      </trkpt>
      <trkpt lat="46.84089" lon="5.90195">
        <ele>641</ele>
        <time>2021-07-05T13:28:54Z</time>
      </trkpt>
      <trkpt lat="46.84069" lon="5.90192">
        <ele>640.5</ele>
        <time>2021-07-05T13:28:58Z</time>
      </trkpt>
      <trkpt lat="46.84072" lon="5.90187">
        <ele>643.5</ele>
        <time>2021-07-05T13:29:22Z</time>
      </trkpt>
      <trkpt lat="46.8407" lon="5.90179">
        <ele>644.6</ele>
        <time>2021-07-05T13:29:33Z</time>
      </trkpt>
      <trkpt lat="46.84067" lon="5.90169">
        <ele>644.6</ele>
        <time>2021-07-05T13:29:37Z</time>
      </trkpt>
      <trkpt lat="46.84062" lon="5.90159">
        <ele>644.7</ele>
        <time>2021-07-05T13:29:41Z</time>
      </trkpt>
      <trkpt lat="46.84061" lon="5.90153">
        <ele>644.7</ele>
        <time>2021-07-05T13:29:45Z</time>
      </trkpt>
      <trkpt lat="46.84064" lon="5.90146">
        <ele>645.2</ele>
        <time>2021-07-05T13:29:59Z</time>
      </trkpt>
      <trkpt lat="46.84071" lon="5.90143">
        <ele>645.5</ele>
        <time>2021-07-05T13:30:03Z</time>
      </trkpt>
      <trkpt lat="46.84075" lon="5.90141">
        <ele>645.6</ele>
        <time>2021-07-05T13:30:08Z</time>
      </trkpt>
      <trkpt lat="46.8408" lon="5.90139">
        <ele>645.3</ele>
        <time>2021-07-05T13:30:13Z</time>
      </trkpt>
      <trkpt lat="46.8408" lon="5.90131">
        <ele>644.6</ele>
        <time>2021-07-05T13:30:19Z</time>
      </trkpt>
      <trkpt lat="46.84075" lon="5.90126">
        <ele>643.1</ele>
        <time>2021-07-05T13:30:36Z</time>
      </trkpt>
      <trkpt lat="46.84071" lon="5.90123">
        <ele>642.1</ele>
        <time>2021-07-05T13:30:41Z</time>
      </trkpt>
      <trkpt lat="46.84065" lon="5.90123">
        <ele>641.9</ele>
        <time>2021-07-05T13:30:48Z</time>
      </trkpt>
      <trkpt lat="46.8406" lon="5.90124">
        <ele>641.9</ele>
        <time>2021-07-05T13:30:52Z</time>
      </trkpt>
      <trkpt lat="46.84055" lon="5.90121">
        <ele>642</ele>
        <time>2021-07-05T13:31:10Z</time>
      </trkpt>
      <trkpt lat="46.84049" lon="5.90116">
        <ele>643</ele>
        <time>2021-07-05T13:31:14Z</time>
      </trkpt>
      <trkpt lat="46.84043" lon="5.90111">
        <ele>645.8</ele>
        <time>2021-07-05T13:31:19Z</time>
      </trkpt>
      <trkpt lat="46.84036" lon="5.90107">
        <ele>648.7</ele>
        <time>2021-07-05T13:31:23Z</time>
      </trkpt>
      <trkpt lat="46.84031" lon="5.90102">
        <ele>652.8</ele>
        <time>2021-07-05T13:31:34Z</time>
      </trkpt>
      <trkpt lat="46.84027" lon="5.90095">
        <ele>653.9</ele>
        <time>2021-07-05T13:31:38Z</time>
      </trkpt>
      <trkpt lat="46.84027" lon="5.90087">
        <ele>654.3</ele>
        <time>2021-07-05T13:31:43Z</time>
      </trkpt>
      <trkpt lat="46.84027" lon="5.9008">
        <ele>654.2</ele>
        <time>2021-07-05T13:31:48Z</time>
      </trkpt>
      <trkpt lat="46.84028" lon="5.90072">
        <ele>653.4</ele>
        <time>2021-07-05T13:32:05Z</time>
      </trkpt>
      <trkpt lat="46.84028" lon="5.90063">
        <ele>652.7</ele>
        <time>2021-07-05T13:32:09Z</time>
      </trkpt>
      <trkpt lat="46.84025" lon="5.90056">
        <ele>651.6</ele>
        <time>2021-07-05T13:32:27Z</time>
      </trkpt>
      <trkpt lat="46.84018" lon="5.9005">
        <ele>651.5</ele>
        <time>2021-07-05T13:32:31Z</time>
      </trkpt>
      <trkpt lat="46.84012" lon="5.90041">
        <ele>651.3</ele>
        <time>2021-07-05T13:32:48Z</time>
      </trkpt>
      <trkpt lat="46.84005" lon="5.90032">
        <ele>650.9</ele>
        <time>2021-07-05T13:32:52Z</time>
      </trkpt>
      <trkpt lat="46.84001" lon="5.90028">
        <ele>650.6</ele>
        <time>2021-07-05T13:32:59Z</time>
      </trkpt>
      <trkpt lat="46.84003" lon="5.90021">
        <ele>650.6</ele>
        <time>2021-07-05T13:33:21Z</time>
      </trkpt>
      <trkpt lat="46.84002" lon="5.90013">
        <ele>650.6</ele>
        <time>2021-07-05T13:33:28Z</time>
      </trkpt>
      <trkpt lat="46.83992" lon="5.90002">
        <ele>650.3</ele>
        <time>2021-07-05T13:33:32Z</time>
      </trkpt>
      <trkpt lat="46.83979" lon="5.89993">
        <ele>650</ele>
        <time>2021-07-05T13:33:36Z</time>
      </trkpt>
      <trkpt lat="46.83973" lon="5.8999">
        <ele>649.7</ele>
        <time>2021-07-05T13:33:40Z</time>
      </trkpt>
      <trkpt lat="46.83967" lon="5.89988">
        <ele>649.5</ele>
        <time>2021-07-05T13:33:46Z</time>
      </trkpt>
      <trkpt lat="46.83963" lon="5.89988">
        <ele>649.6</ele>
        <time>2021-07-05T13:33:50Z</time>
      </trkpt>
      <trkpt lat="46.83958" lon="5.89981">
        <ele>649.9</ele>
        <time>2021-07-05T13:33:57Z</time>
      </trkpt>
      <trkpt lat="46.83954" lon="5.89975">
        <ele>650</ele>
        <time>2021-07-05T13:34:01Z</time>
      </trkpt>
      <trkpt lat="46.83949" lon="5.89968">
        <ele>650.2</ele>
        <time>2021-07-05T13:34:05Z</time>
      </trkpt>
      <trkpt lat="46.83945" lon="5.8996">
        <ele>650.3</ele>
        <time>2021-07-05T13:34:27Z</time>
      </trkpt>
      <trkpt lat="46.8394" lon="5.89949">
        <ele>650.4</ele>
        <time>2021-07-05T13:34:31Z</time>
      </trkpt>
      <trkpt lat="46.83935" lon="5.89943">
        <ele>650.7</ele>
        <time>2021-07-05T13:34:38Z</time>
      </trkpt>
      <trkpt lat="46.83928" lon="5.89939">
        <ele>650.9</ele>
        <time>2021-07-05T13:34:42Z</time>
      </trkpt>
      <trkpt lat="46.83922" lon="5.89935">
        <ele>651.2</ele>
        <time>2021-07-05T13:34:49Z</time>
      </trkpt>
      <trkpt lat="46.83916" lon="5.8993">
        <ele>651.5</ele>
        <time>2021-07-05T13:34:53Z</time>
      </trkpt>
      <trkpt lat="46.83911" lon="5.89925">
        <ele>651.9</ele>
        <time>2021-07-05T13:34:57Z</time>
      </trkpt>
      <trkpt lat="46.83903" lon="5.89918">
        <ele>652.6</ele>
        <time>2021-07-05T13:35:01Z</time>
      </trkpt>
      <trkpt lat="46.83898" lon="5.89918">
        <ele>652.8</ele>
        <time>2021-07-05T13:35:05Z</time>
      </trkpt>
      <trkpt lat="46.83895" lon="5.89912">
        <ele>653.1</ele>
        <time>2021-07-05T13:35:14Z</time>
      </trkpt>
      <trkpt lat="46.83893" lon="5.89904">
        <ele>652.9</ele>
        <time>2021-07-05T13:35:19Z</time>
      </trkpt>
      <trkpt lat="46.8389" lon="5.89898">
        <ele>652.3</ele>
        <time>2021-07-05T13:35:25Z</time>
      </trkpt>
      <trkpt lat="46.83886" lon="5.89892">
        <ele>652.2</ele>
        <time>2021-07-05T13:36:00Z</time>
      </trkpt>
      <trkpt lat="46.83883" lon="5.89886">
        <ele>652.5</ele>
        <time>2021-07-05T13:36:04Z</time>
      </trkpt>
      <trkpt lat="46.83881" lon="5.8988">
        <ele>652.9</ele>
        <time>2021-07-05T13:36:12Z</time>
      </trkpt>
      <trkpt lat="46.83878" lon="5.89873">
        <ele>653.5</ele>
        <time>2021-07-05T13:36:16Z</time>
      </trkpt>
      <trkpt lat="46.83874" lon="5.89869">
        <ele>654.2</ele>
        <time>2021-07-05T13:36:26Z</time>
      </trkpt>
      <trkpt lat="46.83868" lon="5.89861">
        <ele>654.5</ele>
        <time>2021-07-05T13:36:30Z</time>
      </trkpt>
      <trkpt lat="46.83864" lon="5.89852">
        <ele>655</ele>
        <time>2021-07-05T13:36:39Z</time>
      </trkpt>
      <trkpt lat="46.83856" lon="5.89841">
        <ele>655.2</ele>
        <time>2021-07-05T13:36:43Z</time>
      </trkpt>
      <trkpt lat="46.83848" lon="5.89835">
        <ele>655.5</ele>
        <time>2021-07-05T13:37:03Z</time>
      </trkpt>
      <trkpt lat="46.83837" lon="5.89825">
        <ele>655.3</ele>
        <time>2021-07-05T13:37:07Z</time>
      </trkpt>
      <trkpt lat="46.8383" lon="5.89817">
        <ele>655</ele>
        <time>2021-07-05T13:37:30Z</time>
      </trkpt>
      <trkpt lat="46.83825" lon="5.89809">
        <ele>654.9</ele>
        <time>2021-07-05T13:37:34Z</time>
      </trkpt>
      <trkpt lat="46.83821" lon="5.89802">
        <ele>654.7</ele>
        <time>2021-07-05T13:37:42Z</time>
      </trkpt>
      <trkpt lat="46.83817" lon="5.89793">
        <ele>654.5</ele>
        <time>2021-07-05T13:37:46Z</time>
      </trkpt>
      <trkpt lat="46.83813" lon="5.89785">
        <ele>654.2</ele>
        <time>2021-07-05T13:37:55Z</time>
      </trkpt>
      <trkpt lat="46.83809" lon="5.89775">
        <ele>654</ele>
        <time>2021-07-05T13:37:59Z</time>
      </trkpt>
      <trkpt lat="46.83805" lon="5.89766">
        <ele>653.6</ele>
        <time>2021-07-05T13:38:05Z</time>
      </trkpt>
      <trkpt lat="46.83805" lon="5.89757">
        <ele>652.9</ele>
        <time>2021-07-05T13:38:09Z</time>
      </trkpt>
      <trkpt lat="46.83798" lon="5.89745">
        <ele>651.3</ele>
        <time>2021-07-05T13:38:19Z</time>
      </trkpt>
      <trkpt lat="46.8379" lon="5.89734">
        <ele>650.4</ele>
        <time>2021-07-05T13:38:23Z</time>
      </trkpt>
      <trkpt lat="46.83784" lon="5.89724">
        <ele>650.1</ele>
        <time>2021-07-05T13:38:27Z</time>
      </trkpt>
      <trkpt lat="46.83781" lon="5.89717">
        <ele>650</ele>
        <time>2021-07-05T13:38:31Z</time>
      </trkpt>
      <trkpt lat="46.83779" lon="5.89709">
        <ele>649.6</ele>
        <time>2021-07-05T13:38:35Z</time>
      </trkpt>
      <trkpt lat="46.83775" lon="5.89698">
        <ele>648.9</ele>
        <time>2021-07-05T13:38:39Z</time>
      </trkpt>
      <trkpt lat="46.83771" lon="5.8969">
        <ele>648.1</ele>
        <time>2021-07-05T13:38:45Z</time>
      </trkpt>
      <trkpt lat="46.83768" lon="5.89684">
        <ele>647.4</ele>
        <time>2021-07-05T13:38:49Z</time>
      </trkpt>
      <trkpt lat="46.83764" lon="5.89677">
        <ele>646.2</ele>
        <time>2021-07-05T13:38:56Z</time>
      </trkpt>
      <trkpt lat="46.83758" lon="5.89672">
        <ele>645.2</ele>
        <time>2021-07-05T13:39:00Z</time>
      </trkpt>
      <trkpt lat="46.83754" lon="5.89665">
        <ele>642.7</ele>
        <time>2021-07-05T13:39:11Z</time>
      </trkpt>
      <trkpt lat="46.8375" lon="5.89658">
        <ele>641</ele>
        <time>2021-07-05T13:39:15Z</time>
      </trkpt>
      <trkpt lat="46.83746" lon="5.89651">
        <ele>638.6</ele>
        <time>2021-07-05T13:39:28Z</time>
      </trkpt>
      <trkpt lat="46.8374" lon="5.89645">
        <ele>637.8</ele>
        <time>2021-07-05T13:39:32Z</time>
      </trkpt>
      <trkpt lat="46.83736" lon="5.89638">
        <ele>636.5</ele>
        <time>2021-07-05T13:39:44Z</time>
      </trkpt>
      <trkpt lat="46.83733" lon="5.8963">
        <ele>635.9</ele>
        <time>2021-07-05T13:39:48Z</time>
      </trkpt>
      <trkpt lat="46.83731" lon="5.89622">
        <ele>635.7</ele>
        <time>2021-07-05T13:39:58Z</time>
      </trkpt>
      <trkpt lat="46.83728" lon="5.89614">
        <ele>636</ele>
        <time>2021-07-05T13:40:02Z</time>
      </trkpt>
      <trkpt lat="46.83725" lon="5.89606">
        <ele>636.1</ele>
        <time>2021-07-05T13:40:12Z</time>
      </trkpt>
      <trkpt lat="46.83723" lon="5.89599">
        <ele>635.6</ele>
        <time>2021-07-05T13:40:16Z</time>
      </trkpt>
      <trkpt lat="46.83723" lon="5.89592">
        <ele>633.9</ele>
        <time>2021-07-05T13:40:29Z</time>
      </trkpt>
      <trkpt lat="46.83724" lon="5.89583">
        <ele>629.8</ele>
        <time>2021-07-05T13:40:56Z</time>
      </trkpt>
      <trkpt lat="46.83729" lon="5.89572">
        <ele>627.8</ele>
        <time>2021-07-05T13:41:00Z</time>
      </trkpt>
      <trkpt lat="46.8373" lon="5.89563">
        <ele>625.7</ele>
        <time>2021-07-05T13:41:08Z</time>
      </trkpt>
      <trkpt lat="46.8373" lon="5.8955">
        <ele>625</ele>
        <time>2021-07-05T13:41:12Z</time>
      </trkpt>
      <trkpt lat="46.8373" lon="5.8954">
        <ele>623.8</ele>
        <time>2021-07-05T13:41:17Z</time>
      </trkpt>
      <trkpt lat="46.83726" lon="5.89526">
        <ele>622.1</ele>
        <time>2021-07-05T13:41:21Z</time>
      </trkpt>
      <trkpt lat="46.83723" lon="5.89514">
        <ele>620.5</ele>
        <time>2021-07-05T13:41:27Z</time>
      </trkpt>
      <trkpt lat="46.83718" lon="5.89497">
        <ele>620.2</ele>
        <time>2021-07-05T13:41:31Z</time>
      </trkpt>
      <trkpt lat="46.83715" lon="5.89484">
        <ele>619.8</ele>
        <time>2021-07-05T13:41:38Z</time>
      </trkpt>
      <trkpt lat="46.83712" lon="5.89473">
        <ele>619.7</ele>
        <time>2021-07-05T13:41:42Z</time>
      </trkpt>
      <trkpt lat="46.83711" lon="5.89466">
        <ele>619.5</ele>
        <time>2021-07-05T13:41:47Z</time>
      </trkpt>
      <trkpt lat="46.83708" lon="5.89456">
        <ele>619.5</ele>
        <time>2021-07-05T13:41:51Z</time>
      </trkpt>
      <trkpt lat="46.83705" lon="5.89447">
        <ele>619.8</ele>
        <time>2021-07-05T13:41:58Z</time>
      </trkpt>
      <trkpt lat="46.837" lon="5.89435">
        <ele>620.4</ele>
        <time>2021-07-05T13:42:02Z</time>
      </trkpt>
      <trkpt lat="46.83695" lon="5.89428">
        <ele>621.3</ele>
        <time>2021-07-05T13:42:07Z</time>
      </trkpt>
      <trkpt lat="46.83692" lon="5.8942">
        <ele>621.8</ele>
        <time>2021-07-05T13:42:11Z</time>
      </trkpt>
      <trkpt lat="46.83689" lon="5.89411">
        <ele>622.6</ele>
        <time>2021-07-05T13:42:22Z</time>
      </trkpt>
      <trkpt lat="46.83686" lon="5.89404">
        <ele>623</ele>
        <time>2021-07-05T13:42:26Z</time>
      </trkpt>
      <trkpt lat="46.83684" lon="5.89395">
        <ele>623.4</ele>
        <time>2021-07-05T13:42:31Z</time>
      </trkpt>
      <trkpt lat="46.8368" lon="5.89387">
        <ele>623.3</ele>
        <time>2021-07-05T13:42:35Z</time>
      </trkpt>
      <trkpt lat="46.83681" lon="5.89379">
        <ele>623.1</ele>
        <time>2021-07-05T13:42:42Z</time>
      </trkpt>
      <trkpt lat="46.83682" lon="5.89372">
        <ele>622.9</ele>
        <time>2021-07-05T13:42:46Z</time>
      </trkpt>
      <trkpt lat="46.83681" lon="5.89363">
        <ele>622.9</ele>
        <time>2021-07-05T13:42:59Z</time>
      </trkpt>
      <trkpt lat="46.83677" lon="5.89349">
        <ele>622.8</ele>
        <time>2021-07-05T13:43:03Z</time>
      </trkpt>
      <trkpt lat="46.83675" lon="5.89341">
        <ele>622.7</ele>
        <time>2021-07-05T13:43:07Z</time>
      </trkpt>
      <trkpt lat="46.83673" lon="5.89333">
        <ele>623.1</ele>
        <time>2021-07-05T13:43:13Z</time>
      </trkpt>
      <trkpt lat="46.8367" lon="5.89323">
        <ele>623.2</ele>
        <time>2021-07-05T13:43:17Z</time>
      </trkpt>
      <trkpt lat="46.83666" lon="5.89315">
        <ele>622.7</ele>
        <time>2021-07-05T13:43:26Z</time>
      </trkpt>
      <trkpt lat="46.83661" lon="5.89304">
        <ele>622.5</ele>
        <time>2021-07-05T13:43:30Z</time>
      </trkpt>
      <trkpt lat="46.83657" lon="5.89294">
        <ele>622.9</ele>
        <time>2021-07-05T13:43:37Z</time>
      </trkpt>
      <trkpt lat="46.83655" lon="5.89284">
        <ele>623.8</ele>
        <time>2021-07-05T13:43:41Z</time>
      </trkpt>
      <trkpt lat="46.83649" lon="5.89278">
        <ele>624.8</ele>
        <time>2021-07-05T13:43:51Z</time>
      </trkpt>
      <trkpt lat="46.83644" lon="5.89274">
        <ele>624.5</ele>
        <time>2021-07-05T13:43:55Z</time>
      </trkpt>
      <trkpt lat="46.8364" lon="5.89268">
        <ele>623.7</ele>
        <time>2021-07-05T13:44:03Z</time>
      </trkpt>
      <trkpt lat="46.83636" lon="5.89263">
        <ele>623.3</ele>
        <time>2021-07-05T13:44:07Z</time>
      </trkpt>
      <trkpt lat="46.83631" lon="5.89259">
        <ele>623.2</ele>
        <time>2021-07-05T13:44:15Z</time>
      </trkpt>
      <trkpt lat="46.83626" lon="5.89255">
        <ele>623.3</ele>
        <time>2021-07-05T13:44:19Z</time>
      </trkpt>
      <trkpt lat="46.83623" lon="5.89248">
        <ele>624.6</ele>
        <time>2021-07-05T13:44:28Z</time>
      </trkpt>
      <trkpt lat="46.8362" lon="5.8924">
        <ele>626.3</ele>
        <time>2021-07-05T13:44:32Z</time>
      </trkpt>
      <trkpt lat="46.83617" lon="5.89233">
        <ele>629</ele>
        <time>2021-07-05T13:44:43Z</time>
      </trkpt>
      <trkpt lat="46.83614" lon="5.89225">
        <ele>630.1</ele>
        <time>2021-07-05T13:44:47Z</time>
      </trkpt>
      <trkpt lat="46.83611" lon="5.89217">
        <ele>630.7</ele>
        <time>2021-07-05T13:44:54Z</time>
      </trkpt>
      <trkpt lat="46.83607" lon="5.8921">
        <ele>630.2</ele>
        <time>2021-07-05T13:44:58Z</time>
      </trkpt>
      <trkpt lat="46.83603" lon="5.89202">
        <ele>629</ele>
        <time>2021-07-05T13:45:10Z</time>
      </trkpt>
      <trkpt lat="46.83601" lon="5.89191">
        <ele>628.2</ele>
        <time>2021-07-05T13:45:14Z</time>
      </trkpt>
      <trkpt lat="46.83596" lon="5.89185">
        <ele>627.6</ele>
        <time>2021-07-05T13:45:31Z</time>
      </trkpt>
      <trkpt lat="46.83592" lon="5.89184">
        <ele>628</ele>
        <time>2021-07-05T13:45:35Z</time>
      </trkpt>
      <trkpt lat="46.83587" lon="5.89179">
        <ele>628.7</ele>
        <time>2021-07-05T13:45:41Z</time>
      </trkpt>
      <trkpt lat="46.83584" lon="5.89174">
        <ele>629.7</ele>
        <time>2021-07-05T13:45:52Z</time>
      </trkpt>
      <trkpt lat="46.83578" lon="5.89173">
        <ele>629.4</ele>
        <time>2021-07-05T13:46:02Z</time>
      </trkpt>
      <trkpt lat="46.83569" lon="5.8917">
        <ele>628.7</ele>
        <time>2021-07-05T13:46:06Z</time>
      </trkpt>
      <trkpt lat="46.83561" lon="5.89169">
        <ele>627.9</ele>
        <time>2021-07-05T13:46:10Z</time>
      </trkpt>
      <trkpt lat="46.83556" lon="5.89168">
        <ele>627.3</ele>
        <time>2021-07-05T13:46:14Z</time>
      </trkpt>
      <trkpt lat="46.8355" lon="5.89168">
        <ele>626.5</ele>
        <time>2021-07-05T13:46:22Z</time>
      </trkpt>
      <trkpt lat="46.83546" lon="5.89171">
        <ele>626.1</ele>
        <time>2021-07-05T13:46:26Z</time>
      </trkpt>
      <trkpt lat="46.8354" lon="5.89171">
        <ele>625.4</ele>
        <time>2021-07-05T13:46:36Z</time>
      </trkpt>
      <trkpt lat="46.8353" lon="5.8917">
        <ele>625.1</ele>
        <time>2021-07-05T13:46:40Z</time>
      </trkpt>
      <trkpt lat="46.83523" lon="5.89164">
        <ele>624.9</ele>
        <time>2021-07-05T13:46:49Z</time>
      </trkpt>
      <trkpt lat="46.83517" lon="5.89158">
        <ele>625</ele>
        <time>2021-07-05T13:46:53Z</time>
      </trkpt>
      <trkpt lat="46.83509" lon="5.89152">
        <ele>625.2</ele>
        <time>2021-07-05T13:46:57Z</time>
      </trkpt>
      <trkpt lat="46.83499" lon="5.89147">
        <ele>625.4</ele>
        <time>2021-07-05T13:47:01Z</time>
      </trkpt>
      <trkpt lat="46.83493" lon="5.89142">
        <ele>625.7</ele>
        <time>2021-07-05T13:47:08Z</time>
      </trkpt>
      <trkpt lat="46.83489" lon="5.89131">
        <ele>625.9</ele>
        <time>2021-07-05T13:47:12Z</time>
      </trkpt>
      <trkpt lat="46.83483" lon="5.89128">
        <ele>625.9</ele>
        <time>2021-07-05T13:47:20Z</time>
      </trkpt>
      <trkpt lat="46.83479" lon="5.89126">
        <ele>625.3</ele>
        <time>2021-07-05T13:47:24Z</time>
      </trkpt>
      <trkpt lat="46.83474" lon="5.89126">
        <ele>624.3</ele>
        <time>2021-07-05T13:47:34Z</time>
      </trkpt>
      <trkpt lat="46.83469" lon="5.89124">
        <ele>623.8</ele>
        <time>2021-07-05T13:47:38Z</time>
      </trkpt>
      <trkpt lat="46.83464" lon="5.89122">
        <ele>623.2</ele>
        <time>2021-07-05T13:47:57Z</time>
      </trkpt>
      <trkpt lat="46.83457" lon="5.89121">
        <ele>623.3</ele>
        <time>2021-07-05T13:48:01Z</time>
      </trkpt>
      <trkpt lat="46.83451" lon="5.8912">
        <ele>623.8</ele>
        <time>2021-07-05T13:48:07Z</time>
      </trkpt>
      <trkpt lat="46.83445" lon="5.89113">
        <ele>624.6</ele>
        <time>2021-07-05T13:48:11Z</time>
      </trkpt>
      <trkpt lat="46.83442" lon="5.89108">
        <ele>625.7</ele>
        <time>2021-07-05T13:48:18Z</time>
      </trkpt>
      <trkpt lat="46.83438" lon="5.89103">
        <ele>626.1</ele>
        <time>2021-07-05T13:48:22Z</time>
      </trkpt>
      <trkpt lat="46.83433" lon="5.89096">
        <ele>626.6</ele>
        <time>2021-07-05T13:48:34Z</time>
      </trkpt>
      <trkpt lat="46.83426" lon="5.89091">
        <ele>627.2</ele>
        <time>2021-07-05T13:48:38Z</time>
      </trkpt>
      <trkpt lat="46.83421" lon="5.89086">
        <ele>627.8</ele>
        <time>2021-07-05T13:48:42Z</time>
      </trkpt>
      <trkpt lat="46.83419" lon="5.8908">
        <ele>628.2</ele>
        <time>2021-07-05T13:48:46Z</time>
      </trkpt>
      <trkpt lat="46.83414" lon="5.89072">
        <ele>628.8</ele>
        <time>2021-07-05T13:48:52Z</time>
      </trkpt>
      <trkpt lat="46.8341" lon="5.89065">
        <ele>629.2</ele>
        <time>2021-07-05T13:48:56Z</time>
      </trkpt>
      <trkpt lat="46.83406" lon="5.8906">
        <ele>629.5</ele>
        <time>2021-07-05T13:49:00Z</time>
      </trkpt>
      <trkpt lat="46.83402" lon="5.89057">
        <ele>630</ele>
        <time>2021-07-05T13:49:04Z</time>
      </trkpt>
      <trkpt lat="46.83398" lon="5.89051">
        <ele>630.2</ele>
        <time>2021-07-05T13:49:10Z</time>
      </trkpt>
      <trkpt lat="46.83393" lon="5.89043">
        <ele>630.2</ele>
        <time>2021-07-05T13:49:14Z</time>
      </trkpt>
      <trkpt lat="46.83389" lon="5.89037">
        <ele>630.5</ele>
        <time>2021-07-05T13:49:18Z</time>
      </trkpt>
      <trkpt lat="46.83385" lon="5.89033">
        <ele>630.7</ele>
        <time>2021-07-05T13:49:22Z</time>
      </trkpt>
      <trkpt lat="46.8338" lon="5.8903">
        <ele>631.1</ele>
        <time>2021-07-05T13:49:26Z</time>
      </trkpt>
      <trkpt lat="46.83373" lon="5.89028">
        <ele>632.1</ele>
        <time>2021-07-05T13:49:40Z</time>
      </trkpt>
      <trkpt lat="46.83368" lon="5.89027">
        <ele>632.7</ele>
        <time>2021-07-05T13:49:44Z</time>
      </trkpt>
      <trkpt lat="46.83364" lon="5.89022">
        <ele>633.3</ele>
        <time>2021-07-05T13:49:57Z</time>
      </trkpt>
      <trkpt lat="46.83362" lon="5.89016">
        <ele>633.5</ele>
        <time>2021-07-05T13:50:01Z</time>
      </trkpt>
      <trkpt lat="46.83363" lon="5.89024">
        <ele>640.2</ele>
        <time>2021-07-05T13:50:47Z</time>
      </trkpt>
      <trkpt lat="46.83368" lon="5.89031">
        <ele>651.1</ele>
        <time>2021-07-05T13:52:16Z</time>
      </trkpt>
      <trkpt lat="46.83374" lon="5.89033">
        <ele>651</ele>
        <time>2021-07-05T13:52:20Z</time>
      </trkpt>
      <trkpt lat="46.8338" lon="5.89035">
        <ele>651.3</ele>
        <time>2021-07-05T13:52:27Z</time>
      </trkpt>
      <trkpt lat="46.83387" lon="5.89035">
        <ele>651.4</ele>
        <time>2021-07-05T13:52:31Z</time>
      </trkpt>
      <trkpt lat="46.83393" lon="5.89034">
        <ele>651.6</ele>
        <time>2021-07-05T13:52:37Z</time>
      </trkpt>
      <trkpt lat="46.83398" lon="5.89032">
        <ele>651.6</ele>
        <time>2021-07-05T13:52:41Z</time>
      </trkpt>
      <trkpt lat="46.83404" lon="5.89031">
        <ele>651.4</ele>
        <time>2021-07-05T13:52:52Z</time>
      </trkpt>
      <trkpt lat="46.8341" lon="5.89031">
        <ele>651.4</ele>
        <time>2021-07-05T13:52:56Z</time>
      </trkpt>
      <trkpt lat="46.83414" lon="5.89032">
        <ele>651.8</ele>
        <time>2021-07-05T13:53:01Z</time>
      </trkpt>
      <trkpt lat="46.8342" lon="5.89031">
        <ele>652.4</ele>
        <time>2021-07-05T13:53:16Z</time>
      </trkpt>
      <trkpt lat="46.83423" lon="5.89026">
        <ele>652.6</ele>
        <time>2021-07-05T13:53:20Z</time>
      </trkpt>
      <trkpt lat="46.83428" lon="5.89019">
        <ele>652.8</ele>
        <time>2021-07-05T13:53:27Z</time>
      </trkpt>
      <trkpt lat="46.83433" lon="5.89012">
        <ele>653</ele>
        <time>2021-07-05T13:53:31Z</time>
      </trkpt>
      <trkpt lat="46.83436" lon="5.89006">
        <ele>653.3</ele>
        <time>2021-07-05T13:53:37Z</time>
      </trkpt>
      <trkpt lat="46.8344" lon="5.89">
        <ele>653.5</ele>
        <time>2021-07-05T13:53:41Z</time>
      </trkpt>
      <trkpt lat="46.83446" lon="5.88996">
        <ele>653.9</ele>
        <time>2021-07-05T13:53:45Z</time>
      </trkpt>
      <trkpt lat="46.83452" lon="5.88994">
        <ele>654.6</ele>
        <time>2021-07-05T13:53:49Z</time>
      </trkpt>
      <trkpt lat="46.83457" lon="5.88993">
        <ele>655.5</ele>
        <time>2021-07-05T13:53:58Z</time>
      </trkpt>
      <trkpt lat="46.83463" lon="5.88988">
        <ele>656.1</ele>
        <time>2021-07-05T13:54:02Z</time>
      </trkpt>
      <trkpt lat="46.83468" lon="5.88982">
        <ele>656.7</ele>
        <time>2021-07-05T13:54:09Z</time>
      </trkpt>
      <trkpt lat="46.83477" lon="5.88977">
        <ele>656.9</ele>
        <time>2021-07-05T13:54:13Z</time>
      </trkpt>
      <trkpt lat="46.83483" lon="5.8897">
        <ele>657.2</ele>
        <time>2021-07-05T13:54:17Z</time>
      </trkpt>
      <trkpt lat="46.83488" lon="5.88963">
        <ele>656.8</ele>
        <time>2021-07-05T13:54:28Z</time>
      </trkpt>
      <trkpt lat="46.83491" lon="5.88955">
        <ele>656.1</ele>
        <time>2021-07-05T13:54:32Z</time>
      </trkpt>
      <trkpt lat="46.83492" lon="5.88947">
        <ele>654.2</ele>
        <time>2021-07-05T13:54:48Z</time>
      </trkpt>
      <trkpt lat="46.83492" lon="5.88938">
        <ele>653.4</ele>
        <time>2021-07-05T13:54:52Z</time>
      </trkpt>
      <trkpt lat="46.83494" lon="5.88929">
        <ele>652.5</ele>
        <time>2021-07-05T13:55:01Z</time>
      </trkpt>
      <trkpt lat="46.83496" lon="5.88919">
        <ele>652.2</ele>
        <time>2021-07-05T13:55:05Z</time>
      </trkpt>
      <trkpt lat="46.83501" lon="5.88913">
        <ele>651.9</ele>
        <time>2021-07-05T13:55:11Z</time>
      </trkpt>
      <trkpt lat="46.83506" lon="5.88908">
        <ele>651.7</ele>
        <time>2021-07-05T13:55:15Z</time>
      </trkpt>
      <trkpt lat="46.83511" lon="5.88902">
        <ele>651.6</ele>
        <time>2021-07-05T13:55:21Z</time>
      </trkpt>
      <trkpt lat="46.83516" lon="5.88897">
        <ele>651.3</ele>
        <time>2021-07-05T13:55:25Z</time>
      </trkpt>
      <trkpt lat="46.83521" lon="5.8889">
        <ele>650.9</ele>
        <time>2021-07-05T13:55:33Z</time>
      </trkpt>
      <trkpt lat="46.83525" lon="5.88884">
        <ele>650.6</ele>
        <time>2021-07-05T13:55:37Z</time>
      </trkpt>
      <trkpt lat="46.8353" lon="5.8888">
        <ele>650.1</ele>
        <time>2021-07-05T13:55:50Z</time>
      </trkpt>
      <trkpt lat="46.83535" lon="5.88877">
        <ele>650</ele>
        <time>2021-07-05T13:55:54Z</time>
      </trkpt>
      <trkpt lat="46.8354" lon="5.88871">
        <ele>649.9</ele>
        <time>2021-07-05T13:56:08Z</time>
      </trkpt>
      <trkpt lat="46.83544" lon="5.88866">
        <ele>649.9</ele>
        <time>2021-07-05T13:56:12Z</time>
      </trkpt>
      <trkpt lat="46.83548" lon="5.88861">
        <ele>650</ele>
        <time>2021-07-05T13:56:16Z</time>
      </trkpt>
      <trkpt lat="46.83553" lon="5.88853">
        <ele>649.9</ele>
        <time>2021-07-05T13:56:20Z</time>
      </trkpt>
      <trkpt lat="46.83558" lon="5.88846">
        <ele>649.9</ele>
        <time>2021-07-05T13:56:26Z</time>
      </trkpt>
      <trkpt lat="46.83564" lon="5.88837">
        <ele>649.8</ele>
        <time>2021-07-05T13:56:30Z</time>
      </trkpt>
      <trkpt lat="46.83569" lon="5.8883">
        <ele>649.7</ele>
        <time>2021-07-05T13:56:38Z</time>
      </trkpt>
      <trkpt lat="46.83573" lon="5.88822">
        <ele>649.6</ele>
        <time>2021-07-05T13:56:42Z</time>
      </trkpt>
      <trkpt lat="46.83577" lon="5.88815">
        <ele>649.4</ele>
        <time>2021-07-05T13:56:51Z</time>
      </trkpt>
      <trkpt lat="46.83582" lon="5.88807">
        <ele>649.3</ele>
        <time>2021-07-05T13:56:55Z</time>
      </trkpt>
      <trkpt lat="46.83586" lon="5.88799">
        <ele>649.1</ele>
        <time>2021-07-05T13:57:03Z</time>
      </trkpt>
      <trkpt lat="46.8359" lon="5.88792">
        <ele>649</ele>
        <time>2021-07-05T13:57:07Z</time>
      </trkpt>
      <trkpt lat="46.83594" lon="5.88785">
        <ele>649</ele>
        <time>2021-07-05T13:57:18Z</time>
      </trkpt>
      <trkpt lat="46.83597" lon="5.88778">
        <ele>649.2</ele>
        <time>2021-07-05T13:57:22Z</time>
      </trkpt>
      <trkpt lat="46.83595" lon="5.88771">
        <ele>648.8</ele>
        <time>2021-07-05T13:57:39Z</time>
      </trkpt>
      <trkpt lat="46.83593" lon="5.88765">
        <ele>647.9</ele>
        <time>2021-07-05T13:57:43Z</time>
      </trkpt>
      <trkpt lat="46.83597" lon="5.88761">
        <ele>648.6</ele>
        <time>2021-07-05T13:59:14Z</time>
      </trkpt>
      <trkpt lat="46.83603" lon="5.88765">
        <ele>650.1</ele>
        <time>2021-07-05T13:59:28Z</time>
      </trkpt>
      <trkpt lat="46.83607" lon="5.88769">
        <ele>650.1</ele>
        <time>2021-07-05T13:59:33Z</time>
      </trkpt>
      <trkpt lat="46.83602" lon="5.88766">
        <ele>649.5</ele>
        <time>2021-07-05T14:00:11Z</time>
      </trkpt>
      <trkpt lat="46.83597" lon="5.88764">
        <ele>649.1</ele>
        <time>2021-07-05T14:00:16Z</time>
      </trkpt>
      <trkpt lat="46.83602" lon="5.88759">
        <ele>649.4</ele>
        <time>2021-07-05T14:00:38Z</time>
      </trkpt>
      <trkpt lat="46.83605" lon="5.88755">
        <ele>650.2</ele>
        <time>2021-07-05T14:00:43Z</time>
      </trkpt>
      <trkpt lat="46.8361" lon="5.8875">
        <ele>650.9</ele>
        <time>2021-07-05T14:00:55Z</time>
      </trkpt>
      <trkpt lat="46.83615" lon="5.88744">
        <ele>651.1</ele>
        <time>2021-07-05T14:00:59Z</time>
      </trkpt>
      <trkpt lat="46.8362" lon="5.88737">
        <ele>651</ele>
        <time>2021-07-05T14:01:24Z</time>
      </trkpt>
      <trkpt lat="46.83626" lon="5.88729">
        <ele>650.6</ele>
        <time>2021-07-05T14:01:28Z</time>
      </trkpt>
      <trkpt lat="46.8363" lon="5.88725">
        <ele>650.1</ele>
        <time>2021-07-05T14:01:32Z</time>
      </trkpt>
      <trkpt lat="46.83634" lon="5.88718">
        <ele>649.2</ele>
        <time>2021-07-05T14:01:39Z</time>
      </trkpt>
      <trkpt lat="46.83639" lon="5.88711">
        <ele>648.5</ele>
        <time>2021-07-05T14:01:43Z</time>
      </trkpt>
      <trkpt lat="46.83645" lon="5.88707">
        <ele>647.9</ele>
        <time>2021-07-05T14:01:47Z</time>
      </trkpt>
      <trkpt lat="46.83649" lon="5.887">
        <ele>646.8</ele>
        <time>2021-07-05T14:02:02Z</time>
      </trkpt>
      <trkpt lat="46.83656" lon="5.88692">
        <ele>646.3</ele>
        <time>2021-07-05T14:02:06Z</time>
      </trkpt>
      <trkpt lat="46.83662" lon="5.88683">
        <ele>645.5</ele>
        <time>2021-07-05T14:02:20Z</time>
      </trkpt>
      <trkpt lat="46.83666" lon="5.88676">
        <ele>645</ele>
        <time>2021-07-05T14:02:24Z</time>
      </trkpt>
      <trkpt lat="46.83669" lon="5.88669">
        <ele>644.6</ele>
        <time>2021-07-05T14:02:28Z</time>
      </trkpt>
      <trkpt lat="46.83677" lon="5.88659">
        <ele>644</ele>
        <time>2021-07-05T14:02:32Z</time>
      </trkpt>
      <trkpt lat="46.83681" lon="5.88651">
        <ele>643.2</ele>
        <time>2021-07-05T14:02:40Z</time>
      </trkpt>
      <trkpt lat="46.83687" lon="5.88643">
        <ele>642.5</ele>
        <time>2021-07-05T14:02:44Z</time>
      </trkpt>
      <trkpt lat="46.83693" lon="5.88638">
        <ele>641.8</ele>
        <time>2021-07-05T14:02:50Z</time>
      </trkpt>
      <trkpt lat="46.83698" lon="5.88633">
        <ele>641.4</ele>
        <time>2021-07-05T14:02:54Z</time>
      </trkpt>
      <trkpt lat="46.83702" lon="5.88626">
        <ele>640.9</ele>
        <time>2021-07-05T14:03:06Z</time>
      </trkpt>
      <trkpt lat="46.83706" lon="5.88622">
        <ele>640.8</ele>
        <time>2021-07-05T14:03:10Z</time>
      </trkpt>
      <trkpt lat="46.8371" lon="5.88618">
        <ele>640.8</ele>
        <time>2021-07-05T14:03:17Z</time>
      </trkpt>
      <trkpt lat="46.83716" lon="5.88608">
        <ele>640.7</ele>
        <time>2021-07-05T14:03:29Z</time>
      </trkpt>
      <trkpt lat="46.83721" lon="5.886">
        <ele>640.6</ele>
        <time>2021-07-05T14:03:33Z</time>
      </trkpt>
      <trkpt lat="46.83726" lon="5.88592">
        <ele>640.4</ele>
        <time>2021-07-05T14:03:41Z</time>
      </trkpt>
      <trkpt lat="46.83732" lon="5.88583">
        <ele>640.1</ele>
        <time>2021-07-05T14:03:45Z</time>
      </trkpt>
      <trkpt lat="46.83735" lon="5.88575">
        <ele>639.4</ele>
        <time>2021-07-05T14:03:58Z</time>
      </trkpt>
      <trkpt lat="46.83738" lon="5.88564">
        <ele>638.8</ele>
        <time>2021-07-05T14:04:02Z</time>
      </trkpt>
      <trkpt lat="46.83742" lon="5.88557">
        <ele>638.1</ele>
        <time>2021-07-05T14:04:07Z</time>
      </trkpt>
      <trkpt lat="46.83746" lon="5.88551">
        <ele>637.6</ele>
        <time>2021-07-05T14:04:11Z</time>
      </trkpt>
      <trkpt lat="46.83751" lon="5.88545">
        <ele>636.8</ele>
        <time>2021-07-05T14:04:19Z</time>
      </trkpt>
      <trkpt lat="46.83759" lon="5.88538">
        <ele>636.2</ele>
        <time>2021-07-05T14:04:23Z</time>
      </trkpt>
      <trkpt lat="46.83766" lon="5.88532">
        <ele>635.6</ele>
        <time>2021-07-05T14:04:27Z</time>
      </trkpt>
      <trkpt lat="46.83771" lon="5.88524">
        <ele>634.7</ele>
        <time>2021-07-05T14:04:37Z</time>
      </trkpt>
      <trkpt lat="46.83775" lon="5.88518">
        <ele>634.1</ele>
        <time>2021-07-05T14:04:41Z</time>
      </trkpt>
      <trkpt lat="46.83779" lon="5.88513">
        <ele>633.9</ele>
        <time>2021-07-05T14:04:46Z</time>
      </trkpt>
      <trkpt lat="46.83785" lon="5.88508">
        <ele>634.1</ele>
        <time>2021-07-05T14:04:53Z</time>
      </trkpt>
      <trkpt lat="46.83789" lon="5.88504">
        <ele>634.2</ele>
        <time>2021-07-05T14:04:57Z</time>
      </trkpt>
      <trkpt lat="46.83794" lon="5.88499">
        <ele>634.3</ele>
        <time>2021-07-05T14:05:15Z</time>
      </trkpt>
      <trkpt lat="46.838" lon="5.88491">
        <ele>634</ele>
        <time>2021-07-05T14:05:19Z</time>
      </trkpt>
      <trkpt lat="46.83805" lon="5.88481">
        <ele>633.4</ele>
        <time>2021-07-05T14:05:32Z</time>
      </trkpt>
      <trkpt lat="46.83809" lon="5.88472">
        <ele>633.1</ele>
        <time>2021-07-05T14:05:36Z</time>
      </trkpt>
      <trkpt lat="46.83813" lon="5.88464">
        <ele>632.8</ele>
        <time>2021-07-05T14:05:41Z</time>
      </trkpt>
      <trkpt lat="46.83816" lon="5.88456">
        <ele>632.8</ele>
        <time>2021-07-05T14:05:45Z</time>
      </trkpt>
      <trkpt lat="46.8382" lon="5.88448">
        <ele>632.7</ele>
        <time>2021-07-05T14:05:52Z</time>
      </trkpt>
      <trkpt lat="46.83825" lon="5.88438">
        <ele>632.7</ele>
        <time>2021-07-05T14:05:56Z</time>
      </trkpt>
      <trkpt lat="46.83829" lon="5.8843">
        <ele>632.4</ele>
        <time>2021-07-05T14:06:10Z</time>
      </trkpt>
      <trkpt lat="46.83835" lon="5.88422">
        <ele>631.7</ele>
        <time>2021-07-05T14:06:14Z</time>
      </trkpt>
      <trkpt lat="46.8384" lon="5.88418">
        <ele>630.7</ele>
        <time>2021-07-05T14:06:18Z</time>
      </trkpt>
      <trkpt lat="46.83844" lon="5.88413">
        <ele>629.6</ele>
        <time>2021-07-05T14:06:22Z</time>
      </trkpt>
      <trkpt lat="46.83849" lon="5.88408">
        <ele>627.9</ele>
        <time>2021-07-05T14:06:30Z</time>
      </trkpt>
      <trkpt lat="46.83855" lon="5.88401">
        <ele>626.7</ele>
        <time>2021-07-05T14:06:34Z</time>
      </trkpt>
      <trkpt lat="46.83859" lon="5.88395">
        <ele>625.6</ele>
        <time>2021-07-05T14:06:38Z</time>
      </trkpt>
      <trkpt lat="46.83867" lon="5.88389">
        <ele>624.8</ele>
        <time>2021-07-05T14:06:42Z</time>
      </trkpt>
      <trkpt lat="46.83872" lon="5.88383">
        <ele>623.9</ele>
        <time>2021-07-05T14:06:49Z</time>
      </trkpt>
      <trkpt lat="46.83877" lon="5.88377">
        <ele>623.5</ele>
        <time>2021-07-05T14:06:53Z</time>
      </trkpt>
      <trkpt lat="46.8388" lon="5.8837">
        <ele>623.2</ele>
        <time>2021-07-05T14:06:58Z</time>
      </trkpt>
      <trkpt lat="46.83884" lon="5.88362">
        <ele>623.1</ele>
        <time>2021-07-05T14:07:02Z</time>
      </trkpt>
      <trkpt lat="46.83886" lon="5.88354">
        <ele>623.2</ele>
        <time>2021-07-05T14:07:10Z</time>
      </trkpt>
      <trkpt lat="46.83891" lon="5.88346">
        <ele>623.4</ele>
        <time>2021-07-05T14:07:14Z</time>
      </trkpt>
      <trkpt lat="46.83894" lon="5.88338">
        <ele>624</ele>
        <time>2021-07-05T14:07:22Z</time>
      </trkpt>
      <trkpt lat="46.839" lon="5.88331">
        <ele>624.6</ele>
        <time>2021-07-05T14:07:26Z</time>
      </trkpt>
      <trkpt lat="46.83905" lon="5.88327">
        <ele>625</ele>
        <time>2021-07-05T14:07:30Z</time>
      </trkpt>
      <trkpt lat="46.83911" lon="5.88319">
        <ele>626.1</ele>
        <time>2021-07-05T14:07:42Z</time>
      </trkpt>
      <trkpt lat="46.83915" lon="5.88312">
        <ele>626.8</ele>
        <time>2021-07-05T14:07:46Z</time>
      </trkpt>
      <trkpt lat="46.83919" lon="5.88304">
        <ele>627.3</ele>
        <time>2021-07-05T14:07:55Z</time>
      </trkpt>
      <trkpt lat="46.83923" lon="5.88295">
        <ele>627.3</ele>
        <time>2021-07-05T14:07:59Z</time>
      </trkpt>
      <trkpt lat="46.83927" lon="5.88289">
        <ele>627.5</ele>
        <time>2021-07-05T14:08:05Z</time>
      </trkpt>
      <trkpt lat="46.83931" lon="5.88284">
        <ele>627.8</ele>
        <time>2021-07-05T14:08:09Z</time>
      </trkpt>
      <trkpt lat="46.83936" lon="5.88279">
        <ele>628.1</ele>
        <time>2021-07-05T14:08:16Z</time>
      </trkpt>
      <trkpt lat="46.8394" lon="5.88273">
        <ele>628.5</ele>
        <time>2021-07-05T14:08:20Z</time>
      </trkpt>
      <trkpt lat="46.83944" lon="5.88267">
        <ele>629.1</ele>
        <time>2021-07-05T14:08:36Z</time>
      </trkpt>
      <trkpt lat="46.83948" lon="5.88261">
        <ele>629.3</ele>
        <time>2021-07-05T14:08:40Z</time>
      </trkpt>
      <trkpt lat="46.83952" lon="5.88254">
        <ele>629.5</ele>
        <time>2021-07-05T14:08:52Z</time>
      </trkpt>
      <trkpt lat="46.83957" lon="5.88246">
        <ele>629.5</ele>
        <time>2021-07-05T14:08:56Z</time>
      </trkpt>
      <trkpt lat="46.83961" lon="5.88238">
        <ele>629.5</ele>
        <time>2021-07-05T14:09:06Z</time>
      </trkpt>
      <trkpt lat="46.83965" lon="5.88231">
        <ele>629.6</ele>
        <time>2021-07-05T14:09:10Z</time>
      </trkpt>
      <trkpt lat="46.8397" lon="5.88226">
        <ele>629.8</ele>
        <time>2021-07-05T14:09:19Z</time>
      </trkpt>
      <trkpt lat="46.83975" lon="5.88221">
        <ele>630</ele>
        <time>2021-07-05T14:09:23Z</time>
      </trkpt>
      <trkpt lat="46.8398" lon="5.88214">
        <ele>630.3</ele>
        <time>2021-07-05T14:09:29Z</time>
      </trkpt>
      <trkpt lat="46.83984" lon="5.88205">
        <ele>630.8</ele>
        <time>2021-07-05T14:09:33Z</time>
      </trkpt>
      <trkpt lat="46.83988" lon="5.882">
        <ele>631.5</ele>
        <time>2021-07-05T14:09:37Z</time>
      </trkpt>
      <trkpt lat="46.83992" lon="5.88195">
        <ele>631.9</ele>
        <time>2021-07-05T14:09:41Z</time>
      </trkpt>
      <trkpt lat="46.84" lon="5.88182">
        <ele>632.2</ele>
        <time>2021-07-05T14:09:45Z</time>
      </trkpt>
      <trkpt lat="46.84004" lon="5.88171">
        <ele>632.7</ele>
        <time>2021-07-05T14:09:49Z</time>
      </trkpt>
      <trkpt lat="46.84005" lon="5.88161">
        <ele>633.8</ele>
        <time>2021-07-05T14:09:53Z</time>
      </trkpt>
      <trkpt lat="46.84006" lon="5.88154">
        <ele>635.9</ele>
        <time>2021-07-05T14:09:58Z</time>
      </trkpt>
      <trkpt lat="46.84009" lon="5.88148">
        <ele>637.9</ele>
        <time>2021-07-05T14:10:03Z</time>
      </trkpt>
      <trkpt lat="46.84013" lon="5.88145">
        <ele>640.6</ele>
        <time>2021-07-05T14:10:09Z</time>
      </trkpt>
      <trkpt lat="46.84015" lon="5.88139">
        <ele>643.7</ele>
        <time>2021-07-05T14:10:15Z</time>
      </trkpt>
      <trkpt lat="46.84019" lon="5.88132">
        <ele>646.6</ele>
        <time>2021-07-05T14:10:19Z</time>
      </trkpt>
      <trkpt lat="46.84023" lon="5.88123">
        <ele>654.3</ele>
        <time>2021-07-05T14:11:02Z</time>
      </trkpt>
      <trkpt lat="46.84026" lon="5.88116">
        <ele>658.2</ele>
        <time>2021-07-05T14:11:06Z</time>
      </trkpt>
      <trkpt lat="46.8403" lon="5.88109">
        <ele>661.8</ele>
        <time>2021-07-05T14:11:11Z</time>
      </trkpt>
      <trkpt lat="46.84034" lon="5.88104">
        <ele>664.1</ele>
        <time>2021-07-05T14:11:15Z</time>
      </trkpt>
      <trkpt lat="46.84038" lon="5.88098">
        <ele>666.9</ele>
        <time>2021-07-05T14:11:24Z</time>
      </trkpt>
      <trkpt lat="46.84045" lon="5.88093">
        <ele>668.1</ele>
        <time>2021-07-05T14:11:28Z</time>
      </trkpt>
      <trkpt lat="46.84051" lon="5.8809">
        <ele>670</ele>
        <time>2021-07-05T14:11:40Z</time>
      </trkpt>
      <trkpt lat="46.84055" lon="5.88086">
        <ele>670.8</ele>
        <time>2021-07-05T14:11:44Z</time>
      </trkpt>
      <trkpt lat="46.84061" lon="5.88085">
        <ele>671.8</ele>
        <time>2021-07-05T14:11:57Z</time>
      </trkpt>
      <trkpt lat="46.84067" lon="5.88083">
        <ele>671.9</ele>
        <time>2021-07-05T14:12:01Z</time>
      </trkpt>
      <trkpt lat="46.84072" lon="5.88078">
        <ele>672.2</ele>
        <time>2021-07-05T14:12:08Z</time>
      </trkpt>
      <trkpt lat="46.84076" lon="5.88073">
        <ele>672.6</ele>
        <time>2021-07-05T14:12:12Z</time>
      </trkpt>
      <trkpt lat="46.84082" lon="5.88069">
        <ele>673.2</ele>
        <time>2021-07-05T14:12:18Z</time>
      </trkpt>
      <trkpt lat="46.84087" lon="5.88065">
        <ele>673.6</ele>
        <time>2021-07-05T14:12:22Z</time>
      </trkpt>
      <trkpt lat="46.84091" lon="5.8806">
        <ele>673.9</ele>
        <time>2021-07-05T14:12:28Z</time>
      </trkpt>
      <trkpt lat="46.84094" lon="5.88054">
        <ele>674.1</ele>
        <time>2021-07-05T14:12:32Z</time>
      </trkpt>
      <trkpt lat="46.84097" lon="5.88047">
        <ele>674.6</ele>
        <time>2021-07-05T14:12:40Z</time>
      </trkpt>
      <trkpt lat="46.841" lon="5.88042">
        <ele>674.4</ele>
        <time>2021-07-05T14:12:45Z</time>
      </trkpt>
      <trkpt lat="46.84104" lon="5.88036">
        <ele>673.8</ele>
        <time>2021-07-05T14:12:50Z</time>
      </trkpt>
      <trkpt lat="46.84112" lon="5.8803">
        <ele>672.8</ele>
        <time>2021-07-05T14:12:54Z</time>
      </trkpt>
      <trkpt lat="46.84116" lon="5.88026">
        <ele>671.7</ele>
        <time>2021-07-05T14:12:58Z</time>
      </trkpt>
      <trkpt lat="46.84121" lon="5.88022">
        <ele>670.4</ele>
        <time>2021-07-05T14:13:04Z</time>
      </trkpt>
      <trkpt lat="46.84128" lon="5.88017">
        <ele>669.2</ele>
        <time>2021-07-05T14:13:08Z</time>
      </trkpt>
      <trkpt lat="46.84133" lon="5.88007">
        <ele>667.1</ele>
        <time>2021-07-05T14:13:18Z</time>
      </trkpt>
      <trkpt lat="46.84135" lon="5.87999">
        <ele>666.3</ele>
        <time>2021-07-05T14:13:22Z</time>
      </trkpt>
      <trkpt lat="46.84138" lon="5.87992">
        <ele>665.4</ele>
        <time>2021-07-05T14:13:28Z</time>
      </trkpt>
      <trkpt lat="46.84141" lon="5.87983">
        <ele>664.9</ele>
        <time>2021-07-05T14:13:32Z</time>
      </trkpt>
      <trkpt lat="46.84147" lon="5.87979">
        <ele>664.2</ele>
        <time>2021-07-05T14:13:43Z</time>
      </trkpt>
      <trkpt lat="46.84151" lon="5.87974">
        <ele>663.9</ele>
        <time>2021-07-05T14:13:47Z</time>
      </trkpt>
      <trkpt lat="46.84152" lon="5.87967">
        <ele>663.6</ele>
        <time>2021-07-05T14:13:53Z</time>
      </trkpt>
      <trkpt lat="46.84153" lon="5.87958">
        <ele>663.5</ele>
        <time>2021-07-05T14:13:57Z</time>
      </trkpt>
      <trkpt lat="46.84157" lon="5.87948">
        <ele>663.5</ele>
        <time>2021-07-05T14:14:13Z</time>
      </trkpt>
      <trkpt lat="46.8416" lon="5.87942">
        <ele>663.6</ele>
        <time>2021-07-05T14:14:17Z</time>
      </trkpt>
      <trkpt lat="46.84163" lon="5.87936">
        <ele>664</ele>
        <time>2021-07-05T14:14:26Z</time>
      </trkpt>
      <trkpt lat="46.84166" lon="5.87928">
        <ele>664.3</ele>
        <time>2021-07-05T14:14:30Z</time>
      </trkpt>
      <trkpt lat="46.84169" lon="5.87921">
        <ele>664.6</ele>
        <time>2021-07-05T14:14:37Z</time>
      </trkpt>
      <trkpt lat="46.84172" lon="5.87912">
        <ele>664.6</ele>
        <time>2021-07-05T14:14:41Z</time>
      </trkpt>
      <trkpt lat="46.84175" lon="5.87904">
        <ele>664.4</ele>
        <time>2021-07-05T14:14:45Z</time>
      </trkpt>
      <trkpt lat="46.84179" lon="5.87898">
        <ele>664.1</ele>
        <time>2021-07-05T14:14:49Z</time>
      </trkpt>
      <trkpt lat="46.84184" lon="5.87893">
        <ele>663.5</ele>
        <time>2021-07-05T14:14:55Z</time>
      </trkpt>
      <trkpt lat="46.84193" lon="5.87884">
        <ele>662.7</ele>
        <time>2021-07-05T14:14:59Z</time>
      </trkpt>
      <trkpt lat="46.84199" lon="5.87876">
        <ele>661.8</ele>
        <time>2021-07-05T14:15:03Z</time>
      </trkpt>
      <trkpt lat="46.84202" lon="5.87871">
        <ele>660.8</ele>
        <time>2021-07-05T14:15:08Z</time>
      </trkpt>
      <trkpt lat="46.8421" lon="5.87866">
        <ele>659.2</ele>
        <time>2021-07-05T14:15:20Z</time>
      </trkpt>
      <trkpt lat="46.84217" lon="5.87861">
        <ele>658.7</ele>
        <time>2021-07-05T14:15:24Z</time>
      </trkpt>
      <trkpt lat="46.8422" lon="5.87853">
        <ele>658</ele>
        <time>2021-07-05T14:15:32Z</time>
      </trkpt>
      <trkpt lat="46.84224" lon="5.87844">
        <ele>657.8</ele>
        <time>2021-07-05T14:15:36Z</time>
      </trkpt>
      <trkpt lat="46.84224" lon="5.87835">
        <ele>657.3</ele>
        <time>2021-07-05T14:15:45Z</time>
      </trkpt>
      <trkpt lat="46.84225" lon="5.87828">
        <ele>656.9</ele>
        <time>2021-07-05T14:15:49Z</time>
      </trkpt>
      <trkpt lat="46.84226" lon="5.87821">
        <ele>656.7</ele>
        <time>2021-07-05T14:15:54Z</time>
      </trkpt>
      <trkpt lat="46.84227" lon="5.87813">
        <ele>656.7</ele>
        <time>2021-07-05T14:16:04Z</time>
      </trkpt>
      <trkpt lat="46.84226" lon="5.87804">
        <ele>657</ele>
        <time>2021-07-05T14:16:08Z</time>
      </trkpt>
      <trkpt lat="46.84227" lon="5.87795">
        <ele>657.3</ele>
        <time>2021-07-05T14:16:18Z</time>
      </trkpt>
      <trkpt lat="46.84228" lon="5.87786">
        <ele>657.4</ele>
        <time>2021-07-05T14:16:22Z</time>
      </trkpt>
      <trkpt lat="46.84233" lon="5.87782">
        <ele>657.4</ele>
        <time>2021-07-05T14:16:29Z</time>
      </trkpt>
      <trkpt lat="46.84242" lon="5.87774">
        <ele>657.7</ele>
        <time>2021-07-05T14:16:33Z</time>
      </trkpt>
      <trkpt lat="46.84243" lon="5.87763">
        <ele>658.6</ele>
        <time>2021-07-05T14:17:02Z</time>
      </trkpt>
      <trkpt lat="46.84242" lon="5.87756">
        <ele>658.6</ele>
        <time>2021-07-05T14:17:06Z</time>
      </trkpt>
      <trkpt lat="46.84241" lon="5.87748">
        <ele>658.5</ele>
        <time>2021-07-05T14:17:21Z</time>
      </trkpt>
      <trkpt lat="46.8424" lon="5.8774">
        <ele>658.2</ele>
        <time>2021-07-05T14:17:25Z</time>
      </trkpt>
      <trkpt lat="46.84237" lon="5.87733">
        <ele>657.3</ele>
        <time>2021-07-05T14:17:35Z</time>
      </trkpt>
      <trkpt lat="46.84233" lon="5.87727">
        <ele>656.5</ele>
        <time>2021-07-05T14:17:39Z</time>
      </trkpt>
      <trkpt lat="46.84229" lon="5.8772">
        <ele>655.4</ele>
        <time>2021-07-05T14:17:50Z</time>
      </trkpt>
      <trkpt lat="46.84226" lon="5.87714">
        <ele>654.8</ele>
        <time>2021-07-05T14:17:54Z</time>
      </trkpt>
      <trkpt lat="46.84221" lon="5.87707">
        <ele>654.3</ele>
        <time>2021-07-05T14:18:01Z</time>
      </trkpt>
      <trkpt lat="46.84218" lon="5.877">
        <ele>654</ele>
        <time>2021-07-05T14:18:05Z</time>
      </trkpt>
      <trkpt lat="46.84215" lon="5.87692">
        <ele>653.7</ele>
        <time>2021-07-05T14:18:19Z</time>
      </trkpt>
      <trkpt lat="46.84212" lon="5.87686">
        <ele>653.6</ele>
        <time>2021-07-05T14:18:23Z</time>
      </trkpt>
      <trkpt lat="46.84209" lon="5.87678">
        <ele>652.6</ele>
        <time>2021-07-05T14:19:01Z</time>
      </trkpt>
      <trkpt lat="46.84207" lon="5.87671">
        <ele>651.7</ele>
        <time>2021-07-05T14:19:05Z</time>
      </trkpt>
      <trkpt lat="46.84204" lon="5.87663">
        <ele>650.5</ele>
        <time>2021-07-05T14:19:25Z</time>
      </trkpt>
      <trkpt lat="46.842" lon="5.87657">
        <ele>650.5</ele>
        <time>2021-07-05T14:19:29Z</time>
      </trkpt>
      <trkpt lat="46.84197" lon="5.87649">
        <ele>650.5</ele>
        <time>2021-07-05T14:19:36Z</time>
      </trkpt>
      <trkpt lat="46.84194" lon="5.8764">
        <ele>650.7</ele>
        <time>2021-07-05T14:19:40Z</time>
      </trkpt>
      <trkpt lat="46.8419" lon="5.87632">
        <ele>650.9</ele>
        <time>2021-07-05T14:19:47Z</time>
      </trkpt>
      <trkpt lat="46.84187" lon="5.87622">
        <ele>651</ele>
        <time>2021-07-05T14:19:51Z</time>
      </trkpt>
      <trkpt lat="46.84184" lon="5.87613">
        <ele>651.2</ele>
        <time>2021-07-05T14:19:59Z</time>
      </trkpt>
      <trkpt lat="46.84181" lon="5.87606">
        <ele>651.2</ele>
        <time>2021-07-05T14:20:03Z</time>
      </trkpt>
      <trkpt lat="46.84179" lon="5.87598">
        <ele>651.3</ele>
        <time>2021-07-05T14:20:10Z</time>
      </trkpt>
      <trkpt lat="46.84177" lon="5.87585">
        <ele>651.4</ele>
        <time>2021-07-05T14:20:14Z</time>
      </trkpt>
      <trkpt lat="46.84174" lon="5.87574">
        <ele>651.1</ele>
        <time>2021-07-05T14:20:26Z</time>
      </trkpt>
      <trkpt lat="46.84172" lon="5.87567">
        <ele>650.2</ele>
        <time>2021-07-05T14:20:30Z</time>
      </trkpt>
      <trkpt lat="46.84167" lon="5.87561">
        <ele>648.7</ele>
        <time>2021-07-05T14:20:42Z</time>
      </trkpt>
      <trkpt lat="46.84164" lon="5.87554">
        <ele>648</ele>
        <time>2021-07-05T14:20:46Z</time>
      </trkpt>
      <trkpt lat="46.84161" lon="5.8755">
        <ele>647.2</ele>
        <time>2021-07-05T14:20:54Z</time>
      </trkpt>
      <trkpt lat="46.84156" lon="5.87548">
        <ele>646.4</ele>
        <time>2021-07-05T14:21:05Z</time>
      </trkpt>
      <trkpt lat="46.84151" lon="5.87544">
        <ele>645.7</ele>
        <time>2021-07-05T14:21:09Z</time>
      </trkpt>
      <trkpt lat="46.84154" lon="5.87538">
        <ele>645.4</ele>
        <time>2021-07-05T14:21:14Z</time>
      </trkpt>
      <trkpt lat="46.84159" lon="5.87529">
        <ele>645.4</ele>
        <time>2021-07-05T14:21:18Z</time>
      </trkpt>
      <trkpt lat="46.84161" lon="5.87521">
        <ele>645.8</ele>
        <time>2021-07-05T14:21:22Z</time>
      </trkpt>
      <trkpt lat="46.8416" lon="5.87511">
        <ele>646.3</ele>
        <time>2021-07-05T14:21:26Z</time>
      </trkpt>
      <trkpt lat="46.84159" lon="5.87503">
        <ele>646.7</ele>
        <time>2021-07-05T14:21:32Z</time>
      </trkpt>
      <trkpt lat="46.84162" lon="5.87492">
        <ele>646.2</ele>
        <time>2021-07-05T14:21:36Z</time>
      </trkpt>
      <trkpt lat="46.84166" lon="5.87483">
        <ele>645.3</ele>
        <time>2021-07-05T14:21:43Z</time>
      </trkpt>
      <trkpt lat="46.84171" lon="5.8748">
        <ele>644.6</ele>
        <time>2021-07-05T14:21:48Z</time>
      </trkpt>
      <trkpt lat="46.84174" lon="5.87475">
        <ele>643.6</ele>
        <time>2021-07-05T14:21:52Z</time>
      </trkpt>
      <trkpt lat="46.84179" lon="5.8747">
        <ele>642.1</ele>
        <time>2021-07-05T14:22:09Z</time>
      </trkpt>
      <trkpt lat="46.84182" lon="5.87463">
        <ele>641.2</ele>
        <time>2021-07-05T14:22:13Z</time>
      </trkpt>
      <trkpt lat="46.84186" lon="5.87458">
        <ele>640.2</ele>
        <time>2021-07-05T14:22:18Z</time>
      </trkpt>
      <trkpt lat="46.84191" lon="5.87453">
        <ele>639.1</ele>
        <time>2021-07-05T14:22:22Z</time>
      </trkpt>
      <trkpt lat="46.84192" lon="5.87446">
        <ele>637.9</ele>
        <time>2021-07-05T14:22:32Z</time>
      </trkpt>
      <trkpt lat="46.84196" lon="5.87432">
        <ele>638.5</ele>
        <time>2021-07-05T14:22:36Z</time>
      </trkpt>
      <trkpt lat="46.842" lon="5.8742">
        <ele>640.1</ele>
        <time>2021-07-05T14:22:49Z</time>
      </trkpt>
      <trkpt lat="46.84203" lon="5.87412">
        <ele>641</ele>
        <time>2021-07-05T14:22:53Z</time>
      </trkpt>
      <trkpt lat="46.84207" lon="5.87404">
        <ele>643</ele>
        <time>2021-07-05T14:23:19Z</time>
      </trkpt>
      <trkpt lat="46.84213" lon="5.874">
        <ele>643.7</ele>
        <time>2021-07-05T14:23:23Z</time>
      </trkpt>
      <trkpt lat="46.84215" lon="5.87392">
        <ele>644.8</ele>
        <time>2021-07-05T14:23:34Z</time>
      </trkpt>
      <trkpt lat="46.84219" lon="5.87384">
        <ele>644.7</ele>
        <time>2021-07-05T14:23:38Z</time>
      </trkpt>
      <trkpt lat="46.84216" lon="5.87378">
        <ele>647.5</ele>
        <time>2021-07-05T14:23:52Z</time>
      </trkpt>
      <trkpt lat="46.84209" lon="5.87373">
        <ele>651.6</ele>
        <time>2021-07-05T14:23:56Z</time>
      </trkpt>
      <trkpt lat="46.84205" lon="5.87365">
        <ele>655.3</ele>
        <time>2021-07-05T14:24:00Z</time>
      </trkpt>
      <trkpt lat="46.84201" lon="5.8736">
        <ele>658.1</ele>
        <time>2021-07-05T14:24:04Z</time>
      </trkpt>
      <trkpt lat="46.84196" lon="5.87357">
        <ele>660.3</ele>
        <time>2021-07-05T14:24:08Z</time>
      </trkpt>
      <trkpt lat="46.84192" lon="5.87354">
        <ele>662.4</ele>
        <time>2021-07-05T14:24:13Z</time>
      </trkpt>
      <trkpt lat="46.84186" lon="5.87355">
        <ele>664.1</ele>
        <time>2021-07-05T14:24:17Z</time>
      </trkpt>
      <trkpt lat="46.84181" lon="5.87356">
        <ele>665.7</ele>
        <time>2021-07-05T14:24:21Z</time>
      </trkpt>
      <trkpt lat="46.84176" lon="5.87356">
        <ele>667</ele>
        <time>2021-07-05T14:24:25Z</time>
      </trkpt>
      <trkpt lat="46.84168" lon="5.87358">
        <ele>670.2</ele>
        <time>2021-07-05T14:24:54Z</time>
      </trkpt>
      <trkpt lat="46.84162" lon="5.8736">
        <ele>670.3</ele>
        <time>2021-07-05T14:24:58Z</time>
      </trkpt>
      <trkpt lat="46.84156" lon="5.87361">
        <ele>669.9</ele>
        <time>2021-07-05T14:25:05Z</time>
      </trkpt>
      <trkpt lat="46.84151" lon="5.8736">
        <ele>669.5</ele>
        <time>2021-07-05T14:25:09Z</time>
      </trkpt>
      <trkpt lat="46.84147" lon="5.87362">
        <ele>668.9</ele>
        <time>2021-07-05T14:25:20Z</time>
      </trkpt>
      <trkpt lat="46.84143" lon="5.87365">
        <ele>668.7</ele>
        <time>2021-07-05T14:25:25Z</time>
      </trkpt>
      <trkpt lat="46.84138" lon="5.87367">
        <ele>668.5</ele>
        <time>2021-07-05T14:25:37Z</time>
      </trkpt>
      <trkpt lat="46.8413" lon="5.87369">
        <ele>668.3</ele>
        <time>2021-07-05T14:25:41Z</time>
      </trkpt>
      <trkpt lat="46.84125" lon="5.87367">
        <ele>668.2</ele>
        <time>2021-07-05T14:25:47Z</time>
      </trkpt>
      <trkpt lat="46.84121" lon="5.87365">
        <ele>668</ele>
        <time>2021-07-05T14:25:59Z</time>
      </trkpt>
      <trkpt lat="46.84116" lon="5.87362">
        <ele>667.8</ele>
        <time>2021-07-05T14:26:03Z</time>
      </trkpt>
      <trkpt lat="46.8411" lon="5.87361">
        <ele>667.4</ele>
        <time>2021-07-05T14:26:20Z</time>
      </trkpt>
      <trkpt lat="46.84106" lon="5.87362">
        <ele>667.3</ele>
        <time>2021-07-05T14:26:24Z</time>
      </trkpt>
      <trkpt lat="46.84101" lon="5.87363">
        <ele>666.8</ele>
        <time>2021-07-05T14:26:36Z</time>
      </trkpt>
      <trkpt lat="46.84099" lon="5.87355">
        <ele>665.9</ele>
        <time>2021-07-05T14:26:58Z</time>
      </trkpt>
      <trkpt lat="46.84097" lon="5.87346">
        <ele>665.3</ele>
        <time>2021-07-05T14:27:02Z</time>
      </trkpt>
      <trkpt lat="46.84103" lon="5.87346">
        <ele>664.6</ele>
        <time>2021-07-05T14:27:19Z</time>
      </trkpt>
      <trkpt lat="46.84108" lon="5.87347">
        <ele>664.6</ele>
        <time>2021-07-05T14:27:24Z</time>
      </trkpt>
      <trkpt lat="46.84113" lon="5.87346">
        <ele>664.6</ele>
        <time>2021-07-05T14:27:31Z</time>
      </trkpt>
      <trkpt lat="46.84121" lon="5.87345">
        <ele>664.5</ele>
        <time>2021-07-05T14:27:35Z</time>
      </trkpt>
      <trkpt lat="46.84123" lon="5.87338">
        <ele>665</ele>
        <time>2021-07-05T14:27:59Z</time>
      </trkpt>
      <trkpt lat="46.84126" lon="5.8733">
        <ele>665.5</ele>
        <time>2021-07-05T14:28:03Z</time>
      </trkpt>
      <trkpt lat="46.84129" lon="5.87322">
        <ele>665.8</ele>
        <time>2021-07-05T14:28:15Z</time>
      </trkpt>
      <trkpt lat="46.84132" lon="5.87316">
        <ele>665.4</ele>
        <time>2021-07-05T14:28:19Z</time>
      </trkpt>
      <trkpt lat="46.84133" lon="5.8731">
        <ele>665.5</ele>
        <time>2021-07-05T14:28:30Z</time>
      </trkpt>
      <trkpt lat="46.84133" lon="5.87302">
        <ele>666.5</ele>
        <time>2021-07-05T14:28:34Z</time>
      </trkpt>
      <trkpt lat="46.84129" lon="5.87296">
        <ele>667.7</ele>
        <time>2021-07-05T14:28:46Z</time>
      </trkpt>
      <trkpt lat="46.84125" lon="5.87291">
        <ele>667.9</ele>
        <time>2021-07-05T14:28:50Z</time>
      </trkpt>
      <trkpt lat="46.8412" lon="5.87285">
        <ele>667.7</ele>
        <time>2021-07-05T14:29:00Z</time>
      </trkpt>
      <trkpt lat="46.84117" lon="5.87282">
        <ele>667.1</ele>
        <time>2021-07-05T14:29:04Z</time>
      </trkpt>
      <trkpt lat="46.84113" lon="5.87275">
        <ele>666.7</ele>
        <time>2021-07-05T14:29:14Z</time>
      </trkpt>
      <trkpt lat="46.8411" lon="5.87265">
        <ele>667</ele>
        <time>2021-07-05T14:29:18Z</time>
      </trkpt>
      <trkpt lat="46.84107" lon="5.87256">
        <ele>667.3</ele>
        <time>2021-07-05T14:29:28Z</time>
      </trkpt>
      <trkpt lat="46.84105" lon="5.87245">
        <ele>667.6</ele>
        <time>2021-07-05T14:29:32Z</time>
      </trkpt>
      <trkpt lat="46.84105" lon="5.87238">
        <ele>668.2</ele>
        <time>2021-07-05T14:29:37Z</time>
      </trkpt>
      <trkpt lat="46.84101" lon="5.87233">
        <ele>669.9</ele>
        <time>2021-07-05T14:29:45Z</time>
      </trkpt>
      <trkpt lat="46.84098" lon="5.87226">
        <ele>671.6</ele>
        <time>2021-07-05T14:29:49Z</time>
      </trkpt>
      <trkpt lat="46.84093" lon="5.87223">
        <ele>673</ele>
        <time>2021-07-05T14:29:55Z</time>
      </trkpt>
      <trkpt lat="46.84086" lon="5.87224">
        <ele>673.9</ele>
        <time>2021-07-05T14:29:59Z</time>
      </trkpt>
      <trkpt lat="46.84079" lon="5.87223">
        <ele>674.6</ele>
        <time>2021-07-05T14:30:03Z</time>
      </trkpt>
      <trkpt lat="46.84073" lon="5.87223">
        <ele>675.3</ele>
        <time>2021-07-05T14:30:07Z</time>
      </trkpt>
      <trkpt lat="46.84066" lon="5.87223">
        <ele>676.2</ele>
        <time>2021-07-05T14:30:11Z</time>
      </trkpt>
      <trkpt lat="46.8406" lon="5.87222">
        <ele>677.3</ele>
        <time>2021-07-05T14:30:15Z</time>
      </trkpt>
      <trkpt lat="46.84054" lon="5.87223">
        <ele>678.3</ele>
        <time>2021-07-05T14:30:19Z</time>
      </trkpt>
      <trkpt lat="46.84048" lon="5.87221">
        <ele>679.9</ele>
        <time>2021-07-05T14:30:25Z</time>
      </trkpt>
      <trkpt lat="46.84043" lon="5.8722">
        <ele>681.2</ele>
        <time>2021-07-05T14:30:29Z</time>
      </trkpt>
      <trkpt lat="46.84037" lon="5.87218">
        <ele>682.4</ele>
        <time>2021-07-05T14:30:34Z</time>
      </trkpt>
      <trkpt lat="46.84032" lon="5.87217">
        <ele>683.4</ele>
        <time>2021-07-05T14:30:38Z</time>
      </trkpt>
      <trkpt lat="46.84027" lon="5.87217">
        <ele>686.9</ele>
        <time>2021-07-05T14:30:42Z</time>
      </trkpt>
      <trkpt lat="46.84022" lon="5.87215">
        <ele>689</ele>
        <time>2021-07-05T14:30:46Z</time>
      </trkpt>
      <trkpt lat="46.84017" lon="5.87212">
        <ele>690.6</ele>
        <time>2021-07-05T14:30:51Z</time>
      </trkpt>
      <trkpt lat="46.84013" lon="5.87209">
        <ele>691.4</ele>
        <time>2021-07-05T14:30:55Z</time>
      </trkpt>
      <trkpt lat="46.84009" lon="5.87205">
        <ele>691.9</ele>
        <time>2021-07-05T14:30:59Z</time>
      </trkpt>
      <trkpt lat="46.84006" lon="5.87199">
        <ele>692.2</ele>
        <time>2021-07-05T14:31:04Z</time>
      </trkpt>
      <trkpt lat="46.84" lon="5.87191">
        <ele>692.4</ele>
        <time>2021-07-05T14:31:18Z</time>
      </trkpt>
      <trkpt lat="46.83997" lon="5.87179">
        <ele>692.2</ele>
        <time>2021-07-05T14:31:22Z</time>
      </trkpt>
      <trkpt lat="46.83996" lon="5.87171">
        <ele>692</ele>
        <time>2021-07-05T14:31:26Z</time>
      </trkpt>
      <trkpt lat="46.83993" lon="5.87163">
        <ele>691.5</ele>
        <time>2021-07-05T14:31:30Z</time>
      </trkpt>
      <trkpt lat="46.83991" lon="5.87158">
        <ele>691.1</ele>
        <time>2021-07-05T14:31:35Z</time>
      </trkpt>
      <trkpt lat="46.83987" lon="5.87152">
        <ele>690.6</ele>
        <time>2021-07-05T14:31:39Z</time>
      </trkpt>
      <trkpt lat="46.83982" lon="5.87147">
        <ele>690.3</ele>
        <time>2021-07-05T14:31:43Z</time>
      </trkpt>
      <trkpt lat="46.83978" lon="5.87143">
        <ele>690.5</ele>
        <time>2021-07-05T14:31:47Z</time>
      </trkpt>
      <trkpt lat="46.83975" lon="5.87137">
        <ele>690.6</ele>
        <time>2021-07-05T14:31:53Z</time>
      </trkpt>
      <trkpt lat="46.83972" lon="5.87132">
        <ele>690.7</ele>
        <time>2021-07-05T14:31:58Z</time>
      </trkpt>
      <trkpt lat="46.83969" lon="5.8712">
        <ele>690.5</ele>
        <time>2021-07-05T14:32:13Z</time>
      </trkpt>
      <trkpt lat="46.83966" lon="5.87112">
        <ele>689.8</ele>
        <time>2021-07-05T14:32:17Z</time>
      </trkpt>
      <trkpt lat="46.83961" lon="5.8711">
        <ele>688.6</ele>
        <time>2021-07-05T14:32:23Z</time>
      </trkpt>
      <trkpt lat="46.83959" lon="5.871">
        <ele>688</ele>
        <time>2021-07-05T14:32:27Z</time>
      </trkpt>
      <trkpt lat="46.83955" lon="5.87091">
        <ele>687</ele>
        <time>2021-07-05T14:32:53Z</time>
      </trkpt>
      <trkpt lat="46.8395" lon="5.87089">
        <ele>687</ele>
        <time>2021-07-05T14:32:58Z</time>
      </trkpt>
      <trkpt lat="46.83945" lon="5.87087">
        <ele>687.7</ele>
        <time>2021-07-05T14:33:38Z</time>
      </trkpt>
      <trkpt lat="46.8394" lon="5.87084">
        <ele>688.3</ele>
        <time>2021-07-05T14:33:42Z</time>
      </trkpt>
      <trkpt lat="46.83933" lon="5.87081">
        <ele>689.2</ele>
        <time>2021-07-05T14:33:51Z</time>
      </trkpt>
      <trkpt lat="46.83927" lon="5.8708">
        <ele>689.7</ele>
        <time>2021-07-05T14:33:55Z</time>
      </trkpt>
      <trkpt lat="46.8392" lon="5.87081">
        <ele>690.5</ele>
        <time>2021-07-05T14:33:59Z</time>
      </trkpt>
      <trkpt lat="46.83915" lon="5.87083">
        <ele>691.2</ele>
        <time>2021-07-05T14:34:04Z</time>
      </trkpt>
      <trkpt lat="46.83909" lon="5.87086">
        <ele>691.9</ele>
        <time>2021-07-05T14:34:08Z</time>
      </trkpt>
      <trkpt lat="46.83905" lon="5.87084">
        <ele>692.4</ele>
        <time>2021-07-05T14:34:12Z</time>
      </trkpt>
      <trkpt lat="46.83899" lon="5.87083">
        <ele>692.6</ele>
        <time>2021-07-05T14:34:17Z</time>
      </trkpt>
      <trkpt lat="46.83895" lon="5.87084">
        <ele>692.6</ele>
        <time>2021-07-05T14:34:22Z</time>
      </trkpt>
      <trkpt lat="46.8389" lon="5.87081">
        <ele>694.3</ele>
        <time>2021-07-05T14:34:28Z</time>
      </trkpt>
      <trkpt lat="46.83884" lon="5.87078">
        <ele>696.3</ele>
        <time>2021-07-05T14:34:39Z</time>
      </trkpt>
      <trkpt lat="46.83879" lon="5.87076">
        <ele>696.6</ele>
        <time>2021-07-05T14:34:43Z</time>
      </trkpt>
      <trkpt lat="46.83873" lon="5.87072">
        <ele>697.2</ele>
        <time>2021-07-05T14:35:01Z</time>
      </trkpt>
      <trkpt lat="46.83868" lon="5.8707">
        <ele>697.7</ele>
        <time>2021-07-05T14:35:05Z</time>
      </trkpt>
      <trkpt lat="46.83865" lon="5.87063">
        <ele>698.3</ele>
        <time>2021-07-05T14:35:30Z</time>
      </trkpt>
      <trkpt lat="46.83862" lon="5.87056">
        <ele>698.1</ele>
        <time>2021-07-05T14:35:34Z</time>
      </trkpt>
      <trkpt lat="46.83856" lon="5.87052">
        <ele>697.5</ele>
        <time>2021-07-05T14:35:47Z</time>
      </trkpt>
      <trkpt lat="46.83851" lon="5.87049">
        <ele>696.9</ele>
        <time>2021-07-05T14:35:51Z</time>
      </trkpt>
      <trkpt lat="46.83846" lon="5.8705">
        <ele>696.2</ele>
        <time>2021-07-05T14:35:58Z</time>
      </trkpt>
      <trkpt lat="46.83838" lon="5.87054">
        <ele>695.7</ele>
        <time>2021-07-05T14:36:02Z</time>
      </trkpt>
      <trkpt lat="46.83831" lon="5.87057">
        <ele>694.4</ele>
        <time>2021-07-05T14:36:20Z</time>
      </trkpt>
      <trkpt lat="46.83825" lon="5.87058">
        <ele>693.8</ele>
        <time>2021-07-05T14:36:24Z</time>
      </trkpt>
      <trkpt lat="46.8382" lon="5.87055">
        <ele>692.4</ele>
        <time>2021-07-05T14:36:42Z</time>
      </trkpt>
      <trkpt lat="46.83816" lon="5.8705">
        <ele>691.7</ele>
        <time>2021-07-05T14:36:46Z</time>
      </trkpt>
      <trkpt lat="46.83809" lon="5.87049">
        <ele>690.8</ele>
        <time>2021-07-05T14:36:54Z</time>
      </trkpt>
      <trkpt lat="46.83805" lon="5.87049">
        <ele>690.4</ele>
        <time>2021-07-05T14:36:59Z</time>
      </trkpt>
      <trkpt lat="46.83799" lon="5.87051">
        <ele>689.9</ele>
        <time>2021-07-05T14:37:11Z</time>
      </trkpt>
      <trkpt lat="46.8379" lon="5.87055">
        <ele>689.4</ele>
        <time>2021-07-05T14:37:31Z</time>
      </trkpt>
      <trkpt lat="46.83785" lon="5.87056">
        <ele>689.4</ele>
        <time>2021-07-05T14:37:35Z</time>
      </trkpt>
      <trkpt lat="46.83779" lon="5.87056">
        <ele>689.2</ele>
        <time>2021-07-05T14:37:49Z</time>
      </trkpt>
      <trkpt lat="46.83774" lon="5.87057">
        <ele>689</ele>
        <time>2021-07-05T14:37:53Z</time>
      </trkpt>
      <trkpt lat="46.83768" lon="5.87058">
        <ele>688.6</ele>
        <time>2021-07-05T14:38:04Z</time>
      </trkpt>
      <trkpt lat="46.83763" lon="5.87058">
        <ele>688.4</ele>
        <time>2021-07-05T14:38:08Z</time>
      </trkpt>
      <trkpt lat="46.83757" lon="5.87057">
        <ele>687.8</ele>
        <time>2021-07-05T14:38:22Z</time>
      </trkpt>
      <trkpt lat="46.83751" lon="5.87055">
        <ele>687.5</ele>
        <time>2021-07-05T14:38:26Z</time>
      </trkpt>
      <trkpt lat="46.83746" lon="5.87057">
        <ele>686.8</ele>
        <time>2021-07-05T14:38:40Z</time>
      </trkpt>
      <trkpt lat="46.83741" lon="5.8706">
        <ele>686.3</ele>
        <time>2021-07-05T14:38:44Z</time>
      </trkpt>
      <trkpt lat="46.83735" lon="5.87062">
        <ele>685.5</ele>
        <time>2021-07-05T14:39:09Z</time>
      </trkpt>
      <trkpt lat="46.83729" lon="5.87062">
        <ele>685.3</ele>
        <time>2021-07-05T14:39:13Z</time>
      </trkpt>
      <trkpt lat="46.83722" lon="5.87063">
        <ele>684.8</ele>
        <time>2021-07-05T14:39:24Z</time>
      </trkpt>
      <trkpt lat="46.83716" lon="5.87064">
        <ele>684.3</ele>
        <time>2021-07-05T14:39:28Z</time>
      </trkpt>
      <trkpt lat="46.8371" lon="5.87066">
        <ele>683.2</ele>
        <time>2021-07-05T14:39:45Z</time>
      </trkpt>
      <trkpt lat="46.83704" lon="5.8707">
        <ele>682.7</ele>
        <time>2021-07-05T14:39:49Z</time>
      </trkpt>
      <trkpt lat="46.83699" lon="5.87072">
        <ele>681.3</ele>
        <time>2021-07-05T14:40:53Z</time>
      </trkpt>
      <trkpt lat="46.83694" lon="5.87072">
        <ele>680.4</ele>
        <time>2021-07-05T14:40:58Z</time>
      </trkpt>
      <trkpt lat="46.83691" lon="5.87078">
        <ele>679.1</ele>
        <time>2021-07-05T14:41:19Z</time>
      </trkpt>
      <trkpt lat="46.83683" lon="5.87079">
        <ele>678.6</ele>
        <time>2021-07-05T14:41:36Z</time>
      </trkpt>
      <trkpt lat="46.83679" lon="5.87076">
        <ele>678.9</ele>
        <time>2021-07-05T14:41:40Z</time>
      </trkpt>
      <trkpt lat="46.83675" lon="5.87069">
        <ele>678.7</ele>
        <time>2021-07-05T14:42:03Z</time>
      </trkpt>
      <trkpt lat="46.83671" lon="5.87062">
        <ele>677.9</ele>
        <time>2021-07-05T14:42:07Z</time>
      </trkpt>
      <trkpt lat="46.83667" lon="5.87055">
        <ele>676.7</ele>
        <time>2021-07-05T14:42:21Z</time>
      </trkpt>
      <trkpt lat="46.83663" lon="5.87052">
        <ele>676.2</ele>
        <time>2021-07-05T14:42:25Z</time>
      </trkpt>
      <trkpt lat="46.83658" lon="5.87048">
        <ele>675.3</ele>
        <time>2021-07-05T14:42:39Z</time>
      </trkpt>
      <trkpt lat="46.83651" lon="5.87041">
        <ele>674.9</ele>
        <time>2021-07-05T14:42:43Z</time>
      </trkpt>
      <trkpt lat="46.83648" lon="5.87033">
        <ele>674.3</ele>
        <time>2021-07-05T14:42:51Z</time>
      </trkpt>
      <trkpt lat="46.83647" lon="5.87025">
        <ele>673.9</ele>
        <time>2021-07-05T14:42:55Z</time>
      </trkpt>
      <trkpt lat="46.83641" lon="5.87027">
        <ele>672.6</ele>
        <time>2021-07-05T14:43:33Z</time>
      </trkpt>
      <trkpt lat="46.83639" lon="5.87036">
        <ele>671</ele>
        <time>2021-07-05T14:43:42Z</time>
      </trkpt>
      <trkpt lat="46.83642" lon="5.87043">
        <ele>670.1</ele>
        <time>2021-07-05T14:43:46Z</time>
      </trkpt>
      <trkpt lat="46.83646" lon="5.87046">
        <ele>668.1</ele>
        <time>2021-07-05T14:43:54Z</time>
      </trkpt>
      <trkpt lat="46.83651" lon="5.87048">
        <ele>665.9</ele>
        <time>2021-07-05T14:44:06Z</time>
      </trkpt>
      <trkpt lat="46.83655" lon="5.87051">
        <ele>664.3</ele>
        <time>2021-07-05T14:44:10Z</time>
      </trkpt>
      <trkpt lat="46.83659" lon="5.87054">
        <ele>662.8</ele>
        <time>2021-07-05T14:44:15Z</time>
      </trkpt>
      <trkpt lat="46.83664" lon="5.8706">
        <ele>661.6</ele>
        <time>2021-07-05T14:44:25Z</time>
      </trkpt>
      <trkpt lat="46.83668" lon="5.87066">
        <ele>660.9</ele>
        <time>2021-07-05T14:44:29Z</time>
      </trkpt>
      <trkpt lat="46.83674" lon="5.87069">
        <ele>661.9</ele>
        <time>2021-07-05T14:44:57Z</time>
      </trkpt>
      <trkpt lat="46.83679" lon="5.8707">
        <ele>664.3</ele>
        <time>2021-07-05T14:45:02Z</time>
      </trkpt>
      <trkpt lat="46.83683" lon="5.87076">
        <ele>667.1</ele>
        <time>2021-07-05T14:45:17Z</time>
      </trkpt>
      <trkpt lat="46.83688" lon="5.87082">
        <ele>667.5</ele>
        <time>2021-07-05T14:45:21Z</time>
      </trkpt>
      <trkpt lat="46.83691" lon="5.87087">
        <ele>667.6</ele>
        <time>2021-07-05T14:45:30Z</time>
      </trkpt>
      <trkpt lat="46.83695" lon="5.87091">
        <ele>667.6</ele>
        <time>2021-07-05T14:45:35Z</time>
      </trkpt>
      <trkpt lat="46.837" lon="5.87096">
        <ele>667.4</ele>
        <time>2021-07-05T14:45:39Z</time>
      </trkpt>
      <trkpt lat="46.83704" lon="5.87103">
        <ele>667.1</ele>
        <time>2021-07-05T14:45:46Z</time>
      </trkpt>
      <trkpt lat="46.83708" lon="5.87112">
        <ele>666.9</ele>
        <time>2021-07-05T14:45:50Z</time>
      </trkpt>
      <trkpt lat="46.83711" lon="5.87118">
        <ele>665.6</ele>
        <time>2021-07-05T14:46:00Z</time>
      </trkpt>
      <trkpt lat="46.83715" lon="5.87123">
        <ele>663.9</ele>
        <time>2021-07-05T14:46:05Z</time>
      </trkpt>
      <trkpt lat="46.83716" lon="5.87131">
        <ele>662.1</ele>
        <time>2021-07-05T14:46:11Z</time>
      </trkpt>
      <trkpt lat="46.83723" lon="5.87134">
        <ele>660.5</ele>
        <time>2021-07-05T14:46:15Z</time>
      </trkpt>
      <trkpt lat="46.83727" lon="5.87136">
        <ele>659</ele>
        <time>2021-07-05T14:46:19Z</time>
      </trkpt>
      <trkpt lat="46.83733" lon="5.87137">
        <ele>657.3</ele>
        <time>2021-07-05T14:46:23Z</time>
      </trkpt>
      <trkpt lat="46.83736" lon="5.87143">
        <ele>654.8</ele>
        <time>2021-07-05T14:46:29Z</time>
      </trkpt>
      <trkpt lat="46.8374" lon="5.87144">
        <ele>652.8</ele>
        <time>2021-07-05T14:46:35Z</time>
      </trkpt>
      <trkpt lat="46.83746" lon="5.87146">
        <ele>650.7</ele>
        <time>2021-07-05T14:46:45Z</time>
      </trkpt>
      <trkpt lat="46.83752" lon="5.87149">
        <ele>649.3</ele>
        <time>2021-07-05T14:46:49Z</time>
      </trkpt>
      <trkpt lat="46.83757" lon="5.87152">
        <ele>647.7</ele>
        <time>2021-07-05T14:46:55Z</time>
      </trkpt>
      <trkpt lat="46.83762" lon="5.87158">
        <ele>646.7</ele>
        <time>2021-07-05T14:46:59Z</time>
      </trkpt>
      <trkpt lat="46.83767" lon="5.87167">
        <ele>645.8</ele>
        <time>2021-07-05T14:47:03Z</time>
      </trkpt>
      <trkpt lat="46.83773" lon="5.87177">
        <ele>645</ele>
        <time>2021-07-05T14:47:07Z</time>
      </trkpt>
      <trkpt lat="46.83778" lon="5.87182">
        <ele>644.2</ele>
        <time>2021-07-05T14:47:11Z</time>
      </trkpt>
      <trkpt lat="46.83783" lon="5.87189">
        <ele>642</ele>
        <time>2021-07-05T14:47:24Z</time>
      </trkpt>
      <trkpt lat="46.83787" lon="5.87195">
        <ele>640.7</ele>
        <time>2021-07-05T14:47:28Z</time>
      </trkpt>
      <trkpt lat="46.83792" lon="5.87201">
        <ele>638.8</ele>
        <time>2021-07-05T14:47:37Z</time>
      </trkpt>
      <trkpt lat="46.83797" lon="5.87206">
        <ele>637.7</ele>
        <time>2021-07-05T14:47:41Z</time>
      </trkpt>
      <trkpt lat="46.83801" lon="5.87212">
        <ele>636.4</ele>
        <time>2021-07-05T14:47:50Z</time>
      </trkpt>
      <trkpt lat="46.83806" lon="5.87218">
        <ele>636.2</ele>
        <time>2021-07-05T14:47:54Z</time>
      </trkpt>
      <trkpt lat="46.83809" lon="5.87225">
        <ele>635.8</ele>
        <time>2021-07-05T14:48:02Z</time>
      </trkpt>
      <trkpt lat="46.83815" lon="5.87234">
        <ele>635.5</ele>
        <time>2021-07-05T14:48:06Z</time>
      </trkpt>
      <trkpt lat="46.83818" lon="5.87241">
        <ele>635.2</ele>
        <time>2021-07-05T14:48:10Z</time>
      </trkpt>
      <trkpt lat="46.8382" lon="5.87247">
        <ele>635</ele>
        <time>2021-07-05T14:48:14Z</time>
      </trkpt>
      <trkpt lat="46.83822" lon="5.87254">
        <ele>634.8</ele>
        <time>2021-07-05T14:48:19Z</time>
      </trkpt>
      <trkpt lat="46.83826" lon="5.87258">
        <ele>634.9</ele>
        <time>2021-07-05T14:48:26Z</time>
      </trkpt>
      <trkpt lat="46.83831" lon="5.87263">
        <ele>635.1</ele>
        <time>2021-07-05T14:48:30Z</time>
      </trkpt>
      <trkpt lat="46.83836" lon="5.87267">
        <ele>635.5</ele>
        <time>2021-07-05T14:48:36Z</time>
      </trkpt>
      <trkpt lat="46.83845" lon="5.87273">
        <ele>636.6</ele>
        <time>2021-07-05T14:48:40Z</time>
      </trkpt>
      <trkpt lat="46.83851" lon="5.8728">
        <ele>637.9</ele>
        <time>2021-07-05T14:48:48Z</time>
      </trkpt>
      <trkpt lat="46.83856" lon="5.87286">
        <ele>638.5</ele>
        <time>2021-07-05T14:48:52Z</time>
      </trkpt>
      <trkpt lat="46.8386" lon="5.87291">
        <ele>639</ele>
        <time>2021-07-05T14:49:01Z</time>
      </trkpt>
      <trkpt lat="46.83865" lon="5.873">
        <ele>639.2</ele>
        <time>2021-07-05T14:49:05Z</time>
      </trkpt>
      <trkpt lat="46.83872" lon="5.87308">
        <ele>639</ele>
        <time>2021-07-05T14:49:16Z</time>
      </trkpt>
      <trkpt lat="46.83877" lon="5.87315">
        <ele>638.4</ele>
        <time>2021-07-05T14:49:20Z</time>
      </trkpt>
      <trkpt lat="46.8388" lon="5.8732">
        <ele>637.9</ele>
        <time>2021-07-05T14:49:25Z</time>
      </trkpt>
      <trkpt lat="46.83885" lon="5.87324">
        <ele>637.5</ele>
        <time>2021-07-05T14:49:33Z</time>
      </trkpt>
      <trkpt lat="46.8389" lon="5.87329">
        <ele>637.2</ele>
        <time>2021-07-05T14:49:37Z</time>
      </trkpt>
      <trkpt lat="46.83896" lon="5.87334">
        <ele>636.7</ele>
        <time>2021-07-05T14:49:44Z</time>
      </trkpt>
      <trkpt lat="46.83901" lon="5.87339">
        <ele>636.3</ele>
        <time>2021-07-05T14:49:48Z</time>
      </trkpt>
      <trkpt lat="46.83907" lon="5.87343">
        <ele>635.9</ele>
        <time>2021-07-05T14:49:54Z</time>
      </trkpt>
      <trkpt lat="46.83913" lon="5.8735">
        <ele>635.4</ele>
        <time>2021-07-05T14:49:58Z</time>
      </trkpt>
      <trkpt lat="46.83919" lon="5.87353">
        <ele>634.9</ele>
        <time>2021-07-05T14:50:05Z</time>
      </trkpt>
      <trkpt lat="46.83926" lon="5.87356">
        <ele>634.7</ele>
        <time>2021-07-05T14:50:09Z</time>
      </trkpt>
      <trkpt lat="46.83935" lon="5.87358">
        <ele>633.6</ele>
        <time>2021-07-05T14:50:21Z</time>
      </trkpt>
      <trkpt lat="46.83942" lon="5.87362">
        <ele>633.3</ele>
        <time>2021-07-05T14:50:25Z</time>
      </trkpt>
      <trkpt lat="46.83948" lon="5.87363">
        <ele>632.6</ele>
        <time>2021-07-05T14:50:31Z</time>
      </trkpt>
      <trkpt lat="46.83953" lon="5.87368">
        <ele>632.5</ele>
        <time>2021-07-05T14:50:35Z</time>
      </trkpt>
      <trkpt lat="46.83957" lon="5.87372">
        <ele>632.7</ele>
        <time>2021-07-05T14:50:40Z</time>
      </trkpt>
      <trkpt lat="46.83962" lon="5.87373">
        <ele>633.1</ele>
        <time>2021-07-05T14:50:47Z</time>
      </trkpt>
      <trkpt lat="46.83969" lon="5.87373">
        <ele>633.8</ele>
        <time>2021-07-05T14:50:51Z</time>
      </trkpt>
      <trkpt lat="46.83976" lon="5.87375">
        <ele>635.9</ele>
        <time>2021-07-05T14:51:02Z</time>
      </trkpt>
      <trkpt lat="46.83984" lon="5.87374">
        <ele>636.6</ele>
        <time>2021-07-05T14:51:06Z</time>
      </trkpt>
      <trkpt lat="46.8399" lon="5.87375">
        <ele>637.5</ele>
        <time>2021-07-05T14:51:13Z</time>
      </trkpt>
      <trkpt lat="46.83997" lon="5.87376">
        <ele>638</ele>
        <time>2021-07-05T14:51:17Z</time>
      </trkpt>
      <trkpt lat="46.84004" lon="5.87375">
        <ele>638.7</ele>
        <time>2021-07-05T14:51:26Z</time>
      </trkpt>
      <trkpt lat="46.84012" lon="5.87373">
        <ele>639.3</ele>
        <time>2021-07-05T14:51:30Z</time>
      </trkpt>
      <trkpt lat="46.84019" lon="5.8737">
        <ele>639.9</ele>
        <time>2021-07-05T14:51:36Z</time>
      </trkpt>
      <trkpt lat="46.84027" lon="5.87365">
        <ele>640.4</ele>
        <time>2021-07-05T14:51:40Z</time>
      </trkpt>
      <trkpt lat="46.84033" lon="5.87361">
        <ele>640.8</ele>
        <time>2021-07-05T14:51:48Z</time>
      </trkpt>
      <trkpt lat="46.84038" lon="5.87358">
        <ele>640.7</ele>
        <time>2021-07-05T14:51:52Z</time>
      </trkpt>
      <trkpt lat="46.84043" lon="5.87355">
        <ele>640.2</ele>
        <time>2021-07-05T14:51:58Z</time>
      </trkpt>
      <trkpt lat="46.84048" lon="5.87351">
        <ele>639.3</ele>
        <time>2021-07-05T14:52:02Z</time>
      </trkpt>
      <trkpt lat="46.84053" lon="5.87347">
        <ele>637.7</ele>
        <time>2021-07-05T14:52:18Z</time>
      </trkpt>
      <trkpt lat="46.84058" lon="5.87341">
        <ele>637.2</ele>
        <time>2021-07-05T14:52:22Z</time>
      </trkpt>
      <trkpt lat="46.84062" lon="5.87334">
        <ele>637.3</ele>
        <time>2021-07-05T14:53:32Z</time>
      </trkpt>
      <trkpt lat="46.84066" lon="5.87328">
        <ele>638</ele>
        <time>2021-07-05T14:53:36Z</time>
      </trkpt>
      <trkpt lat="46.84075" lon="5.87315">
        <ele>643</ele>
        <time>2021-07-05T14:54:00Z</time>
      </trkpt>
      <trkpt lat="46.8407" lon="5.87309">
        <ele>644</ele>
        <time>2021-07-05T14:54:45Z</time>
      </trkpt>
      <trkpt lat="46.84075" lon="5.8731">
        <ele>643.1</ele>
        <time>2021-07-05T14:55:16Z</time>
      </trkpt>
      <trkpt lat="46.84078" lon="5.87317">
        <ele>642.6</ele>
        <time>2021-07-05T14:55:37Z</time>
      </trkpt>
      <trkpt lat="46.84077" lon="5.87327">
        <ele>644</ele>
        <time>2021-07-05T14:55:41Z</time>
      </trkpt>
      <trkpt lat="46.84072" lon="5.87335">
        <ele>648.3</ele>
        <time>2021-07-05T14:56:17Z</time>
      </trkpt>
      <trkpt lat="46.84069" lon="5.87341">
        <ele>650.9</ele>
        <time>2021-07-05T14:56:21Z</time>
      </trkpt>
      <trkpt lat="46.84064" lon="5.87345">
        <ele>654.8</ele>
        <time>2021-07-05T14:56:39Z</time>
      </trkpt>
      <trkpt lat="46.84059" lon="5.8735">
        <ele>655.5</ele>
        <time>2021-07-05T14:56:43Z</time>
      </trkpt>
      <trkpt lat="46.84063" lon="5.87344">
        <ele>658.1</ele>
        <time>2021-07-05T14:57:01Z</time>
      </trkpt>
      <trkpt lat="46.84067" lon="5.87338">
        <ele>659.9</ele>
        <time>2021-07-05T14:57:05Z</time>
      </trkpt>
      <trkpt lat="46.84073" lon="5.87335">
        <ele>663.7</ele>
        <time>2021-07-05T14:57:38Z</time>
      </trkpt>
      <trkpt lat="46.84077" lon="5.87334">
        <ele>666.8</ele>
        <time>2021-07-05T14:57:47Z</time>
      </trkpt>
      <trkpt lat="46.84082" lon="5.87333">
        <ele>667.9</ele>
        <time>2021-07-05T14:57:53Z</time>
      </trkpt>
      <trkpt lat="46.84087" lon="5.87333">
        <ele>668.4</ele>
        <time>2021-07-05T14:57:58Z</time>
      </trkpt>
      <trkpt lat="46.84091" lon="5.87338">
        <ele>670.1</ele>
        <time>2021-07-05T14:58:23Z</time>
      </trkpt>
      <trkpt lat="46.84099" lon="5.87342">
        <ele>671.8</ele>
        <time>2021-07-05T14:58:27Z</time>
      </trkpt>
      <trkpt lat="46.84104" lon="5.87346">
        <ele>673.6</ele>
        <time>2021-07-05T14:58:33Z</time>
      </trkpt>
      <trkpt lat="46.84109" lon="5.87351">
        <ele>674.4</ele>
        <time>2021-07-05T14:58:37Z</time>
      </trkpt>
      <trkpt lat="46.84115" lon="5.87355">
        <ele>675.6</ele>
        <time>2021-07-05T14:58:53Z</time>
      </trkpt>
      <trkpt lat="46.84122" lon="5.87363">
        <ele>676.6</ele>
        <time>2021-07-05T14:58:57Z</time>
      </trkpt>
      <trkpt lat="46.84128" lon="5.87365">
        <ele>678.3</ele>
        <time>2021-07-05T14:59:02Z</time>
      </trkpt>
      <trkpt lat="46.84133" lon="5.87363">
        <ele>679.6</ele>
        <time>2021-07-05T14:59:06Z</time>
      </trkpt>
      <trkpt lat="46.84139" lon="5.87362">
        <ele>680.1</ele>
        <time>2021-07-05T14:59:12Z</time>
      </trkpt>
      <trkpt lat="46.84147" lon="5.8736">
        <ele>679.7</ele>
        <time>2021-07-05T14:59:16Z</time>
      </trkpt>
      <trkpt lat="46.84153" lon="5.87357">
        <ele>679.2</ele>
        <time>2021-07-05T14:59:24Z</time>
      </trkpt>
      <trkpt lat="46.84158" lon="5.87356">
        <ele>678.9</ele>
        <time>2021-07-05T14:59:28Z</time>
      </trkpt>
      <trkpt lat="46.84163" lon="5.8736">
        <ele>677.1</ele>
        <time>2021-07-05T14:59:44Z</time>
      </trkpt>
      <trkpt lat="46.84167" lon="5.87368">
        <ele>674.9</ele>
        <time>2021-07-05T14:59:48Z</time>
      </trkpt>
      <trkpt lat="46.84171" lon="5.87374">
        <ele>668.1</ele>
        <time>2021-07-05T15:00:05Z</time>
      </trkpt>
      <trkpt lat="46.84177" lon="5.87379">
        <ele>664.1</ele>
        <time>2021-07-05T15:00:09Z</time>
      </trkpt>
      <trkpt lat="46.84182" lon="5.87383">
        <ele>659.2</ele>
        <time>2021-07-05T15:00:19Z</time>
      </trkpt>
      <trkpt lat="46.84188" lon="5.87385">
        <ele>657.5</ele>
        <time>2021-07-05T15:00:23Z</time>
      </trkpt>
      <trkpt lat="46.84194" lon="5.87385">
        <ele>654.8</ele>
        <time>2021-07-05T15:00:36Z</time>
      </trkpt>
      <trkpt lat="46.84203" lon="5.87382">
        <ele>653.4</ele>
        <time>2021-07-05T15:00:40Z</time>
      </trkpt>
      <trkpt lat="46.84213" lon="5.87374">
        <ele>652.1</ele>
        <time>2021-07-05T15:00:44Z</time>
      </trkpt>
      <trkpt lat="46.84216" lon="5.87368">
        <ele>650.6</ele>
        <time>2021-07-05T15:00:48Z</time>
      </trkpt>
      <trkpt lat="46.84221" lon="5.87363">
        <ele>649.3</ele>
        <time>2021-07-05T15:00:52Z</time>
      </trkpt>
      <trkpt lat="46.84228" lon="5.8736">
        <ele>646.7</ele>
        <time>2021-07-05T15:01:05Z</time>
      </trkpt>
      <trkpt lat="46.84235" lon="5.87359">
        <ele>645.8</ele>
        <time>2021-07-05T15:01:09Z</time>
      </trkpt>
      <trkpt lat="46.84242" lon="5.87357">
        <ele>645.1</ele>
        <time>2021-07-05T15:01:18Z</time>
      </trkpt>
      <trkpt lat="46.8425" lon="5.87354">
        <ele>645.3</ele>
        <time>2021-07-05T15:01:22Z</time>
      </trkpt>
      <trkpt lat="46.84256" lon="5.87352">
        <ele>645.6</ele>
        <time>2021-07-05T15:01:28Z</time>
      </trkpt>
      <trkpt lat="46.84263" lon="5.87353">
        <ele>645.5</ele>
        <time>2021-07-05T15:01:32Z</time>
      </trkpt>
      <trkpt lat="46.84268" lon="5.87355">
        <ele>645.5</ele>
        <time>2021-07-05T15:01:36Z</time>
      </trkpt>
      <trkpt lat="46.84278" lon="5.87357">
        <ele>645.9</ele>
        <time>2021-07-05T15:01:40Z</time>
      </trkpt>
      <trkpt lat="46.84283" lon="5.87357">
        <ele>646.1</ele>
        <time>2021-07-05T15:01:44Z</time>
      </trkpt>
      <trkpt lat="46.84289" lon="5.87356">
        <ele>646.4</ele>
        <time>2021-07-05T15:01:53Z</time>
      </trkpt>
      <trkpt lat="46.84296" lon="5.87357">
        <ele>646.5</ele>
        <time>2021-07-05T15:01:57Z</time>
      </trkpt>
      <trkpt lat="46.84302" lon="5.87358">
        <ele>646.7</ele>
        <time>2021-07-05T15:02:03Z</time>
      </trkpt>
      <trkpt lat="46.84309" lon="5.87358">
        <ele>647</ele>
        <time>2021-07-05T15:02:07Z</time>
      </trkpt>
      <trkpt lat="46.84315" lon="5.87358">
        <ele>646.9</ele>
        <time>2021-07-05T15:02:19Z</time>
      </trkpt>
      <trkpt lat="46.8432" lon="5.87359">
        <ele>646.6</ele>
        <time>2021-07-05T15:02:23Z</time>
      </trkpt>
      <trkpt lat="46.84323" lon="5.87365">
        <ele>646.1</ele>
        <time>2021-07-05T15:02:30Z</time>
      </trkpt>
      <trkpt lat="46.84328" lon="5.87373">
        <ele>645.4</ele>
        <time>2021-07-05T15:02:34Z</time>
      </trkpt>
      <trkpt lat="46.84334" lon="5.87376">
        <ele>645</ele>
        <time>2021-07-05T15:02:40Z</time>
      </trkpt>
      <trkpt lat="46.84338" lon="5.87378">
        <ele>645.6</ele>
        <time>2021-07-05T15:02:44Z</time>
      </trkpt>
      <trkpt lat="46.84343" lon="5.87382">
        <ele>646.1</ele>
        <time>2021-07-05T15:02:50Z</time>
      </trkpt>
      <trkpt lat="46.84349" lon="5.87384">
        <ele>646.5</ele>
        <time>2021-07-05T15:02:54Z</time>
      </trkpt>
      <trkpt lat="46.84354" lon="5.87389">
        <ele>646.6</ele>
        <time>2021-07-05T15:03:00Z</time>
      </trkpt>
      <trkpt lat="46.84356" lon="5.87401">
        <ele>647.1</ele>
        <time>2021-07-05T15:03:04Z</time>
      </trkpt>
      <trkpt lat="46.84355" lon="5.87412">
        <ele>648</ele>
        <time>2021-07-05T15:03:08Z</time>
      </trkpt>
      <trkpt lat="46.84357" lon="5.87418">
        <ele>649.1</ele>
        <time>2021-07-05T15:03:15Z</time>
      </trkpt>
      <trkpt lat="46.84362" lon="5.87421">
        <ele>649.8</ele>
        <time>2021-07-05T15:03:22Z</time>
      </trkpt>
      <trkpt lat="46.84367" lon="5.87424">
        <ele>650</ele>
        <time>2021-07-05T15:03:26Z</time>
      </trkpt>
      <trkpt lat="46.84373" lon="5.87428">
        <ele>650.4</ele>
        <time>2021-07-05T15:03:36Z</time>
      </trkpt>
      <trkpt lat="46.84379" lon="5.87432">
        <ele>650.6</ele>
        <time>2021-07-05T15:03:44Z</time>
      </trkpt>
      <trkpt lat="46.84382" lon="5.87437">
        <ele>650.3</ele>
        <time>2021-07-05T15:03:49Z</time>
      </trkpt>
      <trkpt lat="46.84387" lon="5.87439">
        <ele>649.2</ele>
        <time>2021-07-05T15:04:07Z</time>
      </trkpt>
      <trkpt lat="46.84392" lon="5.8744">
        <ele>648.3</ele>
        <time>2021-07-05T15:04:11Z</time>
      </trkpt>
      <trkpt lat="46.84398" lon="5.87442">
        <ele>646.6</ele>
        <time>2021-07-05T15:04:25Z</time>
      </trkpt>
      <trkpt lat="46.84405" lon="5.87443">
        <ele>645.8</ele>
        <time>2021-07-05T15:04:29Z</time>
      </trkpt>
      <trkpt lat="46.84411" lon="5.87443">
        <ele>644.2</ele>
        <time>2021-07-05T15:04:42Z</time>
      </trkpt>
      <trkpt lat="46.84417" lon="5.87443">
        <ele>643.3</ele>
        <time>2021-07-05T15:04:46Z</time>
      </trkpt>
      <trkpt lat="46.84423" lon="5.87446">
        <ele>642.1</ele>
        <time>2021-07-05T15:04:53Z</time>
      </trkpt>
      <trkpt lat="46.84428" lon="5.8745">
        <ele>641.4</ele>
        <time>2021-07-05T15:04:57Z</time>
      </trkpt>
      <trkpt lat="46.84434" lon="5.87451">
        <ele>639.9</ele>
        <time>2021-07-05T15:05:07Z</time>
      </trkpt>
      <trkpt lat="46.8444" lon="5.87453">
        <ele>638.7</ele>
        <time>2021-07-05T15:05:11Z</time>
      </trkpt>
      <trkpt lat="46.84445" lon="5.87456">
        <ele>635.9</ele>
        <time>2021-07-05T15:05:27Z</time>
      </trkpt>
      <trkpt lat="46.84449" lon="5.8746">
        <ele>634.2</ele>
        <time>2021-07-05T15:05:31Z</time>
      </trkpt>
      <trkpt lat="46.84454" lon="5.87463">
        <ele>631.6</ele>
        <time>2021-07-05T15:05:42Z</time>
      </trkpt>
      <trkpt lat="46.84458" lon="5.87464">
        <ele>630.4</ele>
        <time>2021-07-05T15:05:47Z</time>
      </trkpt>
      <trkpt lat="46.84465" lon="5.87462">
        <ele>629.7</ele>
        <time>2021-07-05T15:05:53Z</time>
      </trkpt>
      <trkpt lat="46.84478" lon="5.87452">
        <ele>629.7</ele>
        <time>2021-07-05T15:05:57Z</time>
      </trkpt>
      <trkpt lat="46.84485" lon="5.8744">
        <ele>630.2</ele>
        <time>2021-07-05T15:06:01Z</time>
      </trkpt>
      <trkpt lat="46.8449" lon="5.87432">
        <ele>630.9</ele>
        <time>2021-07-05T15:06:05Z</time>
      </trkpt>
      <trkpt lat="46.84495" lon="5.87428">
        <ele>632</ele>
        <time>2021-07-05T15:06:16Z</time>
      </trkpt>
      <trkpt lat="46.84501" lon="5.87427">
        <ele>632.4</ele>
        <time>2021-07-05T15:06:20Z</time>
      </trkpt>
      <trkpt lat="46.84506" lon="5.87429">
        <ele>633</ele>
        <time>2021-07-05T15:06:33Z</time>
      </trkpt>
      <trkpt lat="46.84511" lon="5.87435">
        <ele>633</ele>
        <time>2021-07-05T15:06:37Z</time>
      </trkpt>
      <trkpt lat="46.84515" lon="5.87433">
        <ele>632.9</ele>
        <time>2021-07-05T15:06:45Z</time>
      </trkpt>
      <trkpt lat="46.84521" lon="5.87434">
        <ele>632</ele>
        <time>2021-07-05T15:06:57Z</time>
      </trkpt>
      <trkpt lat="46.84525" lon="5.87436">
        <ele>631.4</ele>
        <time>2021-07-05T15:07:03Z</time>
      </trkpt>
      <trkpt lat="46.84531" lon="5.8744">
        <ele>630.6</ele>
        <time>2021-07-05T15:07:17Z</time>
      </trkpt>
      <trkpt lat="46.84536" lon="5.87443">
        <ele>630.2</ele>
        <time>2021-07-05T15:07:21Z</time>
      </trkpt>
      <trkpt lat="46.84542" lon="5.87443">
        <ele>629.8</ele>
        <time>2021-07-05T15:07:28Z</time>
      </trkpt>
      <trkpt lat="46.84549" lon="5.87442">
        <ele>629.6</ele>
        <time>2021-07-05T15:07:32Z</time>
      </trkpt>
      <trkpt lat="46.84556" lon="5.87443">
        <ele>629.1</ele>
        <time>2021-07-05T15:07:45Z</time>
      </trkpt>
      <trkpt lat="46.84563" lon="5.87445">
        <ele>628.7</ele>
        <time>2021-07-05T15:07:49Z</time>
      </trkpt>
      <trkpt lat="46.84569" lon="5.87446">
        <ele>628</ele>
        <time>2021-07-05T15:07:57Z</time>
      </trkpt>
      <trkpt lat="46.84577" lon="5.87447">
        <ele>627.7</ele>
        <time>2021-07-05T15:08:01Z</time>
      </trkpt>
      <trkpt lat="46.84583" lon="5.87447">
        <ele>627.4</ele>
        <time>2021-07-05T15:08:06Z</time>
      </trkpt>
      <trkpt lat="46.84595" lon="5.87442">
        <ele>627.1</ele>
        <time>2021-07-05T15:08:10Z</time>
      </trkpt>
      <trkpt lat="46.84602" lon="5.87439">
        <ele>626.9</ele>
        <time>2021-07-05T15:08:14Z</time>
      </trkpt>
      <trkpt lat="46.84608" lon="5.87438">
        <ele>626.4</ele>
        <time>2021-07-05T15:08:29Z</time>
      </trkpt>
      <trkpt lat="46.84612" lon="5.8744">
        <ele>626</ele>
        <time>2021-07-05T15:08:33Z</time>
      </trkpt>
      <trkpt lat="46.84616" lon="5.87446">
        <ele>625.3</ele>
        <time>2021-07-05T15:08:41Z</time>
      </trkpt>
      <trkpt lat="46.84623" lon="5.87448">
        <ele>624.6</ele>
        <time>2021-07-05T15:08:45Z</time>
      </trkpt>
      <trkpt lat="46.8463" lon="5.87448">
        <ele>623.5</ele>
        <time>2021-07-05T15:08:53Z</time>
      </trkpt>
      <trkpt lat="46.84635" lon="5.87447">
        <ele>622.9</ele>
        <time>2021-07-05T15:08:57Z</time>
      </trkpt>
      <trkpt lat="46.84641" lon="5.87451">
        <ele>622.6</ele>
        <time>2021-07-05T15:09:06Z</time>
      </trkpt>
      <trkpt lat="46.84649" lon="5.87454">
        <ele>623.3</ele>
        <time>2021-07-05T15:09:10Z</time>
      </trkpt>
      <trkpt lat="46.84655" lon="5.87458">
        <ele>624.5</ele>
        <time>2021-07-05T15:09:15Z</time>
      </trkpt>
      <trkpt lat="46.84661" lon="5.87463">
        <ele>625.8</ele>
        <time>2021-07-05T15:09:19Z</time>
      </trkpt>
      <trkpt lat="46.84667" lon="5.87466">
        <ele>628.3</ele>
        <time>2021-07-05T15:09:30Z</time>
      </trkpt>
      <trkpt lat="46.84672" lon="5.87469">
        <ele>629.8</ele>
        <time>2021-07-05T15:09:34Z</time>
      </trkpt>
      <trkpt lat="46.84679" lon="5.87469">
        <ele>631.7</ele>
        <time>2021-07-05T15:09:46Z</time>
      </trkpt>
      <trkpt lat="46.84687" lon="5.87468">
        <ele>631.7</ele>
        <time>2021-07-05T15:09:50Z</time>
      </trkpt>
      <trkpt lat="46.84693" lon="5.87468">
        <ele>631.4</ele>
        <time>2021-07-05T15:09:56Z</time>
      </trkpt>
      <trkpt lat="46.84701" lon="5.87469">
        <ele>630.7</ele>
        <time>2021-07-05T15:10:00Z</time>
      </trkpt>
      <trkpt lat="46.84707" lon="5.87471">
        <ele>629.8</ele>
        <time>2021-07-05T15:10:04Z</time>
      </trkpt>
      <trkpt lat="46.84713" lon="5.87474">
        <ele>628.4</ele>
        <time>2021-07-05T15:10:14Z</time>
      </trkpt>
      <trkpt lat="46.84719" lon="5.87477">
        <ele>627.6</ele>
        <time>2021-07-05T15:10:18Z</time>
      </trkpt>
      <trkpt lat="46.84723" lon="5.87483">
        <ele>626.3</ele>
        <time>2021-07-05T15:10:25Z</time>
      </trkpt>
      <trkpt lat="46.84729" lon="5.87491">
        <ele>625</ele>
        <time>2021-07-05T15:10:29Z</time>
      </trkpt>
      <trkpt lat="46.84736" lon="5.87498">
        <ele>623.3</ele>
        <time>2021-07-05T15:10:40Z</time>
      </trkpt>
      <trkpt lat="46.84742" lon="5.87501">
        <ele>622.6</ele>
        <time>2021-07-05T15:10:44Z</time>
      </trkpt>
      <trkpt lat="46.84748" lon="5.87504">
        <ele>621.5</ele>
        <time>2021-07-05T15:10:52Z</time>
      </trkpt>
      <trkpt lat="46.84753" lon="5.87508">
        <ele>620.4</ele>
        <time>2021-07-05T15:10:56Z</time>
      </trkpt>
      <trkpt lat="46.84756" lon="5.87515">
        <ele>618.8</ele>
        <time>2021-07-05T15:11:05Z</time>
      </trkpt>
      <trkpt lat="46.8476" lon="5.87523">
        <ele>617.7</ele>
        <time>2021-07-05T15:11:09Z</time>
      </trkpt>
      <trkpt lat="46.84764" lon="5.87529">
        <ele>615.2</ele>
        <time>2021-07-05T15:11:20Z</time>
      </trkpt>
      <trkpt lat="46.84769" lon="5.87537">
        <ele>613.6</ele>
        <time>2021-07-05T15:11:24Z</time>
      </trkpt>
      <trkpt lat="46.84771" lon="5.87544">
        <ele>611.2</ele>
        <time>2021-07-05T15:11:32Z</time>
      </trkpt>
      <trkpt lat="46.84774" lon="5.8755">
        <ele>609.7</ele>
        <time>2021-07-05T15:11:36Z</time>
      </trkpt>
      <trkpt lat="46.84778" lon="5.87557">
        <ele>607.2</ele>
        <time>2021-07-05T15:11:45Z</time>
      </trkpt>
      <trkpt lat="46.84782" lon="5.87564">
        <ele>605.6</ele>
        <time>2021-07-05T15:11:49Z</time>
      </trkpt>
      <trkpt lat="46.84788" lon="5.87566">
        <ele>603</ele>
        <time>2021-07-05T15:11:59Z</time>
      </trkpt>
      <trkpt lat="46.84792" lon="5.87569">
        <ele>601.7</ele>
        <time>2021-07-05T15:12:03Z</time>
      </trkpt>
      <trkpt lat="46.84797" lon="5.87574">
        <ele>600.3</ele>
        <time>2021-07-05T15:12:09Z</time>
      </trkpt>
      <trkpt lat="46.84803" lon="5.87578">
        <ele>599.6</ele>
        <time>2021-07-05T15:12:13Z</time>
      </trkpt>
      <trkpt lat="46.84806" lon="5.87585">
        <ele>599</ele>
        <time>2021-07-05T15:12:17Z</time>
      </trkpt>
      <trkpt lat="46.84812" lon="5.87595">
        <ele>598.9</ele>
        <time>2021-07-05T15:12:21Z</time>
      </trkpt>
      <trkpt lat="46.84817" lon="5.87605">
        <ele>599.3</ele>
        <time>2021-07-05T15:12:25Z</time>
      </trkpt>
      <trkpt lat="46.84823" lon="5.87607">
        <ele>599.8</ele>
        <time>2021-07-05T15:12:31Z</time>
      </trkpt>
      <trkpt lat="46.8483" lon="5.87606">
        <ele>600</ele>
        <time>2021-07-05T15:12:35Z</time>
      </trkpt>
      <trkpt lat="46.84835" lon="5.87611">
        <ele>600.3</ele>
        <time>2021-07-05T15:12:45Z</time>
      </trkpt>
      <trkpt lat="46.8484" lon="5.87615">
        <ele>600.3</ele>
        <time>2021-07-05T15:12:49Z</time>
      </trkpt>
      <trkpt lat="46.84844" lon="5.87622">
        <ele>600.8</ele>
        <time>2021-07-05T15:13:00Z</time>
      </trkpt>
      <trkpt lat="46.84847" lon="5.87633">
        <ele>602.2</ele>
        <time>2021-07-05T15:13:04Z</time>
      </trkpt>
      <trkpt lat="46.8485" lon="5.87638">
        <ele>605.1</ele>
        <time>2021-07-05T15:13:14Z</time>
      </trkpt>
      <trkpt lat="46.84853" lon="5.87646">
        <ele>606.1</ele>
        <time>2021-07-05T15:13:21Z</time>
      </trkpt>
      <trkpt lat="46.84857" lon="5.87653">
        <ele>606.6</ele>
        <time>2021-07-05T15:13:25Z</time>
      </trkpt>
      <trkpt lat="46.8486" lon="5.8766">
        <ele>607.3</ele>
        <time>2021-07-05T15:13:31Z</time>
      </trkpt>
      <trkpt lat="46.84864" lon="5.87667">
        <ele>607.6</ele>
        <time>2021-07-05T15:13:35Z</time>
      </trkpt>
      <trkpt lat="46.84869" lon="5.87676">
        <ele>608.5</ele>
        <time>2021-07-05T15:13:39Z</time>
      </trkpt>
      <trkpt lat="46.84873" lon="5.8768">
        <ele>609.5</ele>
        <time>2021-07-05T15:13:43Z</time>
      </trkpt>
      <trkpt lat="46.84881" lon="5.87685">
        <ele>610.6</ele>
        <time>2021-07-05T15:13:58Z</time>
      </trkpt>
      <trkpt lat="46.84887" lon="5.8769">
        <ele>610.8</ele>
        <time>2021-07-05T15:14:02Z</time>
      </trkpt>
      <trkpt lat="46.84893" lon="5.87695">
        <ele>611.7</ele>
        <time>2021-07-05T15:14:10Z</time>
      </trkpt>
      <trkpt lat="46.84899" lon="5.877">
        <ele>612.6</ele>
        <time>2021-07-05T15:14:14Z</time>
      </trkpt>
      <trkpt lat="46.84906" lon="5.87701">
        <ele>614.9</ele>
        <time>2021-07-05T15:14:21Z</time>
      </trkpt>
      <trkpt lat="46.84915" lon="5.87698">
        <ele>617.2</ele>
        <time>2021-07-05T15:14:25Z</time>
      </trkpt>
      <trkpt lat="46.8492" lon="5.87701">
        <ele>620.7</ele>
        <time>2021-07-05T15:14:34Z</time>
      </trkpt>
      <trkpt lat="46.84924" lon="5.87709">
        <ele>622.6</ele>
        <time>2021-07-05T15:14:38Z</time>
      </trkpt>
      <trkpt lat="46.84929" lon="5.87716">
        <ele>624.4</ele>
        <time>2021-07-05T15:14:42Z</time>
      </trkpt>
      <trkpt lat="46.84935" lon="5.87719">
        <ele>625.5</ele>
        <time>2021-07-05T15:14:46Z</time>
      </trkpt>
      <trkpt lat="46.84941" lon="5.87722">
        <ele>626.4</ele>
        <time>2021-07-05T15:14:51Z</time>
      </trkpt>
      <trkpt lat="46.84948" lon="5.87723">
        <ele>627.7</ele>
        <time>2021-07-05T15:14:55Z</time>
      </trkpt>
      <trkpt lat="46.84954" lon="5.87724">
        <ele>629.2</ele>
        <time>2021-07-05T15:14:59Z</time>
      </trkpt>
      <trkpt lat="46.84958" lon="5.87731">
        <ele>631.1</ele>
        <time>2021-07-05T15:15:08Z</time>
      </trkpt>
      <trkpt lat="46.84961" lon="5.87736">
        <ele>632.3</ele>
        <time>2021-07-05T15:15:12Z</time>
      </trkpt>
      <trkpt lat="46.84967" lon="5.87738">
        <ele>634.2</ele>
        <time>2021-07-05T15:15:21Z</time>
      </trkpt>
      <trkpt lat="46.84974" lon="5.87737">
        <ele>635</ele>
        <time>2021-07-05T15:15:25Z</time>
      </trkpt>
      <trkpt lat="46.8498" lon="5.87737">
        <ele>636.3</ele>
        <time>2021-07-05T15:15:31Z</time>
      </trkpt>
      <trkpt lat="46.84987" lon="5.87736">
        <ele>637.6</ele>
        <time>2021-07-05T15:15:35Z</time>
      </trkpt>
      <trkpt lat="46.84993" lon="5.87739">
        <ele>638.7</ele>
        <time>2021-07-05T15:15:39Z</time>
      </trkpt>
      <trkpt lat="46.84997" lon="5.87742">
        <ele>639.7</ele>
        <time>2021-07-05T15:15:43Z</time>
      </trkpt>
      <trkpt lat="46.85002" lon="5.87746">
        <ele>640.6</ele>
        <time>2021-07-05T15:15:49Z</time>
      </trkpt>
      <trkpt lat="46.85008" lon="5.87751">
        <ele>641</ele>
        <time>2021-07-05T15:15:53Z</time>
      </trkpt>
      <trkpt lat="46.85013" lon="5.87756">
        <ele>641.3</ele>
        <time>2021-07-05T15:15:57Z</time>
      </trkpt>
      <trkpt lat="46.85018" lon="5.87759">
        <ele>641.8</ele>
        <time>2021-07-05T15:16:01Z</time>
      </trkpt>
      <trkpt lat="46.85022" lon="5.87763">
        <ele>642.3</ele>
        <time>2021-07-05T15:16:07Z</time>
      </trkpt>
      <trkpt lat="46.85025" lon="5.8777">
        <ele>642.6</ele>
        <time>2021-07-05T15:16:11Z</time>
      </trkpt>
      <trkpt lat="46.85028" lon="5.87777">
        <ele>643</ele>
        <time>2021-07-05T15:16:16Z</time>
      </trkpt>
      <trkpt lat="46.85032" lon="5.87782">
        <ele>643.3</ele>
        <time>2021-07-05T15:16:20Z</time>
      </trkpt>
      <trkpt lat="46.85036" lon="5.87785">
        <ele>643.5</ele>
        <time>2021-07-05T15:16:27Z</time>
      </trkpt>
      <trkpt lat="46.85043" lon="5.8779">
        <ele>643.3</ele>
        <time>2021-07-05T15:16:31Z</time>
      </trkpt>
      <trkpt lat="46.85047" lon="5.87794">
        <ele>643.3</ele>
        <time>2021-07-05T15:16:35Z</time>
      </trkpt>
      <trkpt lat="46.85053" lon="5.87796">
        <ele>643.5</ele>
        <time>2021-07-05T15:16:39Z</time>
      </trkpt>
      <trkpt lat="46.85062" lon="5.87799">
        <ele>644.3</ele>
        <time>2021-07-05T15:16:43Z</time>
      </trkpt>
      <trkpt lat="46.85067" lon="5.87801">
        <ele>645</ele>
        <time>2021-07-05T15:16:47Z</time>
      </trkpt>
      <trkpt lat="46.85072" lon="5.87807">
        <ele>645.8</ele>
        <time>2021-07-05T15:17:00Z</time>
      </trkpt>
      <trkpt lat="46.85077" lon="5.87813">
        <ele>645.9</ele>
        <time>2021-07-05T15:17:04Z</time>
      </trkpt>
      <trkpt lat="46.85078" lon="5.8782">
        <ele>646</ele>
        <time>2021-07-05T15:17:08Z</time>
      </trkpt>
      <trkpt lat="46.85079" lon="5.87828">
        <ele>646.1</ele>
        <time>2021-07-05T15:17:12Z</time>
      </trkpt>
      <trkpt lat="46.85082" lon="5.87833">
        <ele>646</ele>
        <time>2021-07-05T15:17:16Z</time>
      </trkpt>
      <trkpt lat="46.85088" lon="5.87839">
        <ele>645.8</ele>
        <time>2021-07-05T15:17:27Z</time>
      </trkpt>
      <trkpt lat="46.85093" lon="5.87845">
        <ele>645.2</ele>
        <time>2021-07-05T15:17:31Z</time>
      </trkpt>
      <trkpt lat="46.85097" lon="5.87851">
        <ele>643.4</ele>
        <time>2021-07-05T15:17:40Z</time>
      </trkpt>
      <trkpt lat="46.851" lon="5.87858">
        <ele>641.6</ele>
        <time>2021-07-05T15:17:44Z</time>
      </trkpt>
      <trkpt lat="46.85101" lon="5.87866">
        <ele>638.4</ele>
        <time>2021-07-05T15:17:52Z</time>
      </trkpt>
      <trkpt lat="46.85102" lon="5.87878">
        <ele>635.9</ele>
        <time>2021-07-05T15:17:56Z</time>
      </trkpt>
      <trkpt lat="46.85104" lon="5.87891">
        <ele>631.6</ele>
        <time>2021-07-05T15:18:07Z</time>
      </trkpt>
      <trkpt lat="46.85107" lon="5.87899">
        <ele>630.3</ele>
        <time>2021-07-05T15:18:11Z</time>
      </trkpt>
      <trkpt lat="46.85106" lon="5.87906">
        <ele>629.2</ele>
        <time>2021-07-05T15:18:15Z</time>
      </trkpt>
      <trkpt lat="46.85107" lon="5.87917">
        <ele>627.5</ele>
        <time>2021-07-05T15:18:23Z</time>
      </trkpt>
      <trkpt lat="46.85111" lon="5.87925">
        <ele>626.7</ele>
        <time>2021-07-05T15:18:27Z</time>
      </trkpt>
      <trkpt lat="46.85116" lon="5.87928">
        <ele>626.3</ele>
        <time>2021-07-05T15:18:31Z</time>
      </trkpt>
      <trkpt lat="46.85121" lon="5.8793">
        <ele>626.4</ele>
        <time>2021-07-05T15:18:35Z</time>
      </trkpt>
      <trkpt lat="46.85126" lon="5.8794">
        <ele>626.8</ele>
        <time>2021-07-05T15:18:48Z</time>
      </trkpt>
      <trkpt lat="46.85127" lon="5.8795">
        <ele>626.8</ele>
        <time>2021-07-05T15:18:52Z</time>
      </trkpt>
      <trkpt lat="46.85128" lon="5.87958">
        <ele>627</ele>
        <time>2021-07-05T15:18:56Z</time>
      </trkpt>
      <trkpt lat="46.85131" lon="5.87963">
        <ele>627.2</ele>
        <time>2021-07-05T15:19:02Z</time>
      </trkpt>
      <trkpt lat="46.85134" lon="5.87969">
        <ele>627.3</ele>
        <time>2021-07-05T15:19:06Z</time>
      </trkpt>
      <trkpt lat="46.85136" lon="5.87976">
        <ele>627.7</ele>
        <time>2021-07-05T15:19:11Z</time>
      </trkpt>
      <trkpt lat="46.85137" lon="5.87984">
        <ele>627.8</ele>
        <time>2021-07-05T15:19:16Z</time>
      </trkpt>
      <trkpt lat="46.85138" lon="5.87991">
        <ele>627.2</ele>
        <time>2021-07-05T15:19:22Z</time>
      </trkpt>
      <trkpt lat="46.8514" lon="5.87999">
        <ele>626.9</ele>
        <time>2021-07-05T15:19:27Z</time>
      </trkpt>
      <trkpt lat="46.8514" lon="5.88006">
        <ele>627.1</ele>
        <time>2021-07-05T15:19:32Z</time>
      </trkpt>
      <trkpt lat="46.85142" lon="5.88017">
        <ele>628.3</ele>
        <time>2021-07-05T15:19:36Z</time>
      </trkpt>
      <trkpt lat="46.85144" lon="5.88025">
        <ele>629.8</ele>
        <time>2021-07-05T15:19:40Z</time>
      </trkpt>
      <trkpt lat="46.85148" lon="5.88034">
        <ele>633.2</ele>
        <time>2021-07-05T15:19:44Z</time>
      </trkpt>
      <trkpt lat="46.85151" lon="5.88043">
        <ele>637.6</ele>
        <time>2021-07-05T15:19:48Z</time>
      </trkpt>
      <trkpt lat="46.85151" lon="5.88054">
        <ele>642.2</ele>
        <time>2021-07-05T15:19:52Z</time>
      </trkpt>
      <trkpt lat="46.85151" lon="5.88063">
        <ele>646.2</ele>
        <time>2021-07-05T15:19:56Z</time>
      </trkpt>
      <trkpt lat="46.8515" lon="5.88073">
        <ele>651.8</ele>
        <time>2021-07-05T15:20:06Z</time>
      </trkpt>
      <trkpt lat="46.85149" lon="5.88082">
        <ele>654.4</ele>
        <time>2021-07-05T15:20:10Z</time>
      </trkpt>
      <trkpt lat="46.85147" lon="5.8809">
        <ele>657.2</ele>
        <time>2021-07-05T15:20:18Z</time>
      </trkpt>
      <trkpt lat="46.85143" lon="5.88099">
        <ele>658</ele>
        <time>2021-07-05T15:20:22Z</time>
      </trkpt>
      <trkpt lat="46.85139" lon="5.88107">
        <ele>659.1</ele>
        <time>2021-07-05T15:20:32Z</time>
      </trkpt>
      <trkpt lat="46.85136" lon="5.88113">
        <ele>659.6</ele>
        <time>2021-07-05T15:20:36Z</time>
      </trkpt>
      <trkpt lat="46.85131" lon="5.88118">
        <ele>659.8</ele>
        <time>2021-07-05T15:20:42Z</time>
      </trkpt>
      <trkpt lat="46.85122" lon="5.88126">
        <ele>659.6</ele>
        <time>2021-07-05T15:20:46Z</time>
      </trkpt>
      <trkpt lat="46.85117" lon="5.8813">
        <ele>659.3</ele>
        <time>2021-07-05T15:20:50Z</time>
      </trkpt>
      <trkpt lat="46.85113" lon="5.88137">
        <ele>658.9</ele>
        <time>2021-07-05T15:20:55Z</time>
      </trkpt>
      <trkpt lat="46.85109" lon="5.88146">
        <ele>658.3</ele>
        <time>2021-07-05T15:20:59Z</time>
      </trkpt>
      <trkpt lat="46.85108" lon="5.88152">
        <ele>657.7</ele>
        <time>2021-07-05T15:21:03Z</time>
      </trkpt>
      <trkpt lat="46.85108" lon="5.88162">
        <ele>657</ele>
        <time>2021-07-05T15:21:08Z</time>
      </trkpt>
      <trkpt lat="46.85109" lon="5.88171">
        <ele>656.2</ele>
        <time>2021-07-05T15:21:12Z</time>
      </trkpt>
      <trkpt lat="46.85112" lon="5.88177">
        <ele>655.2</ele>
        <time>2021-07-05T15:21:18Z</time>
      </trkpt>
      <trkpt lat="46.85114" lon="5.88183">
        <ele>654.7</ele>
        <time>2021-07-05T15:21:25Z</time>
      </trkpt>
      <trkpt lat="46.85115" lon="5.88195">
        <ele>654.7</ele>
        <time>2021-07-05T15:21:29Z</time>
      </trkpt>
      <trkpt lat="46.85116" lon="5.88206">
        <ele>655.9</ele>
        <time>2021-07-05T15:21:42Z</time>
      </trkpt>
      <trkpt lat="46.85116" lon="5.88213">
        <ele>657.1</ele>
        <time>2021-07-05T15:21:46Z</time>
      </trkpt>
      <trkpt lat="46.85117" lon="5.88221">
        <ele>659.5</ele>
        <time>2021-07-05T15:21:59Z</time>
      </trkpt>
      <trkpt lat="46.85119" lon="5.88227">
        <ele>660.3</ele>
        <time>2021-07-05T15:22:03Z</time>
      </trkpt>
      <trkpt lat="46.85122" lon="5.88233">
        <ele>660.6</ele>
        <time>2021-07-05T15:22:09Z</time>
      </trkpt>
      <trkpt lat="46.85125" lon="5.88239">
        <ele>662.1</ele>
        <time>2021-07-05T15:22:29Z</time>
      </trkpt>
      <trkpt lat="46.85127" lon="5.88248">
        <ele>663.6</ele>
        <time>2021-07-05T15:22:33Z</time>
      </trkpt>
      <trkpt lat="46.85129" lon="5.88256">
        <ele>664.5</ele>
        <time>2021-07-05T15:22:44Z</time>
      </trkpt>
      <trkpt lat="46.85132" lon="5.88264">
        <ele>663.8</ele>
        <time>2021-07-05T15:22:48Z</time>
      </trkpt>
      <trkpt lat="46.85136" lon="5.88271">
        <ele>662.7</ele>
        <time>2021-07-05T15:22:54Z</time>
      </trkpt>
      <trkpt lat="46.85139" lon="5.88284">
        <ele>661.9</ele>
        <time>2021-07-05T15:22:58Z</time>
      </trkpt>
      <trkpt lat="46.85142" lon="5.88291">
        <ele>661.2</ele>
        <time>2021-07-05T15:23:02Z</time>
      </trkpt>
      <trkpt lat="46.85146" lon="5.88297">
        <ele>660.6</ele>
        <time>2021-07-05T15:23:06Z</time>
      </trkpt>
      <trkpt lat="46.85149" lon="5.88306">
        <ele>660</ele>
        <time>2021-07-05T15:23:10Z</time>
      </trkpt>
      <trkpt lat="46.85153" lon="5.8831">
        <ele>659.4</ele>
        <time>2021-07-05T15:23:14Z</time>
      </trkpt>
      <trkpt lat="46.85157" lon="5.88313">
        <ele>659.6</ele>
        <time>2021-07-05T15:23:19Z</time>
      </trkpt>
      <trkpt lat="46.8516" lon="5.88319">
        <ele>660.1</ele>
        <time>2021-07-05T15:23:23Z</time>
      </trkpt>
      <trkpt lat="46.85164" lon="5.88324">
        <ele>660.7</ele>
        <time>2021-07-05T15:23:27Z</time>
      </trkpt>
      <trkpt lat="46.85169" lon="5.88328">
        <ele>661.5</ele>
        <time>2021-07-05T15:23:31Z</time>
      </trkpt>
      <trkpt lat="46.85173" lon="5.88333">
        <ele>662.4</ele>
        <time>2021-07-05T15:23:36Z</time>
      </trkpt>
      <trkpt lat="46.85177" lon="5.88339">
        <ele>662.9</ele>
        <time>2021-07-05T15:23:40Z</time>
      </trkpt>
      <trkpt lat="46.85181" lon="5.88345">
        <ele>663.1</ele>
        <time>2021-07-05T15:23:44Z</time>
      </trkpt>
      <trkpt lat="46.85186" lon="5.88346">
        <ele>662.9</ele>
        <time>2021-07-05T15:23:48Z</time>
      </trkpt>
      <trkpt lat="46.85191" lon="5.88346">
        <ele>662.7</ele>
        <time>2021-07-05T15:23:52Z</time>
      </trkpt>
      <trkpt lat="46.85195" lon="5.88351">
        <ele>662.4</ele>
        <time>2021-07-05T15:23:58Z</time>
      </trkpt>
      <trkpt lat="46.85198" lon="5.88357">
        <ele>662.2</ele>
        <time>2021-07-05T15:24:03Z</time>
      </trkpt>
      <trkpt lat="46.852" lon="5.88363">
        <ele>662</ele>
        <time>2021-07-05T15:24:07Z</time>
      </trkpt>
      <trkpt lat="46.85202" lon="5.88371">
        <ele>662</ele>
        <time>2021-07-05T15:24:15Z</time>
      </trkpt>
      <trkpt lat="46.85205" lon="5.88383">
        <ele>661.7</ele>
        <time>2021-07-05T15:24:19Z</time>
      </trkpt>
      <trkpt lat="46.85207" lon="5.88392">
        <ele>661.3</ele>
        <time>2021-07-05T15:24:23Z</time>
      </trkpt>
      <trkpt lat="46.85211" lon="5.88398">
        <ele>660.9</ele>
        <time>2021-07-05T15:24:27Z</time>
      </trkpt>
      <trkpt lat="46.85214" lon="5.88404">
        <ele>661</ele>
        <time>2021-07-05T15:24:31Z</time>
      </trkpt>
      <trkpt lat="46.85217" lon="5.8841">
        <ele>661</ele>
        <time>2021-07-05T15:24:35Z</time>
      </trkpt>
      <trkpt lat="46.85218" lon="5.88417">
        <ele>660.9</ele>
        <time>2021-07-05T15:24:39Z</time>
      </trkpt>
      <trkpt lat="46.85221" lon="5.88423">
        <ele>660.8</ele>
        <time>2021-07-05T15:24:44Z</time>
      </trkpt>
      <trkpt lat="46.85223" lon="5.88429">
        <ele>660.7</ele>
        <time>2021-07-05T15:24:50Z</time>
      </trkpt>
      <trkpt lat="46.85226" lon="5.88435">
        <ele>660.5</ele>
        <time>2021-07-05T15:24:57Z</time>
      </trkpt>
      <trkpt lat="46.85229" lon="5.88444">
        <ele>660.4</ele>
        <time>2021-07-05T15:25:01Z</time>
      </trkpt>
      <trkpt lat="46.85233" lon="5.88452">
        <ele>660.2</ele>
        <time>2021-07-05T15:25:05Z</time>
      </trkpt>
      <trkpt lat="46.85235" lon="5.8846">
        <ele>660</ele>
        <time>2021-07-05T15:25:09Z</time>
      </trkpt>
      <trkpt lat="46.85237" lon="5.88467">
        <ele>659.9</ele>
        <time>2021-07-05T15:25:13Z</time>
      </trkpt>
      <trkpt lat="46.85242" lon="5.88469">
        <ele>659.6</ele>
        <time>2021-07-05T15:25:17Z</time>
      </trkpt>
      <trkpt lat="46.85246" lon="5.88475">
        <ele>659.1</ele>
        <time>2021-07-05T15:25:26Z</time>
      </trkpt>
      <trkpt lat="46.85248" lon="5.88485">
        <ele>659.2</ele>
        <time>2021-07-05T15:25:30Z</time>
      </trkpt>
      <trkpt lat="46.85249" lon="5.88494">
        <ele>659.4</ele>
        <time>2021-07-05T15:25:36Z</time>
      </trkpt>
      <trkpt lat="46.85252" lon="5.88503">
        <ele>659.7</ele>
        <time>2021-07-05T15:25:47Z</time>
      </trkpt>
      <trkpt lat="46.85252" lon="5.88513">
        <ele>659.7</ele>
        <time>2021-07-05T15:25:51Z</time>
      </trkpt>
      <trkpt lat="46.85253" lon="5.88522">
        <ele>659.6</ele>
        <time>2021-07-05T15:25:57Z</time>
      </trkpt>
      <trkpt lat="46.85255" lon="5.8853">
        <ele>659.6</ele>
        <time>2021-07-05T15:26:01Z</time>
      </trkpt>
      <trkpt lat="46.85258" lon="5.88537">
        <ele>659.8</ele>
        <time>2021-07-05T15:26:05Z</time>
      </trkpt>
      <trkpt lat="46.85259" lon="5.88545">
        <ele>660.1</ele>
        <time>2021-07-05T15:26:09Z</time>
      </trkpt>
      <trkpt lat="46.85262" lon="5.88552">
        <ele>660.6</ele>
        <time>2021-07-05T15:26:13Z</time>
      </trkpt>
      <trkpt lat="46.85264" lon="5.88562">
        <ele>661.2</ele>
        <time>2021-07-05T15:26:22Z</time>
      </trkpt>
      <trkpt lat="46.85269" lon="5.8857">
        <ele>661.4</ele>
        <time>2021-07-05T15:26:26Z</time>
      </trkpt>
      <trkpt lat="46.85274" lon="5.88572">
        <ele>661.8</ele>
        <time>2021-07-05T15:26:30Z</time>
      </trkpt>
      <trkpt lat="46.85279" lon="5.88572">
        <ele>662.6</ele>
        <time>2021-07-05T15:26:34Z</time>
      </trkpt>
      <trkpt lat="46.85284" lon="5.88577">
        <ele>663.3</ele>
        <time>2021-07-05T15:26:43Z</time>
      </trkpt>
      <trkpt lat="46.8529" lon="5.88584">
        <ele>663.6</ele>
        <time>2021-07-05T15:26:47Z</time>
      </trkpt>
      <trkpt lat="46.85295" lon="5.88585">
        <ele>663.8</ele>
        <time>2021-07-05T15:26:52Z</time>
      </trkpt>
      <trkpt lat="46.85301" lon="5.88594">
        <ele>663.8</ele>
        <time>2021-07-05T15:27:04Z</time>
      </trkpt>
      <trkpt lat="46.85305" lon="5.88601">
        <ele>663.7</ele>
        <time>2021-07-05T15:27:08Z</time>
      </trkpt>
      <trkpt lat="46.85308" lon="5.88609">
        <ele>663.6</ele>
        <time>2021-07-05T15:27:12Z</time>
      </trkpt>
      <trkpt lat="46.85314" lon="5.88616">
        <ele>663.3</ele>
        <time>2021-07-05T15:27:16Z</time>
      </trkpt>
      <trkpt lat="46.85318" lon="5.88622">
        <ele>662.5</ele>
        <time>2021-07-05T15:27:23Z</time>
      </trkpt>
      <trkpt lat="46.85322" lon="5.88627">
        <ele>661.7</ele>
        <time>2021-07-05T15:27:30Z</time>
      </trkpt>
      <trkpt lat="46.85326" lon="5.88631">
        <ele>661.2</ele>
        <time>2021-07-05T15:27:35Z</time>
      </trkpt>
      <trkpt lat="46.85332" lon="5.88637">
        <ele>660.7</ele>
        <time>2021-07-05T15:27:39Z</time>
      </trkpt>
      <trkpt lat="46.85336" lon="5.88645">
        <ele>660.5</ele>
        <time>2021-07-05T15:27:43Z</time>
      </trkpt>
      <trkpt lat="46.85341" lon="5.8865">
        <ele>660.1</ele>
        <time>2021-07-05T15:27:50Z</time>
      </trkpt>
      <trkpt lat="46.8535" lon="5.88654">
        <ele>659.3</ele>
        <time>2021-07-05T15:27:54Z</time>
      </trkpt>
      <trkpt lat="46.85354" lon="5.88655">
        <ele>658.6</ele>
        <time>2021-07-05T15:28:00Z</time>
      </trkpt>
      <trkpt lat="46.85358" lon="5.88659">
        <ele>658.3</ele>
        <time>2021-07-05T15:28:07Z</time>
      </trkpt>
      <trkpt lat="46.85363" lon="5.88666">
        <ele>658.2</ele>
        <time>2021-07-05T15:28:11Z</time>
      </trkpt>
      <trkpt lat="46.85365" lon="5.88674">
        <ele>658</ele>
        <time>2021-07-05T15:28:20Z</time>
      </trkpt>
      <trkpt lat="46.85366" lon="5.88682">
        <ele>657.8</ele>
        <time>2021-07-05T15:28:24Z</time>
      </trkpt>
      <trkpt lat="46.8537" lon="5.88688">
        <ele>657.5</ele>
        <time>2021-07-05T15:28:34Z</time>
      </trkpt>
      <trkpt lat="46.85376" lon="5.88692">
        <ele>657.2</ele>
        <time>2021-07-05T15:28:38Z</time>
      </trkpt>
      <trkpt lat="46.85381" lon="5.88698">
        <ele>656.5</ele>
        <time>2021-07-05T15:28:46Z</time>
      </trkpt>
      <trkpt lat="46.85385" lon="5.88705">
        <ele>655.9</ele>
        <time>2021-07-05T15:28:50Z</time>
      </trkpt>
      <trkpt lat="46.85385" lon="5.88713">
        <ele>655.3</ele>
        <time>2021-07-05T15:28:54Z</time>
      </trkpt>
      <trkpt lat="46.85384" lon="5.88723">
        <ele>654.8</ele>
        <time>2021-07-05T15:28:58Z</time>
      </trkpt>
      <trkpt lat="46.85389" lon="5.88725">
        <ele>653.9</ele>
        <time>2021-07-05T15:29:12Z</time>
      </trkpt>
      <trkpt lat="46.85394" lon="5.88726">
        <ele>653.6</ele>
        <time>2021-07-05T15:29:16Z</time>
      </trkpt>
      <trkpt lat="46.854" lon="5.88724">
        <ele>653.3</ele>
        <time>2021-07-05T15:29:25Z</time>
      </trkpt>
      <trkpt lat="46.85406" lon="5.88721">
        <ele>653.4</ele>
        <time>2021-07-05T15:29:29Z</time>
      </trkpt>
      <trkpt lat="46.85413" lon="5.88717">
        <ele>653.4</ele>
        <time>2021-07-05T15:29:44Z</time>
      </trkpt>
      <trkpt lat="46.85423" lon="5.88714">
        <ele>653.1</ele>
        <time>2021-07-05T15:29:48Z</time>
      </trkpt>
      <trkpt lat="46.85428" lon="5.88715">
        <ele>652.7</ele>
        <time>2021-07-05T15:29:52Z</time>
      </trkpt>
      <trkpt lat="46.85434" lon="5.88716">
        <ele>652.4</ele>
        <time>2021-07-05T15:29:56Z</time>
      </trkpt>
      <trkpt lat="46.85439" lon="5.88714">
        <ele>652.3</ele>
        <time>2021-07-05T15:30:00Z</time>
      </trkpt>
      <trkpt lat="46.85444" lon="5.88711">
        <ele>652.1</ele>
        <time>2021-07-05T15:30:04Z</time>
      </trkpt>
      <trkpt lat="46.8545" lon="5.88711">
        <ele>652.1</ele>
        <time>2021-07-05T15:30:11Z</time>
      </trkpt>
      <trkpt lat="46.85462" lon="5.88714">
        <ele>652.4</ele>
        <time>2021-07-05T15:30:15Z</time>
      </trkpt>
      <trkpt lat="46.85468" lon="5.88714">
        <ele>652.6</ele>
        <time>2021-07-05T15:30:19Z</time>
      </trkpt>
      <trkpt lat="46.85473" lon="5.8872">
        <ele>653.5</ele>
        <time>2021-07-05T15:30:23Z</time>
      </trkpt>
      <trkpt lat="46.85476" lon="5.88724">
        <ele>654.3</ele>
        <time>2021-07-05T15:30:28Z</time>
      </trkpt>
      <trkpt lat="46.85479" lon="5.8873">
        <ele>655.3</ele>
        <time>2021-07-05T15:30:34Z</time>
      </trkpt>
      <trkpt lat="46.85485" lon="5.88735">
        <ele>656.6</ele>
        <time>2021-07-05T15:30:41Z</time>
      </trkpt>
      <trkpt lat="46.85492" lon="5.88738">
        <ele>657.4</ele>
        <time>2021-07-05T15:30:45Z</time>
      </trkpt>
      <trkpt lat="46.85498" lon="5.88741">
        <ele>658.3</ele>
        <time>2021-07-05T15:30:49Z</time>
      </trkpt>
      <trkpt lat="46.85502" lon="5.88744">
        <ele>659.4</ele>
        <time>2021-07-05T15:30:57Z</time>
      </trkpt>
      <trkpt lat="46.85508" lon="5.88746">
        <ele>660.6</ele>
        <time>2021-07-05T15:31:01Z</time>
      </trkpt>
      <trkpt lat="46.8552" lon="5.88752">
        <ele>663.1</ele>
        <time>2021-07-05T15:31:05Z</time>
      </trkpt>
      <trkpt lat="46.85528" lon="5.88756">
        <ele>666.5</ele>
        <time>2021-07-05T15:31:15Z</time>
      </trkpt>
      <trkpt lat="46.85533" lon="5.8876">
        <ele>667.5</ele>
        <time>2021-07-05T15:31:19Z</time>
      </trkpt>
      <trkpt lat="46.85538" lon="5.88761">
        <ele>669.4</ele>
        <time>2021-07-05T15:31:23Z</time>
      </trkpt>
      <trkpt lat="46.8555" lon="5.88762">
        <ele>674.5</ele>
        <time>2021-07-05T15:31:27Z</time>
      </trkpt>
      <trkpt lat="46.85558" lon="5.8876">
        <ele>678.4</ele>
        <time>2021-07-05T15:31:31Z</time>
      </trkpt>
      <trkpt lat="46.85563" lon="5.88764">
        <ele>681.7</ele>
        <time>2021-07-05T15:31:37Z</time>
      </trkpt>
      <trkpt lat="46.8557" lon="5.88764">
        <ele>682.9</ele>
        <time>2021-07-05T15:31:41Z</time>
      </trkpt>
      <trkpt lat="46.85575" lon="5.88767">
        <ele>684.2</ele>
        <time>2021-07-05T15:31:45Z</time>
      </trkpt>
      <trkpt lat="46.85582" lon="5.88767">
        <ele>686.6</ele>
        <time>2021-07-05T15:31:56Z</time>
      </trkpt>
      <trkpt lat="46.85594" lon="5.88768">
        <ele>688.8</ele>
        <time>2021-07-05T15:32:00Z</time>
      </trkpt>
      <trkpt lat="46.85603" lon="5.88768">
        <ele>691</ele>
        <time>2021-07-05T15:32:04Z</time>
      </trkpt>
      <trkpt lat="46.85607" lon="5.88769">
        <ele>692.5</ele>
        <time>2021-07-05T15:32:08Z</time>
      </trkpt>
      <trkpt lat="46.85613" lon="5.88768">
        <ele>694.6</ele>
        <time>2021-07-05T15:32:20Z</time>
      </trkpt>
      <trkpt lat="46.85619" lon="5.88769">
        <ele>695.4</ele>
        <time>2021-07-05T15:32:24Z</time>
      </trkpt>
      <trkpt lat="46.85629" lon="5.88774">
        <ele>695.7</ele>
        <time>2021-07-05T15:32:28Z</time>
      </trkpt>
      <trkpt lat="46.85636" lon="5.88774">
        <ele>696</ele>
        <time>2021-07-05T15:32:32Z</time>
      </trkpt>
      <trkpt lat="46.85645" lon="5.88774">
        <ele>696.1</ele>
        <time>2021-07-05T15:32:36Z</time>
      </trkpt>
      <trkpt lat="46.85649" lon="5.88775">
        <ele>696</ele>
        <time>2021-07-05T15:32:51Z</time>
      </trkpt>
      <trkpt lat="46.85658" lon="5.88777">
        <ele>695.9</ele>
        <time>2021-07-05T15:32:55Z</time>
      </trkpt>
      <trkpt lat="46.85665" lon="5.88776">
        <ele>695.7</ele>
        <time>2021-07-05T15:32:59Z</time>
      </trkpt>
      <trkpt lat="46.85672" lon="5.88776">
        <ele>695.7</ele>
        <time>2021-07-05T15:33:05Z</time>
      </trkpt>
      <trkpt lat="46.85679" lon="5.88778">
        <ele>695.8</ele>
        <time>2021-07-05T15:33:09Z</time>
      </trkpt>
      <trkpt lat="46.85684" lon="5.88784">
        <ele>696.2</ele>
        <time>2021-07-05T15:33:13Z</time>
      </trkpt>
      <trkpt lat="46.85691" lon="5.88789">
        <ele>697</ele>
        <time>2021-07-05T15:33:17Z</time>
      </trkpt>
      <trkpt lat="46.85699" lon="5.88792">
        <ele>697.7</ele>
        <time>2021-07-05T15:33:21Z</time>
      </trkpt>
      <trkpt lat="46.85706" lon="5.88794">
        <ele>698.5</ele>
        <time>2021-07-05T15:33:25Z</time>
      </trkpt>
      <trkpt lat="46.8571" lon="5.88799">
        <ele>699.1</ele>
        <time>2021-07-05T15:33:31Z</time>
      </trkpt>
      <trkpt lat="46.85712" lon="5.88804">
        <ele>699.6</ele>
        <time>2021-07-05T15:33:35Z</time>
      </trkpt>
      <trkpt lat="46.85715" lon="5.8881">
        <ele>699.9</ele>
        <time>2021-07-05T15:33:41Z</time>
      </trkpt>
      <trkpt lat="46.85718" lon="5.88815">
        <ele>699.9</ele>
        <time>2021-07-05T15:33:47Z</time>
      </trkpt>
      <trkpt lat="46.85721" lon="5.88823">
        <ele>699.8</ele>
        <time>2021-07-05T15:33:51Z</time>
      </trkpt>
      <trkpt lat="46.85725" lon="5.88829">
        <ele>699.1</ele>
        <time>2021-07-05T15:33:56Z</time>
      </trkpt>
      <trkpt lat="46.85728" lon="5.88835">
        <ele>698.5</ele>
        <time>2021-07-05T15:34:02Z</time>
      </trkpt>
      <trkpt lat="46.85731" lon="5.8884">
        <ele>698.3</ele>
        <time>2021-07-05T15:34:07Z</time>
      </trkpt>
      <trkpt lat="46.85734" lon="5.88847">
        <ele>698.2</ele>
        <time>2021-07-05T15:34:11Z</time>
      </trkpt>
      <trkpt lat="46.85739" lon="5.88853">
        <ele>698.3</ele>
        <time>2021-07-05T15:34:15Z</time>
      </trkpt>
      <trkpt lat="46.85744" lon="5.88859">
        <ele>698.6</ele>
        <time>2021-07-05T15:34:25Z</time>
      </trkpt>
      <trkpt lat="46.85748" lon="5.88863">
        <ele>699</ele>
        <time>2021-07-05T15:34:29Z</time>
      </trkpt>
      <trkpt lat="46.85751" lon="5.88871">
        <ele>699</ele>
        <time>2021-07-05T15:34:33Z</time>
      </trkpt>
      <trkpt lat="46.85752" lon="5.88877">
        <ele>698.7</ele>
        <time>2021-07-05T15:34:37Z</time>
      </trkpt>
      <trkpt lat="46.85756" lon="5.88885">
        <ele>698.8</ele>
        <time>2021-07-05T15:34:41Z</time>
      </trkpt>
      <trkpt lat="46.8576" lon="5.88893">
        <ele>699.6</ele>
        <time>2021-07-05T15:34:45Z</time>
      </trkpt>
      <trkpt lat="46.85763" lon="5.88899">
        <ele>700.3</ele>
        <time>2021-07-05T15:34:49Z</time>
      </trkpt>
      <trkpt lat="46.85767" lon="5.88903">
        <ele>700.7</ele>
        <time>2021-07-05T15:34:53Z</time>
      </trkpt>
      <trkpt lat="46.85772" lon="5.88908">
        <ele>701.3</ele>
        <time>2021-07-05T15:34:58Z</time>
      </trkpt>
      <trkpt lat="46.85774" lon="5.88914">
        <ele>701.7</ele>
        <time>2021-07-05T15:35:02Z</time>
      </trkpt>
      <trkpt lat="46.85776" lon="5.88921">
        <ele>702.2</ele>
        <time>2021-07-05T15:35:07Z</time>
      </trkpt>
      <trkpt lat="46.85777" lon="5.88928">
        <ele>702.4</ele>
        <time>2021-07-05T15:35:11Z</time>
      </trkpt>
      <trkpt lat="46.85777" lon="5.88935">
        <ele>702.3</ele>
        <time>2021-07-05T15:35:15Z</time>
      </trkpt>
      <trkpt lat="46.85781" lon="5.88939">
        <ele>702.1</ele>
        <time>2021-07-05T15:35:21Z</time>
      </trkpt>
      <trkpt lat="46.85786" lon="5.8894">
        <ele>702</ele>
        <time>2021-07-05T15:35:25Z</time>
      </trkpt>
      <trkpt lat="46.85792" lon="5.88941">
        <ele>701.5</ele>
        <time>2021-07-05T15:35:33Z</time>
      </trkpt>
      <trkpt lat="46.85799" lon="5.88944">
        <ele>700.5</ele>
        <time>2021-07-05T15:35:37Z</time>
      </trkpt>
      <trkpt lat="46.85803" lon="5.88948">
        <ele>699.4</ele>
        <time>2021-07-05T15:35:41Z</time>
      </trkpt>
      <trkpt lat="46.8581" lon="5.88952">
        <ele>698.3</ele>
        <time>2021-07-05T15:35:53Z</time>
      </trkpt>
      <trkpt lat="46.85815" lon="5.88954">
        <ele>698.3</ele>
        <time>2021-07-05T15:35:57Z</time>
      </trkpt>
      <trkpt lat="46.8582" lon="5.88959">
        <ele>698.3</ele>
        <time>2021-07-05T15:36:04Z</time>
      </trkpt>
      <trkpt lat="46.85827" lon="5.88966">
        <ele>698.2</ele>
        <time>2021-07-05T15:36:08Z</time>
      </trkpt>
      <trkpt lat="46.85831" lon="5.88967">
        <ele>698.1</ele>
        <time>2021-07-05T15:36:15Z</time>
      </trkpt>
      <trkpt lat="46.85836" lon="5.88973">
        <ele>698.1</ele>
        <time>2021-07-05T15:36:19Z</time>
      </trkpt>
      <trkpt lat="46.85843" lon="5.88979">
        <ele>697.8</ele>
        <time>2021-07-05T15:36:23Z</time>
      </trkpt>
      <trkpt lat="46.85849" lon="5.88983">
        <ele>697.5</ele>
        <time>2021-07-05T15:36:27Z</time>
      </trkpt>
      <trkpt lat="46.85854" lon="5.88987">
        <ele>697.2</ele>
        <time>2021-07-05T15:36:33Z</time>
      </trkpt>
      <trkpt lat="46.85858" lon="5.88992">
        <ele>697</ele>
        <time>2021-07-05T15:36:37Z</time>
      </trkpt>
      <trkpt lat="46.85864" lon="5.88996">
        <ele>696.8</ele>
        <time>2021-07-05T15:36:41Z</time>
      </trkpt>
      <trkpt lat="46.8587" lon="5.89">
        <ele>696.5</ele>
        <time>2021-07-05T15:36:45Z</time>
      </trkpt>
      <trkpt lat="46.85875" lon="5.89004">
        <ele>695.7</ele>
        <time>2021-07-05T15:36:49Z</time>
      </trkpt>
      <trkpt lat="46.85879" lon="5.89007">
        <ele>694.5</ele>
        <time>2021-07-05T15:36:54Z</time>
      </trkpt>
      <trkpt lat="46.85883" lon="5.89011">
        <ele>693.8</ele>
        <time>2021-07-05T15:36:59Z</time>
      </trkpt>
      <trkpt lat="46.85887" lon="5.89017">
        <ele>693.6</ele>
        <time>2021-07-05T15:37:03Z</time>
      </trkpt>
      <trkpt lat="46.8589" lon="5.89023">
        <ele>693.5</ele>
        <time>2021-07-05T15:37:07Z</time>
      </trkpt>
      <trkpt lat="46.8589" lon="5.8903">
        <ele>693.5</ele>
        <time>2021-07-05T15:37:11Z</time>
      </trkpt>
      <trkpt lat="46.85891" lon="5.89037">
        <ele>693.5</ele>
        <time>2021-07-05T15:37:15Z</time>
      </trkpt>
      <trkpt lat="46.85894" lon="5.89043">
        <ele>693.5</ele>
        <time>2021-07-05T15:37:19Z</time>
      </trkpt>
      <trkpt lat="46.85898" lon="5.8905">
        <ele>693.7</ele>
        <time>2021-07-05T15:37:24Z</time>
      </trkpt>
      <trkpt lat="46.859" lon="5.89055">
        <ele>693.9</ele>
        <time>2021-07-05T15:37:28Z</time>
      </trkpt>
      <trkpt lat="46.85902" lon="5.89063">
        <ele>693.7</ele>
        <time>2021-07-05T15:37:32Z</time>
      </trkpt>
      <trkpt lat="46.85904" lon="5.8907">
        <ele>693.3</ele>
        <time>2021-07-05T15:37:36Z</time>
      </trkpt>
      <trkpt lat="46.85908" lon="5.89075">
        <ele>693.3</ele>
        <time>2021-07-05T15:37:44Z</time>
      </trkpt>
      <trkpt lat="46.85911" lon="5.89081">
        <ele>693.3</ele>
        <time>2021-07-05T15:37:49Z</time>
      </trkpt>
      <trkpt lat="46.85914" lon="5.89088">
        <ele>693.1</ele>
        <time>2021-07-05T15:37:54Z</time>
      </trkpt>
      <trkpt lat="46.85918" lon="5.89094">
        <ele>692.7</ele>
        <time>2021-07-05T15:37:58Z</time>
      </trkpt>
      <trkpt lat="46.85922" lon="5.891">
        <ele>692.2</ele>
        <time>2021-07-05T15:38:03Z</time>
      </trkpt>
      <trkpt lat="46.85925" lon="5.89105">
        <ele>691.6</ele>
        <time>2021-07-05T15:38:11Z</time>
      </trkpt>
      <trkpt lat="46.85927" lon="5.89112">
        <ele>691.6</ele>
        <time>2021-07-05T15:38:17Z</time>
      </trkpt>
      <trkpt lat="46.8593" lon="5.89119">
        <ele>692</ele>
        <time>2021-07-05T15:38:21Z</time>
      </trkpt>
      <trkpt lat="46.85931" lon="5.89128">
        <ele>692.7</ele>
        <time>2021-07-05T15:38:29Z</time>
      </trkpt>
      <trkpt lat="46.85934" lon="5.89138">
        <ele>693</ele>
        <time>2021-07-05T15:38:33Z</time>
      </trkpt>
      <trkpt lat="46.85936" lon="5.89144">
        <ele>693.8</ele>
        <time>2021-07-05T15:38:40Z</time>
      </trkpt>
      <trkpt lat="46.85937" lon="5.89151">
        <ele>694.1</ele>
        <time>2021-07-05T15:38:44Z</time>
      </trkpt>
      <trkpt lat="46.85939" lon="5.89163">
        <ele>694.4</ele>
        <time>2021-07-05T15:38:48Z</time>
      </trkpt>
      <trkpt lat="46.8594" lon="5.89173">
        <ele>694.6</ele>
        <time>2021-07-05T15:38:55Z</time>
      </trkpt>
      <trkpt lat="46.85941" lon="5.89188">
        <ele>694.4</ele>
        <time>2021-07-05T15:38:59Z</time>
      </trkpt>
      <trkpt lat="46.85943" lon="5.89194">
        <ele>694.2</ele>
        <time>2021-07-05T15:39:04Z</time>
      </trkpt>
      <trkpt lat="46.85945" lon="5.892">
        <ele>694.4</ele>
        <time>2021-07-05T15:39:11Z</time>
      </trkpt>
      <trkpt lat="46.85948" lon="5.89209">
        <ele>694.6</ele>
        <time>2021-07-05T15:39:15Z</time>
      </trkpt>
      <trkpt lat="46.85951" lon="5.89217">
        <ele>694.1</ele>
        <time>2021-07-05T15:39:20Z</time>
      </trkpt>
      <trkpt lat="46.85954" lon="5.89224">
        <ele>693.6</ele>
        <time>2021-07-05T15:39:24Z</time>
      </trkpt>
      <trkpt lat="46.85958" lon="5.8923">
        <ele>694.3</ele>
        <time>2021-07-05T15:39:34Z</time>
      </trkpt>
      <trkpt lat="46.8596" lon="5.89237">
        <ele>694.7</ele>
        <time>2021-07-05T15:39:38Z</time>
      </trkpt>
      <trkpt lat="46.85964" lon="5.89244">
        <ele>695.6</ele>
        <time>2021-07-05T15:39:42Z</time>
      </trkpt>
      <trkpt lat="46.85969" lon="5.89254">
        <ele>697</ele>
        <time>2021-07-05T15:39:54Z</time>
      </trkpt>
      <trkpt lat="46.85975" lon="5.89265">
        <ele>696.7</ele>
        <time>2021-07-05T15:39:58Z</time>
      </trkpt>
      <trkpt lat="46.85978" lon="5.89272">
        <ele>695.7</ele>
        <time>2021-07-05T15:40:02Z</time>
      </trkpt>
      <trkpt lat="46.85977" lon="5.8928">
        <ele>694</ele>
        <time>2021-07-05T15:40:07Z</time>
      </trkpt>
      <trkpt lat="46.85979" lon="5.89287">
        <ele>692.7</ele>
        <time>2021-07-05T15:40:12Z</time>
      </trkpt>
      <trkpt lat="46.85984" lon="5.89296">
        <ele>691.6</ele>
        <time>2021-07-05T15:40:22Z</time>
      </trkpt>
      <trkpt lat="46.85988" lon="5.89303">
        <ele>691.8</ele>
        <time>2021-07-05T15:40:26Z</time>
      </trkpt>
      <trkpt lat="46.85989" lon="5.89312">
        <ele>691.5</ele>
        <time>2021-07-05T15:40:42Z</time>
      </trkpt>
      <trkpt lat="46.85995" lon="5.89324">
        <ele>691.2</ele>
        <time>2021-07-05T15:40:46Z</time>
      </trkpt>
      <trkpt lat="46.86011" lon="5.89338">
        <ele>691.4</ele>
        <time>2021-07-05T15:40:59Z</time>
      </trkpt>
      <trkpt lat="46.86015" lon="5.89344">
        <ele>691.5</ele>
        <time>2021-07-05T15:41:03Z</time>
      </trkpt>
      <trkpt lat="46.86018" lon="5.8935">
        <ele>691.5</ele>
        <time>2021-07-05T15:41:07Z</time>
      </trkpt>
      <trkpt lat="46.86021" lon="5.89357">
        <ele>691.5</ele>
        <time>2021-07-05T15:41:11Z</time>
      </trkpt>
      <trkpt lat="46.86026" lon="5.89362">
        <ele>691.4</ele>
        <time>2021-07-05T15:41:15Z</time>
      </trkpt>
      <trkpt lat="46.86033" lon="5.89372">
        <ele>692.7</ele>
        <time>2021-07-05T15:41:19Z</time>
      </trkpt>
      <trkpt lat="46.86032" lon="5.89378">
        <ele>694.3</ele>
        <time>2021-07-05T15:41:24Z</time>
      </trkpt>
      <trkpt lat="46.8603" lon="5.89387">
        <ele>695</ele>
        <time>2021-07-05T15:41:29Z</time>
      </trkpt>
      <trkpt lat="46.86032" lon="5.89395">
        <ele>696.5</ele>
        <time>2021-07-05T15:41:33Z</time>
      </trkpt>
      <trkpt lat="46.86035" lon="5.89402">
        <ele>698.1</ele>
        <time>2021-07-05T15:41:45Z</time>
      </trkpt>
      <trkpt lat="46.86039" lon="5.89409">
        <ele>698</ele>
        <time>2021-07-05T15:41:49Z</time>
      </trkpt>
      <trkpt lat="46.86043" lon="5.89414">
        <ele>698</ele>
        <time>2021-07-05T15:41:55Z</time>
      </trkpt>
      <trkpt lat="46.86047" lon="5.8942">
        <ele>698</ele>
        <time>2021-07-05T15:41:59Z</time>
      </trkpt>
      <trkpt lat="46.86049" lon="5.89426">
        <ele>698</ele>
        <time>2021-07-05T15:42:07Z</time>
      </trkpt>
      <trkpt lat="46.86051" lon="5.89437">
        <ele>698.1</ele>
        <time>2021-07-05T15:42:11Z</time>
      </trkpt>
      <trkpt lat="46.86049" lon="5.89447">
        <ele>698.4</ele>
        <time>2021-07-05T15:42:15Z</time>
      </trkpt>
      <trkpt lat="46.86048" lon="5.89455">
        <ele>698.9</ele>
        <time>2021-07-05T15:42:22Z</time>
      </trkpt>
      <trkpt lat="46.86045" lon="5.89463">
        <ele>699.4</ele>
        <time>2021-07-05T15:42:26Z</time>
      </trkpt>
      <trkpt lat="46.86047" lon="5.89471">
        <ele>700.2</ele>
        <time>2021-07-05T15:42:37Z</time>
      </trkpt>
      <trkpt lat="46.8605" lon="5.89481">
        <ele>700.5</ele>
        <time>2021-07-05T15:42:41Z</time>
      </trkpt>
      <trkpt lat="46.86049" lon="5.8949">
        <ele>700.6</ele>
        <time>2021-07-05T15:42:46Z</time>
      </trkpt>
      <trkpt lat="46.86047" lon="5.89502">
        <ele>700.2</ele>
        <time>2021-07-05T15:42:50Z</time>
      </trkpt>
      <trkpt lat="46.86046" lon="5.89513">
        <ele>700</ele>
        <time>2021-07-05T15:42:54Z</time>
      </trkpt>
      <trkpt lat="46.86045" lon="5.89522">
        <ele>700.5</ele>
        <time>2021-07-05T15:43:02Z</time>
      </trkpt>
      <trkpt lat="46.86043" lon="5.89531">
        <ele>701.4</ele>
        <time>2021-07-05T15:43:06Z</time>
      </trkpt>
      <trkpt lat="46.86041" lon="5.89543">
        <ele>702.5</ele>
        <time>2021-07-05T15:43:17Z</time>
      </trkpt>
      <trkpt lat="46.8604" lon="5.89551">
        <ele>703.1</ele>
        <time>2021-07-05T15:43:21Z</time>
      </trkpt>
      <trkpt lat="46.86037" lon="5.8956">
        <ele>704.1</ele>
        <time>2021-07-05T15:43:40Z</time>
      </trkpt>
      <trkpt lat="46.86035" lon="5.89569">
        <ele>704.4</ele>
        <time>2021-07-05T15:43:44Z</time>
      </trkpt>
      <trkpt lat="46.86032" lon="5.89578">
        <ele>704.6</ele>
        <time>2021-07-05T15:43:51Z</time>
      </trkpt>
      <trkpt lat="46.86028" lon="5.89587">
        <ele>704.7</ele>
        <time>2021-07-05T15:43:55Z</time>
      </trkpt>
      <trkpt lat="46.86025" lon="5.89595">
        <ele>704.7</ele>
        <time>2021-07-05T15:44:01Z</time>
      </trkpt>
      <trkpt lat="46.86022" lon="5.89604">
        <ele>704.8</ele>
        <time>2021-07-05T15:44:05Z</time>
      </trkpt>
      <trkpt lat="46.8602" lon="5.89613">
        <ele>704.8</ele>
        <time>2021-07-05T15:44:19Z</time>
      </trkpt>
      <trkpt lat="46.86018" lon="5.89622">
        <ele>704.9</ele>
        <time>2021-07-05T15:44:23Z</time>
      </trkpt>
      <trkpt lat="46.86013" lon="5.89629">
        <ele>704.9</ele>
        <time>2021-07-05T15:44:29Z</time>
      </trkpt>
      <trkpt lat="46.86006" lon="5.8964">
        <ele>704.9</ele>
        <time>2021-07-05T15:44:33Z</time>
      </trkpt>
      <trkpt lat="46.86003" lon="5.89645">
        <ele>705</ele>
        <time>2021-07-05T15:44:39Z</time>
      </trkpt>
      <trkpt lat="46.85999" lon="5.89654">
        <ele>705</ele>
        <time>2021-07-05T15:44:43Z</time>
      </trkpt>
      <trkpt lat="46.85992" lon="5.89664">
        <ele>704.4</ele>
        <time>2021-07-05T15:44:47Z</time>
      </trkpt>
      <trkpt lat="46.85988" lon="5.89672">
        <ele>703.7</ele>
        <time>2021-07-05T15:44:51Z</time>
      </trkpt>
      <trkpt lat="46.85984" lon="5.89678">
        <ele>702.9</ele>
        <time>2021-07-05T15:44:57Z</time>
      </trkpt>
      <trkpt lat="46.85979" lon="5.89685">
        <ele>702.3</ele>
        <time>2021-07-05T15:45:01Z</time>
      </trkpt>
      <trkpt lat="46.85974" lon="5.89691">
        <ele>701.1</ele>
        <time>2021-07-05T15:45:08Z</time>
      </trkpt>
      <trkpt lat="46.85969" lon="5.89696">
        <ele>699.9</ele>
        <time>2021-07-05T15:45:12Z</time>
      </trkpt>
      <trkpt lat="46.85964" lon="5.89701">
        <ele>697.6</ele>
        <time>2021-07-05T15:45:16Z</time>
      </trkpt>
      <trkpt lat="46.85961" lon="5.89707">
        <ele>695.3</ele>
        <time>2021-07-05T15:45:20Z</time>
      </trkpt>
      <trkpt lat="46.85957" lon="5.89715">
        <ele>694.1</ele>
        <time>2021-07-05T15:45:24Z</time>
      </trkpt>
      <trkpt lat="46.85953" lon="5.8972">
        <ele>693.2</ele>
        <time>2021-07-05T15:45:28Z</time>
      </trkpt>
      <trkpt lat="46.85945" lon="5.89722">
        <ele>691.7</ele>
        <time>2021-07-05T15:45:32Z</time>
      </trkpt>
      <trkpt lat="46.85938" lon="5.8973">
        <ele>687.2</ele>
        <time>2021-07-05T15:45:47Z</time>
      </trkpt>
      <trkpt lat="46.85934" lon="5.89736">
        <ele>685.2</ele>
        <time>2021-07-05T15:45:51Z</time>
      </trkpt>
      <trkpt lat="46.85923" lon="5.89733">
        <ele>682.9</ele>
        <time>2021-07-05T15:45:55Z</time>
      </trkpt>
      <trkpt lat="46.85917" lon="5.89736">
        <ele>680.9</ele>
        <time>2021-07-05T15:45:59Z</time>
      </trkpt>
      <trkpt lat="46.85904" lon="5.89746">
        <ele>679.1</ele>
        <time>2021-07-05T15:46:03Z</time>
      </trkpt>
      <trkpt lat="46.85898" lon="5.89749">
        <ele>677.9</ele>
        <time>2021-07-05T15:46:07Z</time>
      </trkpt>
      <trkpt lat="46.85892" lon="5.89749">
        <ele>676</ele>
        <time>2021-07-05T15:46:16Z</time>
      </trkpt>
      <trkpt lat="46.85884" lon="5.89749">
        <ele>674.5</ele>
        <time>2021-07-05T15:46:20Z</time>
      </trkpt>
      <trkpt lat="46.85878" lon="5.89747">
        <ele>671.8</ele>
        <time>2021-07-05T15:46:29Z</time>
      </trkpt>
      <trkpt lat="46.85872" lon="5.89749">
        <ele>670</ele>
        <time>2021-07-05T15:46:33Z</time>
      </trkpt>
      <trkpt lat="46.85866" lon="5.89749">
        <ele>668.3</ele>
        <time>2021-07-05T15:46:40Z</time>
      </trkpt>
      <trkpt lat="46.85856" lon="5.89748">
        <ele>668</ele>
        <time>2021-07-05T15:46:44Z</time>
      </trkpt>
      <trkpt lat="46.85849" lon="5.8975">
        <ele>667.3</ele>
        <time>2021-07-05T15:46:51Z</time>
      </trkpt>
      <trkpt lat="46.85841" lon="5.89754">
        <ele>667.4</ele>
        <time>2021-07-05T15:46:55Z</time>
      </trkpt>
      <trkpt lat="46.85833" lon="5.89756">
        <ele>668.3</ele>
        <time>2021-07-05T15:46:59Z</time>
      </trkpt>
      <trkpt lat="46.85826" lon="5.89755">
        <ele>669</ele>
        <time>2021-07-05T15:47:09Z</time>
      </trkpt>
      <trkpt lat="46.85818" lon="5.89757">
        <ele>668.9</ele>
        <time>2021-07-05T15:47:13Z</time>
      </trkpt>
      <trkpt lat="46.85813" lon="5.8976">
        <ele>668.7</ele>
        <time>2021-07-05T15:47:18Z</time>
      </trkpt>
      <trkpt lat="46.85811" lon="5.89753">
        <ele>668.5</ele>
        <time>2021-07-05T15:47:22Z</time>
      </trkpt>
      <trkpt lat="46.85797" lon="5.89759">
        <ele>667.9</ele>
        <time>2021-07-05T15:48:01Z</time>
      </trkpt>
      <trkpt lat="46.85783" lon="5.8978">
        <ele>672.9</ele>
        <time>2021-07-05T15:48:20Z</time>
      </trkpt>
      <trkpt lat="46.8578" lon="5.89786">
        <ele>674.4</ele>
        <time>2021-07-05T15:48:24Z</time>
      </trkpt>
      <trkpt lat="46.85771" lon="5.89803">
        <ele>676.5</ele>
        <time>2021-07-05T15:48:56Z</time>
      </trkpt>
      <trkpt lat="46.8576" lon="5.89803">
        <ele>674.8</ele>
        <time>2021-07-05T15:49:00Z</time>
      </trkpt>
    </trkseg>
  </trk>
</gpx>